Wetterdaten: Mittwoch, 17.01.2018
Datum Zeit Temp. A. Feuchte A. Luftdruck Regen Wind Richtung Richtung Sonnenschein ET UV Solar Taupunkt Windchill Windböen
17.01.2018 00:00 1,1 °C 92 % 999,5 hPa 0,0 mm 12,9 km/h (3 Bft) W-NW 286 ° 0 min 0,000 mm 0,0 UV-I 0 W/m² -0,1 °C -2,7 °C 19,3 km/h (3 Bft)
17.01.2018 00:01 1,1 °C 92 % 999,4 hPa 0,0 mm 8,8 km/h (2 Bft) W-SW 251 ° 0 min 0,000 mm 0,0 UV-I 0 W/m² -0,1 °C -1,7 °C 12,9 km/h (3 Bft)
17.01.2018 00:02 1,1 °C 92 % 999,4 hPa 0,0 mm 13,7 km/h (3 Bft) W 271 ° 0 min 0,000 mm 0,0 UV-I 0 W/m² -0,1 °C -2,8 °C 22,5 km/h (4 Bft)
17.01.2018 00:03 1,1 °C 92 % 999,4 hPa 0,0 mm 16,4 km/h (3 Bft) W 270 ° 0 min 0,000 mm 0,0 UV-I 0 W/m² -0,1 °C -3,3 °C 29,0 km/h (5 Bft)
17.01.2018 00:04 1,2 °C 93 % 999,4 hPa 0,2 mm 16,6 km/h (3 Bft) SW 234 ° 0 min 0,000 mm 0,0 UV-I 0 W/m² 0,2 °C -3,2 °C 20,9 km/h (4 Bft)
17.01.2018 00:05 1,2 °C 93 % 999,4 hPa 0,0 mm 13,4 km/h (3 Bft) W 264 ° 0 min 0,000 mm 0,0 UV-I 0 W/m² 0,2 °C -2,6 °C 27,4 km/h (4 Bft)
17.01.2018 00:06 1,2 °C 93 % 999,4 hPa 0,0 mm 15,4 km/h (3 Bft) W-SW 244 ° 0 min 0,000 mm 0,0 UV-I 0 W/m² 0,2 °C -3,0 °C 32,2 km/h (5 Bft)
17.01.2018 00:07 1,3 °C 92 % 999,4 hPa 0,0 mm 16,4 km/h (3 Bft) SW 225 ° 0 min 0,000 mm 0,0 UV-I 0 W/m² 0,1 °C -3,1 °C 24,1 km/h (4 Bft)
17.01.2018 00:08 1,3 °C 92 % 999,4 hPa 0,0 mm 14,2 km/h (3 Bft) W-SW 252 ° 0 min 0,000 mm 0,0 UV-I 0 W/m² 0,1 °C -2,7 °C 25,7 km/h (4 Bft)
17.01.2018 00:09 1,3 °C 93 % 999,4 hPa 0,0 mm 13,7 km/h (3 Bft) W-SW 257 ° 0 min 0,000 mm 0,0 UV-I 0 W/m² 0,3 °C -2,6 °C 20,9 km/h (4 Bft)
17.01.2018 00:10 1,3 °C 93 % 999,4 hPa 0,0 mm 18,9 km/h (3 Bft) SW 221 ° 0 min 0,000 mm 0,0 UV-I 0 W/m² 0,3 °C -3,4 °C 25,7 km/h (4 Bft)
17.01.2018 00:11 1,3 °C 93 % 999,4 hPa 0,0 mm 11,4 km/h (2 Bft) W 271 ° 0 min 0,000 mm 0,0 UV-I 0 W/m² 0,3 °C -2,1 °C 25,7 km/h (4 Bft)
17.01.2018 00:12 1,3 °C 93 % 999,3 hPa 0,0 mm 17,7 km/h (3 Bft) W 271 ° 0 min 0,000 mm 0,0 UV-I 0 W/m² 0,3 °C -3,3 °C 24,1 km/h (4 Bft)
17.01.2018 00:13 1,4 °C 93 % 999,3 hPa 0,2 mm 14,1 km/h (3 Bft) W-SW 247 ° 0 min 0,000 mm 0,0 UV-I 0 W/m² 0,4 °C -2,5 °C 22,5 km/h (4 Bft)
17.01.2018 00:14 1,4 °C 92 % 999,3 hPa 0,0 mm 16,6 km/h (3 Bft) W 265 ° 0 min 0,000 mm 0,0 UV-I 0 W/m² 0,2 °C -3,0 °C 24,1 km/h (4 Bft)
17.01.2018 00:15 1,4 °C 92 % 999,3 hPa 0,0 mm 13,1 km/h (3 Bft) W-SW 240 ° 0 min 0,000 mm 0,0 UV-I 0 W/m² 0,2 °C -2,3 °C 19,3 km/h (3 Bft)
17.01.2018 00:16 1,4 °C 92 % 999,3 hPa 0,0 mm 10,8 km/h (2 Bft) W-SW 238 ° 0 min 0,000 mm 0,0 UV-I 0 W/m² 0,2 °C -1,8 °C 16,1 km/h (3 Bft)
17.01.2018 00:17 1,4 °C 92 % 999,3 hPa 0,0 mm 15,3 km/h (3 Bft) W-SW 243 ° 0 min 0,000 mm 0,0 UV-I 0 W/m² 0,2 °C -2,7 °C 24,1 km/h (4 Bft)
17.01.2018 00:18 1,5 °C 92 % 999,3 hPa 0,0 mm 17,3 km/h (3 Bft) W-SW 254 ° 0 min 0,000 mm 0,0 UV-I 0 W/m² 0,3 °C -3,0 °C 24,1 km/h (4 Bft)
17.01.2018 00:19 1,5 °C 92 % 999,3 hPa 0,0 mm 13,7 km/h (3 Bft) SW 228 ° 0 min 0,000 mm 0,0 UV-I 0 W/m² 0,3 °C -2,3 °C 20,9 km/h (4 Bft)
17.01.2018 00:20 1,6 °C 92 % 999,2 hPa 0,0 mm 13,0 km/h (3 Bft) W-SW 242 ° 0 min 0,000 mm 0,0 UV-I 0 W/m² 0,4 °C -2,1 °C 22,5 km/h (4 Bft)
17.01.2018 00:21 1,5 °C 92 % 999,2 hPa 0,0 mm 8,5 km/h (2 Bft) SW 234 ° 0 min 0,000 mm 0,0 UV-I 0 W/m² 0,3 °C -1,1 °C 16,1 km/h (3 Bft)
17.01.2018 00:22 1,6 °C 92 % 999,2 hPa 0,0 mm 15,4 km/h (3 Bft) W 259 ° 0 min 0,000 mm 0,0 UV-I 0 W/m² 0,4 °C -2,5 °C 24,1 km/h (4 Bft)
17.01.2018 00:23 1,6 °C 92 % 999,3 hPa 0,0 mm 19,8 km/h (3 Bft) SW 223 ° 0 min 0,000 mm 0,0 UV-I 0 W/m² 0,4 °C -3,2 °C 33,8 km/h (5 Bft)
17.01.2018 00:24 1,6 °C 92 % 999,2 hPa 0,2 mm 11,5 km/h (2 Bft) W-NW 298 ° 0 min 0,000 mm 0,0 UV-I 0 W/m² 0,4 °C -1,8 °C 24,1 km/h (4 Bft)
17.01.2018 00:25 1,6 °C 92 % 999,1 hPa 0,0 mm 18,7 km/h (3 Bft) W 265 ° 0 min 0,000 mm 0,0 UV-I 0 W/m² 0,4 °C -3,0 °C 30,6 km/h (5 Bft)
17.01.2018 00:26 1,6 °C 92 % 999,1 hPa 0,0 mm 16,3 km/h (3 Bft) S-SW 192 ° 0 min 0,000 mm 0,0 UV-I 0 W/m² 0,4 °C -2,7 °C 25,7 km/h (4 Bft)
17.01.2018 00:27 1,6 °C 92 % 999,1 hPa 0,0 mm 13,8 km/h (3 Bft) W 279 ° 0 min 0,000 mm 0,0 UV-I 0 W/m² 0,4 °C -2,2 °C 24,1 km/h (4 Bft)
17.01.2018 00:28 1,6 °C 92 % 999,2 hPa 0,0 mm 15,4 km/h (3 Bft) S-SW 213 ° 0 min 0,000 mm 0,0 UV-I 0 W/m² 0,4 °C -2,5 °C 24,1 km/h (4 Bft)
17.01.2018 00:29 1,6 °C 92 % 999,2 hPa 0,0 mm 18,2 km/h (3 Bft) W-NW 295 ° 0 min 0,000 mm 0,0 UV-I 0 W/m² 0,4 °C -3,0 °C 27,4 km/h (4 Bft)
17.01.2018 00:30 1,6 °C 92 % 999,2 hPa 0,0 mm 14,1 km/h (3 Bft) W-SW 256 ° 0 min 0,000 mm 0,0 UV-I 0 W/m² 0,4 °C -2,3 °C 20,9 km/h (4 Bft)
17.01.2018 00:31 1,6 °C 92 % 999,3 hPa 0,0 mm 12,8 km/h (3 Bft) W-NW 283 ° 0 min 0,000 mm 0,0 UV-I 0 W/m² 0,4 °C -2,0 °C 20,9 km/h (4 Bft)
17.01.2018 00:32 1,6 °C 92 % 999,3 hPa 0,0 mm 12,9 km/h (3 Bft) SW 229 ° 0 min 0,000 mm 0,0 UV-I 0 W/m² 0,4 °C -2,0 °C 20,9 km/h (4 Bft)
17.01.2018 00:33 1,6 °C 92 % 999,3 hPa 0,2 mm 17,0 km/h (3 Bft) SW 225 ° 0 min 0,000 mm 0,0 UV-I 0 W/m² 0,4 °C -2,8 °C 22,5 km/h (4 Bft)
17.01.2018 00:34 1,6 °C 92 % 999,3 hPa 0,0 mm 13,7 km/h (3 Bft) SW 226 ° 0 min 0,000 mm 0,0 UV-I 0 W/m² 0,4 °C -2,2 °C 24,1 km/h (4 Bft)
17.01.2018 00:35 1,6 °C 92 % 999,3 hPa 0,0 mm 19,2 km/h (3 Bft) W 264 ° 0 min 0,000 mm 0,0 UV-I 0 W/m² 0,4 °C -3,1 °C 27,4 km/h (4 Bft)
17.01.2018 00:36 1,6 °C 92 % 999,5 hPa 0,0 mm 15,2 km/h (3 Bft) W 260 ° 0 min 0,000 mm 0,0 UV-I 0 W/m² 0,4 °C -2,5 °C 20,9 km/h (4 Bft)
17.01.2018 00:37 1,6 °C 92 % 999,4 hPa 0,0 mm 19,0 km/h (3 Bft) W-SW 247 ° 0 min 0,000 mm 0,0 UV-I 0 W/m² 0,4 °C -3,1 °C 33,8 km/h (5 Bft)
17.01.2018 00:38 1,6 °C 92 % 999,4 hPa 0,0 mm 17,1 km/h (3 Bft) W-NW 282 ° 0 min 0,000 mm 0,0 UV-I 0 W/m² 0,4 °C -2,8 °C 22,5 km/h (4 Bft)
17.01.2018 00:39 1,6 °C 92 % 999,4 hPa 0,0 mm 18,2 km/h (3 Bft) W 272 ° 0 min 0,000 mm 0,0 UV-I 0 W/m² 0,4 °C -3,0 °C 25,7 km/h (4 Bft)
17.01.2018 00:40 1,6 °C 92 % 999,4 hPa 0,0 mm 18,6 km/h (3 Bft) S-SW 201 ° 0 min 0,000 mm 0,0 UV-I 0 W/m² 0,4 °C -3,0 °C 27,4 km/h (4 Bft)
17.01.2018 00:41 1,6 °C 92 % 999,4 hPa 0,0 mm 21,0 km/h (4 Bft) W 265 ° 0 min 0,000 mm 0,0 UV-I 0 W/m² 0,4 °C -3,4 °C 29,0 km/h (5 Bft)
17.01.2018 00:42 1,6 °C 91 % 999,5 hPa 0,2 mm 22,8 km/h (4 Bft) SW 231 ° 0 min 0,000 mm 0,0 UV-I 0 W/m² 0,3 °C -3,6 °C 25,7 km/h (4 Bft)
17.01.2018 00:43 1,6 °C 91 % 999,4 hPa 0,0 mm 17,1 km/h (3 Bft) W 281 ° 0 min 0,000 mm 0,0 UV-I 0 W/m² 0,3 °C -2,8 °C 24,1 km/h (4 Bft)
17.01.2018 00:44 1,5 °C 91 % 999,3 hPa 0,0 mm 13,9 km/h (3 Bft) W-SW 246 ° 0 min 0,000 mm 0,0 UV-I 0 W/m² 0,2 °C -2,4 °C 19,3 km/h (3 Bft)
17.01.2018 00:45 1,5 °C 91 % 999,4 hPa 0,0 mm 16,4 km/h (3 Bft) SW 220 ° 0 min 0,000 mm 0,0 UV-I 0 W/m² 0,2 °C -2,8 °C 27,4 km/h (4 Bft)
17.01.2018 00:46 1,4 °C 91 % 999,4 hPa 0,0 mm 17,0 km/h (3 Bft) W-SW 241 ° 0 min 0,000 mm 0,0 UV-I 0 W/m² 0,1 °C -3,0 °C 27,4 km/h (4 Bft)
17.01.2018 00:47 1,4 °C 91 % 999,4 hPa 0,0 mm 17,9 km/h (3 Bft) W-NW 284 ° 0 min 0,000 mm 0,0 UV-I 0 W/m² 0,1 °C -3,2 °C 25,7 km/h (4 Bft)
17.01.2018 00:48 1,4 °C 91 % 999,4 hPa 0,0 mm 12,9 km/h (3 Bft) W 263 ° 0 min 0,000 mm 0,0 UV-I 0 W/m² 0,1 °C -2,3 °C 17,7 km/h (3 Bft)
17.01.2018 00:49 1,4 °C 91 % 999,4 hPa 0,0 mm 19,2 km/h (3 Bft) S 175 ° 0 min 0,000 mm 0,0 UV-I 0 W/m² 0,1 °C -3,4 °C 30,6 km/h (5 Bft)
17.01.2018 00:50 1,3 °C 91 % 999,4 hPa 0,0 mm 21,5 km/h (4 Bft) W 277 ° 0 min 0,000 mm 0,0 UV-I 0 W/m² -0,0 °C -3,8 °C 30,6 km/h (5 Bft)
17.01.2018 00:51 1,3 °C 91 % 999,3 hPa 0,2 mm 16,6 km/h (3 Bft) W-SW 257 ° 0 min 0,000 mm 0,0 UV-I 0 W/m² -0,0 °C -3,1 °C 24,1 km/h (4 Bft)
17.01.2018 00:52 1,3 °C 91 % 999,3 hPa 0,0 mm 13,8 km/h (3 Bft) W 270 ° 0 min 0,000 mm 0,0 UV-I 0 W/m² -0,0 °C -2,6 °C 20,9 km/h (4 Bft)
17.01.2018 00:53 1,3 °C 91 % 999,3 hPa 0,0 mm 16,4 km/h (3 Bft) W-SW 248 ° 0 min 0,000 mm 0,0 UV-I 0 W/m² -0,0 °C -3,1 °C 25,7 km/h (4 Bft)
17.01.2018 00:54 1,3 °C 91 % 999,2 hPa 0,0 mm 15,4 km/h (3 Bft) S-SW 193 ° 0 min 0,000 mm 0,0 UV-I 0 W/m² -0,0 °C -2,9 °C 22,5 km/h (4 Bft)
17.01.2018 00:55 1,3 °C 91 % 999,1 hPa 0,0 mm 16,6 km/h (3 Bft) W 265 ° 0 min 0,000 mm 0,0 UV-I 0 W/m² -0,0 °C -3,1 °C 29,0 km/h (5 Bft)
17.01.2018 00:56 1,2 °C 91 % 999,1 hPa 0,0 mm 17,0 km/h (3 Bft) S-SW 213 ° 0 min 0,000 mm 0,0 UV-I 0 W/m² -0,1 °C -3,3 °C 29,0 km/h (5 Bft)
17.01.2018 00:57 1,2 °C 91 % 999,1 hPa 0,0 mm 21,8 km/h (4 Bft) NW 313 ° 0 min 0,000 mm 0,0 UV-I 0 W/m² -0,1 °C -4,0 °C 32,2 km/h (5 Bft)
17.01.2018 00:58 1,2 °C 91 % 999,0 hPa 0,0 mm 19,2 km/h (3 Bft) W 266 ° 0 min 0,000 mm 0,0 UV-I 0 W/m² -0,1 °C -3,6 °C 25,7 km/h (4 Bft)
17.01.2018 00:59 1,2 °C 91 % 999,2 hPa 0,0 mm 17,5 km/h (3 Bft) W-NW 300 ° 0 min 0,000 mm 0,0 UV-I 0 W/m² -0,1 °C -3,4 °C 29,0 km/h (5 Bft)
17.01.2018 01:00 1,2 °C 91 % 999,2 hPa 0,0 mm 22,1 km/h (4 Bft) W-SW 246 ° 0 min 0,000 mm 0,0 UV-I 0 W/m² -0,1 °C -4,0 °C 29,0 km/h (5 Bft)
17.01.2018 01:01 1,1 °C 91 % 999,1 hPa 0,0 mm 14,3 km/h (3 Bft) W 267 ° 0 min 0,000 mm 0,0 UV-I 0 W/m² -0,2 °C -2,9 °C 24,1 km/h (4 Bft)
17.01.2018 01:02 1,1 °C 91 % 999,1 hPa 0,0 mm 18,5 km/h (3 Bft) W-SW 245 ° 0 min 0,000 mm 0,0 UV-I 0 W/m² -0,2 °C -3,6 °C 27,4 km/h (4 Bft)
17.01.2018 01:03 1,1 °C 91 % 999,0 hPa 0,0 mm 15,1 km/h (3 Bft) SW 234 ° 0 min 0,000 mm 0,0 UV-I 0 W/m² -0,2 °C -3,1 °C 20,9 km/h (4 Bft)
17.01.2018 01:04 1,1 °C 91 % 999,0 hPa 0,0 mm 11,9 km/h (2 Bft) SW 229 ° 0 min 0,000 mm 0,0 UV-I 0 W/m² -0,2 °C -2,4 °C 24,1 km/h (4 Bft)
17.01.2018 01:05 1,1 °C 91 % 999,0 hPa 0,0 mm 21,0 km/h (4 Bft) W-NW 302 ° 0 min 0,000 mm 0,0 UV-I 0 W/m² -0,2 °C -4,0 °C 30,6 km/h (5 Bft)
17.01.2018 01:06 1,1 °C 91 % 998,8 hPa 0,2 mm 21,3 km/h (4 Bft) W-SW 253 ° 0 min 0,000 mm 0,0 UV-I 0 W/m² -0,2 °C -4,0 °C 24,1 km/h (4 Bft)
17.01.2018 01:07 1,1 °C 92 % 998,9 hPa 0,0 mm 15,1 km/h (3 Bft) W-SW 246 ° 0 min 0,000 mm 0,0 UV-I 0 W/m² -0,1 °C -3,1 °C 22,5 km/h (4 Bft)
17.01.2018 01:08 1,1 °C 92 % 998,9 hPa 0,0 mm 12,9 km/h (3 Bft) SW 235 ° 0 min 0,000 mm 0,0 UV-I 0 W/m² -0,1 °C -2,7 °C 22,5 km/h (4 Bft)
17.01.2018 01:09 1,0 °C 92 % 998,8 hPa 0,0 mm 20,5 km/h (4 Bft) SW 221 ° 0 min 0,000 mm 0,0 UV-I 0 W/m² -0,2 °C -4,1 °C 32,2 km/h (5 Bft)
17.01.2018 01:10 1,0 °C 92 % 998,8 hPa 0,0 mm 16,2 km/h (3 Bft) W 272 ° 0 min 0,000 mm 0,0 UV-I 0 W/m² -0,2 °C -3,4 °C 27,4 km/h (4 Bft)
17.01.2018 01:11 1,0 °C 92 % 998,7 hPa 0,0 mm 13,4 km/h (3 Bft) W 264 ° 0 min 0,000 mm 0,0 UV-I 0 W/m² -0,2 °C -2,9 °C 20,9 km/h (4 Bft)
17.01.2018 01:12 1,0 °C 92 % 998,6 hPa 0,0 mm 19,5 km/h (3 Bft) W 260 ° 0 min 0,000 mm 0,0 UV-I 0 W/m² -0,2 °C -3,9 °C 30,6 km/h (5 Bft)
17.01.2018 01:13 1,0 °C 92 % 998,6 hPa 0,0 mm 14,3 km/h (3 Bft) W 268 ° 0 min 0,000 mm 0,0 UV-I 0 W/m² -0,2 °C -3,1 °C 17,7 km/h (3 Bft)
17.01.2018 01:14 1,0 °C 92 % 998,6 hPa 0,0 mm 9,1 km/h (2 Bft) W 260 ° 0 min 0,000 mm 0,0 UV-I 0 W/m² -0,2 °C -1,9 °C 14,5 km/h (3 Bft)
17.01.2018 01:15 1,0 °C 92 % 998,6 hPa 0,0 mm 11,3 km/h (2 Bft) S-SW 205 ° 0 min 0,000 mm 0,0 UV-I 0 W/m² -0,2 °C -2,4 °C 19,3 km/h (3 Bft)
17.01.2018 01:16 1,0 °C 92 % 998,5 hPa 0,0 mm 11,7 km/h (2 Bft) SW 232 ° 0 min 0,000 mm 0,0 UV-I 0 W/m² -0,2 °C -2,5 °C 17,7 km/h (3 Bft)
17.01.2018 01:17 1,0 °C 92 % 998,5 hPa 0,0 mm 7,2 km/h (2 Bft) W-SW 253 ° 0 min 0,000 mm 0,0 UV-I 0 W/m² -0,2 °C -1,3 °C 12,9 km/h (3 Bft)
17.01.2018 01:18 0,9 °C 92 % 998,4 hPa 0,0 mm 15,8 km/h (3 Bft) W 270 ° 0 min 0,000 mm 0,0 UV-I 0 W/m² -0,2 °C -3,4 °C 22,5 km/h (4 Bft)
17.01.2018 01:19 0,9 °C 92 % 998,3 hPa 0,0 mm 10,9 km/h (2 Bft) SW 235 ° 0 min 0,000 mm 0,0 UV-I 0 W/m² -0,2 °C -2,5 °C 17,7 km/h (3 Bft)
17.01.2018 01:20 0,9 °C 92 % 998,3 hPa 0,0 mm 9,1 km/h (2 Bft) W 266 ° 0 min 0,000 mm 0,0 UV-I 0 W/m² -0,2 °C -2,0 °C 12,9 km/h (3 Bft)
17.01.2018 01:21 0,9 °C 92 % 998,3 hPa 0,0 mm 14,7 km/h (3 Bft) W-NW 288 ° 0 min 0,000 mm 0,0 UV-I 0 W/m² -0,2 °C -3,3 °C 19,3 km/h (3 Bft)
17.01.2018 01:22 0,9 °C 92 % 998,3 hPa 0,0 mm 14,7 km/h (3 Bft) W 266 ° 0 min 0,000 mm 0,0 UV-I 0 W/m² -0,2 °C -3,3 °C 19,3 km/h (3 Bft)
17.01.2018 01:23 0,9 °C 92 % 998,3 hPa 0,0 mm 14,1 km/h (3 Bft) W-SW 248 ° 0 min 0,000 mm 0,0 UV-I 0 W/m² -0,2 °C -3,1 °C 19,3 km/h (3 Bft)
17.01.2018 01:24 0,9 °C 92 % 998,3 hPa 0,0 mm 11,1 km/h (2 Bft) SW 230 ° 0 min 0,000 mm 0,0 UV-I 0 W/m² -0,2 °C -2,5 °C 16,1 km/h (3 Bft)
17.01.2018 01:25 0,9 °C 92 % 998,1 hPa 0,0 mm 14,1 km/h (3 Bft) SW 226 ° 0 min 0,000 mm 0,0 UV-I 0 W/m² -0,2 °C -3,1 °C 25,7 km/h (4 Bft)
17.01.2018 01:26 0,9 °C 92 % 998,0 hPa 0,0 mm 14,1 km/h (3 Bft) W 268 ° 0 min 0,000 mm 0,0 UV-I 0 W/m² -0,2 °C -3,1 °C 20,9 km/h (4 Bft)
17.01.2018 01:27 0,9 °C 92 % 998,1 hPa 0,0 mm 18,0 km/h (3 Bft) W-SW 252 ° 0 min 0,000 mm 0,0 UV-I 0 W/m² -0,2 °C -3,8 °C 22,5 km/h (4 Bft)
17.01.2018 01:28 0,9 °C 92 % 998,0 hPa 0,2 mm 10,6 km/h (2 Bft) W-SW 244 ° 0 min 0,000 mm 0,0 UV-I 0 W/m² -0,2 °C -2,4 °C 19,3 km/h (3 Bft)
17.01.2018 01:29 0,9 °C 92 % 998,2 hPa 0,0 mm 9,7 km/h (2 Bft) W-SW 250 ° 0 min 0,000 mm 0,0 UV-I 0 W/m² -0,2 °C -2,2 °C 22,5 km/h (4 Bft)
17.01.2018 01:30 0,9 °C 92 % 998,2 hPa 0,0 mm 9,0 km/h (2 Bft) W 264 ° 0 min 0,000 mm 0,0 UV-I 0 W/m² -0,2 °C -2,0 °C 12,9 km/h (3 Bft)
17.01.2018 01:31 0,9 °C 92 % 998,1 hPa 0,0 mm 8,6 km/h (2 Bft) W 266 ° 0 min 0,000 mm 0,0 UV-I 0 W/m² -0,2 °C -1,9 °C 17,7 km/h (3 Bft)
17.01.2018 01:32 0,9 °C 92 % 998,0 hPa 0,0 mm 11,0 km/h (2 Bft) W 265 ° 0 min 0,000 mm 0,0 UV-I 0 W/m² -0,2 °C -2,5 °C 17,7 km/h (3 Bft)
17.01.2018 01:33 0,9 °C 92 % 998,1 hPa 0,0 mm 13,6 km/h (3 Bft) W-SW 257 ° 0 min 0,000 mm 0,0 UV-I 0 W/m² -0,2 °C -3,0 °C 24,1 km/h (4 Bft)
17.01.2018 01:34 0,9 °C 92 % 998,0 hPa 0,0 mm 9,2 km/h (2 Bft) W 276 ° 0 min 0,000 mm 0,0 UV-I 0 W/m² -0,2 °C -2,0 °C 14,5 km/h (3 Bft)
17.01.2018 01:35 0,9 °C 92 % 998,1 hPa 0,0 mm 11,3 km/h (2 Bft) W 263 ° 0 min 0,000 mm 0,0 UV-I 0 W/m² -0,2 °C -2,6 °C 14,5 km/h (3 Bft)
17.01.2018 01:36 0,9 °C 92 % 998,0 hPa 0,0 mm 13,4 km/h (3 Bft) W-NW 298 ° 0 min 0,000 mm 0,0 UV-I 0 W/m² -0,2 °C -3,0 °C 17,7 km/h (3 Bft)
17.01.2018 01:37 0,9 °C 92 % 997,9 hPa 0,0 mm 11,1 km/h (2 Bft) S-SW 205 ° 0 min 0,000 mm 0,0 UV-I 0 W/m² -0,2 °C -2,5 °C 14,5 km/h (3 Bft)
17.01.2018 01:38 0,9 °C 92 % 997,9 hPa 0,0 mm 7,7 km/h (2 Bft) SW 214 ° 0 min 0,000 mm 0,0 UV-I 0 W/m² -0,2 °C -1,6 °C 14,5 km/h (3 Bft)
17.01.2018 01:39 0,9 °C 92 % 997,9 hPa 0,0 mm 14,2 km/h (3 Bft) W 261 ° 0 min 0,000 mm 0,0 UV-I 0 W/m² -0,2 °C -3,2 °C 24,1 km/h (4 Bft)
17.01.2018 01:40 0,9 °C 92 % 997,9 hPa 0,0 mm 16,5 km/h (3 Bft) W-SW 248 ° 0 min 0,000 mm 0,0 UV-I 0 W/m² -0,2 °C -3,6 °C 22,5 km/h (4 Bft)
17.01.2018 01:41 0,9 °C 92 % 997,9 hPa 0,0 mm 16,6 km/h (3 Bft) W-SW 252 ° 0 min 0,000 mm 0,0 UV-I 0 W/m² -0,2 °C -3,6 °C 24,1 km/h (4 Bft)
17.01.2018 01:42 0,9 °C 92 % 997,9 hPa 0,0 mm 9,1 km/h (2 Bft) SW 233 ° 0 min 0,000 mm 0,0 UV-I 0 W/m² -0,2 °C -2,0 °C 12,9 km/h (3 Bft)
17.01.2018 01:43 0,9 °C 92 % 997,9 hPa 0,0 mm 9,0 km/h (2 Bft) W-SW 244 ° 0 min 0,000 mm 0,0 UV-I 0 W/m² -0,2 °C -2,0 °C 14,5 km/h (3 Bft)
17.01.2018 01:44 0,9 °C 92 % 997,8 hPa 0,0 mm 7,5 km/h (2 Bft) W 269 ° 0 min 0,000 mm 0,0 UV-I 0 W/m² -0,2 °C -1,5 °C 14,5 km/h (3 Bft)
17.01.2018 01:45 0,9 °C 92 % 997,7 hPa 0,0 mm 9,7 km/h (2 Bft) W 263 ° 0 min 0,000 mm 0,0 UV-I 0 W/m² -0,2 °C -2,2 °C 16,1 km/h (3 Bft)
17.01.2018 01:46 0,9 °C 92 % 997,6 hPa 0,0 mm 9,7 km/h (2 Bft) W 267 ° 0 min 0,000 mm 0,0 UV-I 0 W/m² -0,2 °C -2,2 °C 14,5 km/h (3 Bft)
17.01.2018 01:47 0,8 °C 92 % 997,5 hPa 0,0 mm 7,9 km/h (2 Bft) SW 220 ° 0 min 0,000 mm 0,0 UV-I 0 W/m² -0,3 °C -1,8 °C 12,9 km/h (3 Bft)
17.01.2018 01:48 0,9 °C 92 % 997,5 hPa 0,0 mm 4,0 km/h (1 Bft) W-SW 244 ° 0 min 0,000 mm 0,0 UV-I 0 W/m² -0,2 °C 0,9 °C 4,8 km/h (1 Bft)
17.01.2018 01:49 0,9 °C 92 % 997,4 hPa 0,0 mm 5,8 km/h (2 Bft) W-SW 244 ° 0 min 0,000 mm 0,0 UV-I 0 W/m² -0,2 °C -0,9 °C 12,9 km/h (3 Bft)
17.01.2018 01:50 0,9 °C 92 % 997,5 hPa 0,0 mm 10,6 km/h (2 Bft) SW 235 ° 0 min 0,000 mm 0,0 UV-I 0 W/m² -0,2 °C -2,4 °C 16,1 km/h (3 Bft)
17.01.2018 01:51 0,9 °C 92 % 997,5 hPa 0,0 mm 5,4 km/h (1 Bft) W-SW 249 ° 0 min 0,000 mm 0,0 UV-I 0 W/m² -0,2 °C -0,7 °C 11,3 km/h (2 Bft)
17.01.2018 01:52 0,9 °C 92 % 997,6 hPa 0,0 mm 6,3 km/h (2 Bft) W 271 ° 0 min 0,000 mm 0,0 UV-I 0 W/m² -0,2 °C -1,1 °C 11,3 km/h (2 Bft)
17.01.2018 01:53 0,9 °C 92 % 997,6 hPa 0,0 mm 8,4 km/h (2 Bft) SW 215 ° 0 min 0,000 mm 0,0 UV-I 0 W/m² -0,2 °C -1,8 °C 12,9 km/h (3 Bft)
17.01.2018 01:54 0,8 °C 92 % 997,7 hPa 0,0 mm 8,1 km/h (2 Bft) W 259 ° 0 min 0,000 mm 0,0 UV-I 0 W/m² -0,3 °C -1,8 °C 12,9 km/h (3 Bft)
17.01.2018 01:55 0,8 °C 92 % 997,7 hPa 0,0 mm 10,3 km/h (2 Bft) W 259 ° 0 min 0,000 mm 0,0 UV-I 0 W/m² -0,3 °C -2,4 °C 17,7 km/h (3 Bft)
17.01.2018 01:56 0,8 °C 92 % 997,8 hPa 0,0 mm 8,0 km/h (2 Bft) W 281 ° 0 min 0,000 mm 0,0 UV-I 0 W/m² -0,3 °C -1,8 °C 12,9 km/h (3 Bft)
17.01.2018 01:57 0,9 °C 92 % 997,8 hPa 0,0 mm 8,9 km/h (2 Bft) W 261 ° 0 min 0,000 mm 0,0 UV-I 0 W/m² -0,2 °C -1,9 °C 17,7 km/h (3 Bft)
17.01.2018 01:58 0,8 °C 92 % 997,9 hPa 0,0 mm 7,2 km/h (2 Bft) S-SW 208 ° 0 min 0,000 mm 0,0 UV-I 0 W/m² -0,3 °C -1,5 °C 11,3 km/h (2 Bft)
17.01.2018 01:59 0,8 °C 92 % 997,9 hPa 0,0 mm 7,3 km/h (2 Bft) W-SW 242 ° 0 min 0,000 mm 0,0 UV-I 0 W/m² -0,3 °C -1,6 °C 12,9 km/h (3 Bft)
17.01.2018 02:00 0,8 °C 92 % 998,0 hPa 0,0 mm 12,5 km/h (3 Bft) W-SW 240 ° 0 min 0,000 mm 0,0 UV-I 0 W/m² -0,3 °C -2,9 °C 19,3 km/h (3 Bft)
17.01.2018 02:01 0,8 °C 92 % 997,9 hPa 0,0 mm 12,6 km/h (3 Bft) S 175 ° 0 min 0,000 mm 0,0 UV-I 0 W/m² -0,3 °C -3,0 °C 17,7 km/h (3 Bft)
17.01.2018 02:02 0,8 °C 92 % 998,0 hPa 0,0 mm 11,8 km/h (2 Bft) W 271 ° 0 min 0,000 mm 0,0 UV-I 0 W/m² -0,3 °C -2,8 °C 19,3 km/h (3 Bft)
17.01.2018 02:03 0,8 °C 92 % 998,0 hPa 0,0 mm 11,4 km/h (2 Bft) W 265 ° 0 min 0,000 mm 0,0 UV-I 0 W/m² -0,3 °C -2,7 °C 16,1 km/h (3 Bft)
17.01.2018 02:04 0,8 °C 92 % 998,0 hPa 0,0 mm 12,1 km/h (2 Bft) W 264 ° 0 min 0,000 mm 0,0 UV-I 0 W/m² -0,3 °C -2,9 °C 17,7 km/h (3 Bft)
17.01.2018 02:05 0,8 °C 92 % 998,0 hPa 0,0 mm 9,8 km/h (2 Bft) W-SW 252 ° 0 min 0,000 mm 0,0 UV-I 0 W/m² -0,3 °C -2,3 °C 14,5 km/h (3 Bft)
17.01.2018 02:06 0,8 °C 92 % 998,1 hPa 0,0 mm 14,5 km/h (3 Bft) W-SW 258 ° 0 min 0,000 mm 0,0 UV-I 0 W/m² -0,3 °C -3,3 °C 22,5 km/h (4 Bft)
17.01.2018 02:07 0,8 °C 92 % 998,0 hPa 0,0 mm 14,3 km/h (3 Bft) W 265 ° 0 min 0,000 mm 0,0 UV-I 0 W/m² -0,3 °C -3,3 °C 17,7 km/h (3 Bft)
17.01.2018 02:08 0,8 °C 92 % 997,9 hPa 0,0 mm 8,7 km/h (2 Bft) W-SW 238 ° 0 min 0,000 mm 0,0 UV-I 0 W/m² -0,3 °C -2,0 °C 16,1 km/h (3 Bft)
17.01.2018 02:09 0,8 °C 92 % 997,9 hPa 0,2 mm 10,4 km/h (2 Bft) W-SW 243 ° 0 min 0,000 mm 0,0 UV-I 0 W/m² -0,3 °C -2,5 °C 14,5 km/h (3 Bft)
17.01.2018 02:10 0,8 °C 92 % 998,0 hPa 0,0 mm 8,7 km/h (2 Bft) W 273 ° 0 min 0,000 mm 0,0 UV-I 0 W/m² -0,3 °C -2,0 °C 12,9 km/h (3 Bft)
17.01.2018 02:11 0,8 °C 92 % 997,9 hPa 0,0 mm 5,0 km/h (1 Bft) W 259 ° 0 min 0,000 mm 0,0 UV-I 0 W/m² -0,3 °C -0,7 °C 12,9 km/h (3 Bft)
17.01.2018 02:12 0,8 °C 92 % 997,9 hPa 0,0 mm 6,2 km/h (2 Bft) W-SW 246 ° 0 min 0,000 mm 0,0 UV-I 0 W/m² -0,3 °C -1,2 °C 11,3 km/h (2 Bft)
17.01.2018 02:13 0,8 °C 92 % 997,9 hPa 0,0 mm 11,3 km/h (2 Bft) W 271 ° 0 min 0,000 mm 0,0 UV-I 0 W/m² -0,3 °C -2,7 °C 17,7 km/h (3 Bft)
17.01.2018 02:14 0,8 °C 92 % 997,9 hPa 0,0 mm 9,3 km/h (2 Bft) W 259 ° 0 min 0,000 mm 0,0 UV-I 0 W/m² -0,3 °C -2,2 °C 12,9 km/h (3 Bft)
17.01.2018 02:15 0,8 °C 92 % 997,9 hPa 0,0 mm 5,2 km/h (1 Bft) W-SW 250 ° 0 min 0,000 mm 0,0 UV-I 0 W/m² -0,3 °C -0,8 °C 9,7 km/h (2 Bft)
17.01.2018 02:16 0,8 °C 92 % 997,8 hPa 0,0 mm 5,3 km/h (1 Bft) W 263 ° 0 min 0,000 mm 0,0 UV-I 0 W/m² -0,3 °C -0,8 °C 9,7 km/h (2 Bft)
17.01.2018 02:17 0,8 °C 92 % 997,8 hPa 0,0 mm 6,2 km/h (2 Bft) W 279 ° 0 min 0,000 mm 0,0 UV-I 0 W/m² -0,3 °C -1,2 °C 9,7 km/h (2 Bft)
17.01.2018 02:18 0,8 °C 92 % 997,9 hPa 0,0 mm 4,2 km/h (1 Bft) W-SW 248 ° 0 min 0,000 mm 0,0 UV-I 0 W/m² -0,3 °C 0,8 °C 6,4 km/h (2 Bft)
17.01.2018 02:19 0,8 °C 92 % 997,8 hPa 0,0 mm 5,4 km/h (1 Bft) W 274 ° 0 min 0,000 mm 0,0 UV-I 0 W/m² -0,3 °C -0,9 °C 6,4 km/h (2 Bft)
17.01.2018 02:20 0,8 °C 92 % 997,8 hPa 0,0 mm 5,5 km/h (1 Bft) W 263 ° 0 min 0,000 mm 0,0 UV-I 0 W/m² -0,3 °C -0,9 °C 6,4 km/h (2 Bft)
17.01.2018 02:21 0,7 °C 92 % 997,8 hPa 0,0 mm 4,0 km/h (1 Bft) W-SW 247 ° 0 min 0,000 mm 0,0 UV-I 0 W/m² -0,4 °C 0,7 °C 6,4 km/h (2 Bft)
17.01.2018 02:22 0,7 °C 92 % 997,8 hPa 0,0 mm 1,6 km/h (1 Bft) W-SW 256 ° 0 min 0,000 mm 0,0 UV-I 0 W/m² -0,4 °C 0,7 °C 3,2 km/h (1 Bft)
17.01.2018 02:23 0,7 °C 92 % 997,9 hPa 0,0 mm 4,1 km/h (1 Bft) W 270 ° 0 min 0,000 mm 0,0 UV-I 0 W/m² -0,4 °C 0,7 °C 9,7 km/h (2 Bft)
17.01.2018 02:24 0,7 °C 92 % 997,9 hPa 0,0 mm 3,8 km/h (1 Bft) W-SW 246 ° 0 min 0,000 mm 0,0 UV-I 0 W/m² -0,4 °C 0,7 °C 6,4 km/h (2 Bft)
17.01.2018 02:25 0,7 °C 92 % 997,8 hPa 0,0 mm 2,4 km/h (1 Bft) W 264 ° 0 min 0,000 mm 0,0 UV-I 0 W/m² -0,4 °C 0,7 °C 4,8 km/h (1 Bft)
17.01.2018 02:26 0,7 °C 92 % 997,8 hPa 0,0 mm 3,4 km/h (1 Bft) W 271 ° 0 min 0,000 mm 0,0 UV-I 0 W/m² -0,4 °C 0,7 °C 4,8 km/h (1 Bft)
17.01.2018 02:27 0,7 °C 92 % 997,8 hPa 0,0 mm 2,6 km/h (1 Bft) W 267 ° 0 min 0,000 mm 0,0 UV-I 0 W/m² -0,4 °C 0,7 °C 6,4 km/h (2 Bft)
17.01.2018 02:28 0,7 °C 93 % 997,8 hPa 0,0 mm 6,2 km/h (2 Bft) W-SW 247 ° 0 min 0,000 mm 0,0 UV-I 0 W/m² -0,3 °C -1,3 °C 12,9 km/h (3 Bft)
17.01.2018 02:29 0,7 °C 92 % 997,8 hPa 0,0 mm 7,8 km/h (2 Bft) W-NW 286 ° 0 min 0,000 mm 0,0 UV-I 0 W/m² -0,4 °C -1,9 °C 11,3 km/h (2 Bft)
17.01.2018 02:30 0,8 °C 93 % 997,8 hPa 0,0 mm 12,0 km/h (2 Bft) W 265 ° 0 min 0,000 mm 0,0 UV-I 0 W/m² -0,2 °C -2,8 °C 22,5 km/h (4 Bft)
17.01.2018 02:31 0,8 °C 93 % 997,8 hPa 0,0 mm 16,6 km/h (3 Bft) W 267 ° 0 min 0,000 mm 0,0 UV-I 0 W/m² -0,2 °C -3,7 °C 22,5 km/h (4 Bft)
17.01.2018 02:32 0,8 °C 93 % 997,7 hPa 0,0 mm 16,0 km/h (3 Bft) W 270 ° 0 min 0,000 mm 0,0 UV-I 0 W/m² -0,2 °C -3,6 °C 25,7 km/h (4 Bft)
17.01.2018 02:33 0,8 °C 93 % 997,8 hPa 0,0 mm 13,4 km/h (3 Bft) SW 229 ° 0 min 0,000 mm 0,0 UV-I 0 W/m² -0,2 °C -3,1 °C 19,3 km/h (3 Bft)
17.01.2018 02:34 0,8 °C 93 % 997,8 hPa 0,0 mm 13,4 km/h (3 Bft) W-SW 258 ° 0 min 0,000 mm 0,0 UV-I 0 W/m² -0,2 °C -3,1 °C 20,9 km/h (4 Bft)
17.01.2018 02:35 0,8 °C 93 % 997,8 hPa 0,0 mm 10,4 km/h (2 Bft) SW 230 ° 0 min 0,000 mm 0,0 UV-I 0 W/m² -0,2 °C -2,5 °C 17,7 km/h (3 Bft)
17.01.2018 02:36 0,8 °C 93 % 997,4 hPa 0,0 mm 16,5 km/h (3 Bft) W-NW 292 ° 0 min 0,000 mm 0,0 UV-I 0 W/m² -0,2 °C -3,7 °C 27,4 km/h (4 Bft)
17.01.2018 02:37 0,9 °C 93 % 997,6 hPa 0,0 mm 10,9 km/h (2 Bft) W 259 ° 0 min 0,000 mm 0,0 UV-I 0 W/m² -0,1 °C -2,5 °C 20,9 km/h (4 Bft)
17.01.2018 02:38 0,9 °C 93 % 997,6 hPa 0,0 mm 9,4 km/h (2 Bft) SW 229 ° 0 min 0,000 mm 0,0 UV-I 0 W/m² -0,1 °C -2,1 °C 12,9 km/h (3 Bft)
17.01.2018 02:39 0,9 °C 93 % 997,5 hPa 0,0 mm 7,5 km/h (2 Bft) W 262 ° 0 min 0,000 mm 0,0 UV-I 0 W/m² -0,1 °C -1,5 °C 14,5 km/h (3 Bft)
17.01.2018 02:40 0,9 °C 93 % 997,6 hPa 0,2 mm 11,2 km/h (2 Bft) SW 225 ° 0 min 0,000 mm 0,0 UV-I 0 W/m² -0,1 °C -2,5 °C 16,1 km/h (3 Bft)
17.01.2018 02:41 1,0 °C 93 % 997,5 hPa 0,0 mm 8,1 km/h (2 Bft) W-SW 237 ° 0 min 0,000 mm 0,0 UV-I 0 W/m² -0,0 °C -1,6 °C 17,7 km/h (3 Bft)
17.01.2018 02:42 1,0 °C 93 % 997,5 hPa 0,0 mm 12,3 km/h (3 Bft) W-SW 250 ° 0 min 0,000 mm 0,0 UV-I 0 W/m² -0,0 °C -2,7 °C 19,3 km/h (3 Bft)
17.01.2018 02:43 1,0 °C 93 % 997,6 hPa 0,0 mm 18,1 km/h (3 Bft) W 276 ° 0 min 0,000 mm 0,0 UV-I 0 W/m² -0,0 °C -3,7 °C 33,8 km/h (5 Bft)
17.01.2018 02:44 1,1 °C 93 % 997,5 hPa 0,0 mm 10,1 km/h (2 Bft) W-SW 238 ° 0 min 0,000 mm 0,0 UV-I 0 W/m² 0,1 °C -2,0 °C 16,1 km/h (3 Bft)
17.01.2018 02:45 1,1 °C 93 % 997,5 hPa 0,0 mm 9,8 km/h (2 Bft) W-SW 258 ° 0 min 0,000 mm 0,0 UV-I 0 W/m² 0,1 °C -1,9 °C 17,7 km/h (3 Bft)
17.01.2018 02:46 1,1 °C 93 % 997,6 hPa 0,0 mm 12,1 km/h (2 Bft) SW 235 ° 0 min 0,000 mm 0,0 UV-I 0 W/m² 0,1 °C -2,5 °C 16,1 km/h (3 Bft)
17.01.2018 02:47 1,1 °C 93 % 997,5 hPa 0,0 mm 6,5 km/h (2 Bft) SW 232 ° 0 min 0,000 mm 0,0 UV-I 0 W/m² 0,1 °C -0,9 °C 11,3 km/h (2 Bft)
17.01.2018 02:48 1,1 °C 93 % 997,5 hPa 0,0 mm 11,6 km/h (2 Bft) W 269 ° 0 min 0,000 mm 0,0 UV-I 0 W/m² 0,1 °C -2,4 °C 17,7 km/h (3 Bft)
17.01.2018 02:49 1,1 °C 93 % 997,5 hPa 0,0 mm 9,5 km/h (2 Bft) W-SW 238 ° 0 min 0,000 mm 0,0 UV-I 0 W/m² 0,1 °C -1,9 °C 14,5 km/h (3 Bft)
17.01.2018 02:50 1,2 °C 93 % 997,5 hPa 0,0 mm 9,8 km/h (2 Bft) W-SW 254 ° 0 min 0,000 mm 0,0 UV-I 0 W/m² 0,2 °C -1,8 °C 14,5 km/h (3 Bft)
17.01.2018 02:51 1,2 °C 93 % 997,5 hPa 0,0 mm 12,5 km/h (3 Bft) W 267 ° 0 min 0,000 mm 0,0 UV-I 0 W/m² 0,2 °C -2,5 °C 19,3 km/h (3 Bft)
17.01.2018 02:52 1,2 °C 92 % 997,5 hPa 0,0 mm 12,2 km/h (2 Bft) W 268 ° 0 min 0,000 mm 0,0 UV-I 0 W/m² 0,0 °C -2,4 °C 17,7 km/h (3 Bft)
17.01.2018 02:53 1,2 °C 92 % 997,6 hPa 0,0 mm 14,7 km/h (3 Bft) W 278 ° 0 min 0,000 mm 0,0 UV-I 0 W/m² 0,0 °C -2,9 °C 19,3 km/h (3 Bft)
17.01.2018 02:54 1,2 °C 92 % 997,6 hPa 0,0 mm 11,9 km/h (2 Bft) SW 234 ° 0 min 0,000 mm 0,0 UV-I 0 W/m² 0,0 °C -2,3 °C 16,1 km/h (3 Bft)
17.01.2018 02:55 1,2 °C 92 % 997,6 hPa 0,0 mm 11,7 km/h (2 Bft) W 269 ° 0 min 0,000 mm 0,0 UV-I 0 W/m² 0,0 °C -2,3 °C 19,3 km/h (3 Bft)
17.01.2018 02:56 1,2 °C 92 % 997,7 hPa 0,2 mm 11,7 km/h (2 Bft) SW 217 ° 0 min 0,000 mm 0,0 UV-I 0 W/m² 0,0 °C -2,3 °C 20,9 km/h (4 Bft)
17.01.2018 02:57 1,2 °C 92 % 997,6 hPa 0,0 mm 8,0 km/h (2 Bft) W 264 ° 0 min 0,000 mm 0,0 UV-I 0 W/m² 0,0 °C -1,3 °C 12,9 km/h (3 Bft)
17.01.2018 02:58 1,3 °C 92 % 997,6 hPa 0,0 mm 11,3 km/h (2 Bft) W-NW 282 ° 0 min 0,000 mm 0,0 UV-I 0 W/m² 0,1 °C -2,1 °C 16,1 km/h (3 Bft)
17.01.2018 02:59 1,3 °C 92 % 997,6 hPa 0,0 mm 8,9 km/h (2 Bft) W-NW 288 ° 0 min 0,000 mm 0,0 UV-I 0 W/m² 0,1 °C -1,5 °C 17,7 km/h (3 Bft)
17.01.2018 03:00 1,3 °C 92 % 997,6 hPa 0,0 mm 12,9 km/h (3 Bft) W 278 ° 0 min 0,000 mm 0,0 UV-I 0 W/m² 0,1 °C -2,4 °C 17,7 km/h (3 Bft)
17.01.2018 03:01 1,3 °C 92 % 997,6 hPa 0,0 mm 6,7 km/h (2 Bft) SW 221 ° 0 min 0,000 mm 0,0 UV-I 0 W/m² 0,1 °C -0,8 °C 11,3 km/h (2 Bft)
17.01.2018 03:02 1,3 °C 92 % 997,6 hPa 0,0 mm 8,0 km/h (2 Bft) W 261 ° 0 min 0,000 mm 0,0 UV-I 0 W/m² 0,1 °C -1,2 °C 11,3 km/h (2 Bft)
17.01.2018 03:03 1,3 °C 92 % 997,7 hPa 0,0 mm 13,5 km/h (3 Bft) W 263 ° 0 min 0,000 mm 0,0 UV-I 0 W/m² 0,1 °C -2,5 °C 19,3 km/h (3 Bft)
17.01.2018 03:04 1,3 °C 92 % 997,6 hPa 0,0 mm 9,6 km/h (2 Bft) W 266 ° 0 min 0,000 mm 0,0 UV-I 0 W/m² 0,1 °C -1,7 °C 12,9 km/h (3 Bft)
17.01.2018 03:05 1,3 °C 92 % 997,6 hPa 0,0 mm 10,5 km/h (2 Bft) W 278 ° 0 min 0,000 mm 0,0 UV-I 0 W/m² 0,1 °C -1,9 °C 19,3 km/h (3 Bft)
17.01.2018 03:06 1,3 °C 92 % 997,5 hPa 0,0 mm 11,3 km/h (2 Bft) W-SW 246 ° 0 min 0,000 mm 0,0 UV-I 0 W/m² 0,1 °C -2,1 °C 19,3 km/h (3 Bft)
17.01.2018 03:07 1,3 °C 92 % 997,5 hPa 0,0 mm 6,9 km/h (2 Bft) S-SW 207 ° 0 min 0,000 mm 0,0 UV-I 0 W/m² 0,1 °C -0,9 °C 11,3 km/h (2 Bft)
17.01.2018 03:08 1,3 °C 92 % 997,4 hPa 0,0 mm 8,9 km/h (2 Bft) W-NW 290 ° 0 min 0,000 mm 0,0 UV-I 0 W/m² 0,1 °C -1,5 °C 17,7 km/h (3 Bft)
17.01.2018 03:09 1,3 °C 92 % 997,4 hPa 0,0 mm 17,9 km/h (3 Bft) W-SW 252 ° 0 min 0,000 mm 0,0 UV-I 0 W/m² 0,1 °C -3,3 °C 27,4 km/h (4 Bft)
17.01.2018 03:10 1,3 °C 92 % 997,4 hPa 0,0 mm 20,4 km/h (4 Bft) W 278 ° 0 min 0,000 mm 0,0 UV-I 0 W/m² 0,1 °C -3,7 °C 33,8 km/h (5 Bft)
17.01.2018 03:11 1,4 °C 92 % 997,3 hPa 0,2 mm 17,7 km/h (3 Bft) W-NW 293 ° 0 min 0,000 mm 0,0 UV-I 0 W/m² 0,2 °C -3,1 °C 27,4 km/h (4 Bft)
17.01.2018 03:12 1,4 °C 92 % 997,4 hPa 0,0 mm 14,4 km/h (3 Bft) W-SW 250 ° 0 min 0,000 mm 0,0 UV-I 0 W/m² 0,2 °C -2,6 °C 24,1 km/h (4 Bft)
17.01.2018 03:13 1,4 °C 92 % 997,4 hPa 0,0 mm 14,2 km/h (3 Bft) W 267 ° 0 min 0,000 mm 0,0 UV-I 0 W/m² 0,2 °C -2,5 °C 22,5 km/h (4 Bft)
17.01.2018 03:14 1,4 °C 92 % 997,4 hPa 0,0 mm 16,7 km/h (3 Bft) SW 222 ° 0 min 0,000 mm 0,0 UV-I 0 W/m² 0,2 °C -3,0 °C 22,5 km/h (4 Bft)
17.01.2018 03:15 1,4 °C 91 % 997,5 hPa 0,0 mm 13,7 km/h (3 Bft) SW 232 ° 0 min 0,000 mm 0,0 UV-I 0 W/m² 0,1 °C -2,4 °C 20,9 km/h (4 Bft)
17.01.2018 03:16 1,5 °C 91 % 997,5 hPa 0,0 mm 20,2 km/h (4 Bft) S-SW 213 ° 0 min 0,000 mm 0,0 UV-I 0 W/m² 0,2 °C -3,4 °C 40,2 km/h (6 Bft)
17.01.2018 03:17 1,5 °C 91 % 997,5 hPa 0,0 mm 23,2 km/h (4 Bft) S-SW 204 ° 0 min 0,000 mm 0,0 UV-I 0 W/m² 0,2 °C -3,8 °C 30,6 km/h (5 Bft)
17.01.2018 03:18 1,6 °C 91 % 997,5 hPa 0,0 mm 20,0 km/h (4 Bft) W-SW 252 ° 0 min 0,000 mm 0,0 UV-I 0 W/m² 0,3 °C -3,2 °C 30,6 km/h (5 Bft)
17.01.2018 03:19 1,6 °C 91 % 997,5 hPa 0,0 mm 15,4 km/h (3 Bft) W 264 ° 0 min 0,000 mm 0,0 UV-I 0 W/m² 0,3 °C -2,5 °C 20,9 km/h (4 Bft)
17.01.2018 03:20 1,6 °C 91 % 997,5 hPa 0,0 mm 19,0 km/h (3 Bft) W 269 ° 0 min 0,000 mm 0,0 UV-I 0 W/m² 0,3 °C -3,1 °C 24,1 km/h (4 Bft)
17.01.2018 03:21 1,6 °C 91 % 997,6 hPa 0,0 mm 15,3 km/h (3 Bft) W 269 ° 0 min 0,000 mm 0,0 UV-I 0 W/m² 0,3 °C -2,5 °C 25,7 km/h (4 Bft)
17.01.2018 03:22 1,6 °C 91 % 997,6 hPa 0,0 mm 11,8 km/h (2 Bft) W-NW 291 ° 0 min 0,000 mm 0,0 UV-I 0 W/m² 0,3 °C -1,8 °C 17,7 km/h (3 Bft)
17.01.2018 03:23 1,7 °C 91 % 997,6 hPa 0,0 mm 14,3 km/h (3 Bft) SW 228 ° 0 min 0,000 mm 0,0 UV-I 0 W/m² 0,4 °C -2,2 °C 25,7 km/h (4 Bft)
17.01.2018 03:24 1,7 °C 91 % 997,5 hPa 0,0 mm 13,9 km/h (3 Bft) W 259 ° 0 min 0,000 mm 0,0 UV-I 0 W/m² 0,4 °C -2,1 °C 25,7 km/h (4 Bft)
17.01.2018 03:25 1,7 °C 90 % 997,6 hPa 0,0 mm 17,3 km/h (3 Bft) W-SW 257 ° 0 min 0,000 mm 0,0 UV-I 0 W/m² 0,2 °C -2,7 °C 22,5 km/h (4 Bft)
17.01.2018 03:26 1,7 °C 90 % 997,6 hPa 0,0 mm 15,0 km/h (3 Bft) W-SW 247 ° 0 min 0,000 mm 0,0 UV-I 0 W/m² 0,2 °C -2,3 °C 25,7 km/h (4 Bft)
17.01.2018 03:27 1,7 °C 90 % 997,7 hPa 0,0 mm 13,9 km/h (3 Bft) W 267 ° 0 min 0,000 mm 0,0 UV-I 0 W/m² 0,2 °C -2,1 °C 19,3 km/h (3 Bft)
17.01.2018 03:28 1,7 °C 90 % 997,7 hPa 0,0 mm 15,0 km/h (3 Bft) W 261 ° 0 min 0,000 mm 0,0 UV-I 0 W/m² 0,2 °C -2,3 °C 19,3 km/h (3 Bft)
17.01.2018 03:29 1,7 °C 90 % 997,7 hPa 0,0 mm 16,4 km/h (3 Bft) SW 225 ° 0 min 0,000 mm 0,0 UV-I 0 W/m² 0,2 °C -2,6 °C 24,1 km/h (4 Bft)
17.01.2018 03:30 1,7 °C 90 % 997,6 hPa 0,2 mm 18,1 km/h (3 Bft) W 265 ° 0 min 0,000 mm 0,0 UV-I 0 W/m² 0,2 °C -2,8 °C 25,7 km/h (4 Bft)
17.01.2018 03:31 1,7 °C 90 % 997,8 hPa 0,0 mm 21,4 km/h (4 Bft) W 277 ° 0 min 0,000 mm 0,0 UV-I 0 W/m² 0,2 °C -3,3 °C 40,2 km/h (6 Bft)
17.01.2018 03:32 1,7 °C 90 % 997,8 hPa 0,0 mm 14,5 km/h (3 Bft) W-SW 240 ° 0 min 0,000 mm 0,0 UV-I 0 W/m² 0,2 °C -2,2 °C 25,7 km/h (4 Bft)
17.01.2018 03:33 1,7 °C 90 % 997,8 hPa 0,0 mm 19,1 km/h (3 Bft) W-SW 252 ° 0 min 0,000 mm 0,0 UV-I 0 W/m² 0,2 °C -3,0 °C 29,0 km/h (5 Bft)
17.01.2018 03:34 1,7 °C 90 % 997,8 hPa 0,0 mm 15,0 km/h (3 Bft) W 261 ° 0 min 0,000 mm 0,0 UV-I 0 W/m² 0,2 °C -2,3 °C 20,9 km/h (4 Bft)
17.01.2018 03:35 1,7 °C 90 % 997,8 hPa 0,0 mm 14,5 km/h (3 Bft) W-NW 284 ° 0 min 0,000 mm 0,0 UV-I 0 W/m² 0,2 °C -2,2 °C 19,3 km/h (3 Bft)
17.01.2018 03:36 1,7 °C 90 % 997,9 hPa 0,0 mm 16,8 km/h (3 Bft) W 259 ° 0 min 0,000 mm 0,0 UV-I 0 W/m² 0,2 °C -2,6 °C 33,8 km/h (5 Bft)
17.01.2018 03:37 1,7 °C 90 % 997,9 hPa 0,0 mm 19,2 km/h (3 Bft) W 266 ° 0 min 0,000 mm 0,0 UV-I 0 W/m² 0,2 °C -3,0 °C 30,6 km/h (5 Bft)
17.01.2018 03:38 1,7 °C 90 % 998,0 hPa 0,0 mm 19,7 km/h (3 Bft) W-NW 286 ° 0 min 0,000 mm 0,0 UV-I 0 W/m² 0,2 °C -3,1 °C 29,0 km/h (5 Bft)
17.01.2018 03:39 1,7 °C 90 % 998,0 hPa 0,0 mm 18,0 km/h (3 Bft) W-SW 246 ° 0 min 0,000 mm 0,0 UV-I 0 W/m² 0,2 °C -2,8 °C 27,4 km/h (4 Bft)
17.01.2018 03:40 1,7 °C 90 % 998,0 hPa 0,0 mm 17,5 km/h (3 Bft) NW 321 ° 0 min 0,000 mm 0,0 UV-I 0 W/m² 0,2 °C -2,7 °C 29,0 km/h (5 Bft)
17.01.2018 03:41 1,7 °C 90 % 998,0 hPa 0,0 mm 15,6 km/h (3 Bft) W-SW 254 ° 0 min 0,000 mm 0,0 UV-I 0 W/m² 0,2 °C -2,4 °C 24,1 km/h (4 Bft)
17.01.2018 03:42 1,6 °C 90 % 998,0 hPa 0,0 mm 18,9 km/h (3 Bft) SW 232 ° 0 min 0,000 mm 0,0 UV-I 0 W/m² 0,1 °C -3,1 °C 22,5 km/h (4 Bft)
17.01.2018 03:43 1,6 °C 90 % 998,0 hPa 0,2 mm 15,3 km/h (3 Bft) W-SW 239 ° 0 min 0,000 mm 0,0 UV-I 0 W/m² 0,1 °C -2,5 °C 24,1 km/h (4 Bft)
17.01.2018 03:44 1,6 °C 90 % 998,0 hPa 0,0 mm 13,2 km/h (3 Bft) W 265 ° 0 min 0,000 mm 0,0 UV-I 0 W/m² 0,1 °C -2,1 °C 20,9 km/h (4 Bft)
17.01.2018 03:45 1,6 °C 90 % 998,0 hPa 0,0 mm 15,4 km/h (3 Bft) W 268 ° 0 min 0,000 mm 0,0 UV-I 0 W/m² 0,1 °C -2,5 °C 25,7 km/h (4 Bft)
17.01.2018 03:46 1,6 °C 90 % 998,1 hPa 0,0 mm 17,1 km/h (3 Bft) W 267 ° 0 min 0,000 mm 0,0 UV-I 0 W/m² 0,1 °C -2,8 °C 24,1 km/h (4 Bft)
17.01.2018 03:47 1,6 °C 90 % 998,1 hPa 0,0 mm 11,1 km/h (2 Bft) SW 221 ° 0 min 0,000 mm 0,0 UV-I 0 W/m² 0,1 °C -1,7 °C 24,1 km/h (4 Bft)
17.01.2018 03:48 1,5 °C 90 % 998,1 hPa 0,0 mm 10,3 km/h (2 Bft) SW 220 ° 0 min 0,000 mm 0,0 UV-I 0 W/m² 0,0 °C -1,6 °C 17,7 km/h (3 Bft)
17.01.2018 03:49 1,5 °C 90 % 997,9 hPa 0,0 mm 10,4 km/h (2 Bft) S 182 ° 0 min 0,000 mm 0,0 UV-I 0 W/m² 0,0 °C -1,6 °C 17,7 km/h (3 Bft)
17.01.2018 03:50 1,4 °C 90 % 997,8 hPa 0,0 mm 13,3 km/h (3 Bft) W 263 ° 0 min 0,000 mm 0,0 UV-I 0 W/m² -0,1 °C -2,4 °C 22,5 km/h (4 Bft)
17.01.2018 03:51 1,4 °C 91 % 997,9 hPa 0,0 mm 9,9 km/h (2 Bft) W-SW 256 ° 0 min 0,000 mm 0,0 UV-I 0 W/m² 0,1 °C -1,6 °C 19,3 km/h (3 Bft)
17.01.2018 03:52 1,4 °C 91 % 997,9 hPa 0,0 mm 8,1 km/h (2 Bft) W 271 ° 0 min 0,000 mm 0,0 UV-I 0 W/m² 0,1 °C -1,1 °C 14,5 km/h (3 Bft)
17.01.2018 03:53 1,4 °C 91 % 997,9 hPa 0,0 mm 11,2 km/h (2 Bft) W 272 ° 0 min 0,000 mm 0,0 UV-I 0 W/m² 0,1 °C -1,9 °C 12,9 km/h (3 Bft)
17.01.2018 03:54 1,3 °C 91 % 997,9 hPa 0,0 mm 12,3 km/h (3 Bft) W 267 ° 0 min 0,000 mm 0,0 UV-I 0 W/m² -0,0 °C -2,3 °C 16,1 km/h (3 Bft)
17.01.2018 03:55 1,3 °C 91 % 997,9 hPa 0,0 mm 11,7 km/h (2 Bft) W-NW 302 ° 0 min 0,000 mm 0,0 UV-I 0 W/m² -0,0 °C -2,2 °C 22,5 km/h (4 Bft)
17.01.2018 03:56 1,3 °C 91 % 997,8 hPa 0,0 mm 16,6 km/h (3 Bft) W-SW 244 ° 0 min 0,000 mm 0,0 UV-I 0 W/m² -0,0 °C -3,1 °C 20,9 km/h (4 Bft)
17.01.2018 03:57 1,3 °C 91 % 997,8 hPa 0,2 mm 14,5 km/h (3 Bft) W 275 ° 0 min 0,000 mm 0,0 UV-I 0 W/m² -0,0 °C -2,7 °C 22,5 km/h (4 Bft)
17.01.2018 03:58 1,3 °C 91 % 997,8 hPa 0,0 mm 16,0 km/h (3 Bft) W-SW 244 ° 0 min 0,000 mm 0,0 UV-I 0 W/m² -0,0 °C -3,0 °C 27,4 km/h (4 Bft)
17.01.2018 03:59 1,3 °C 91 % 997,8 hPa 0,0 mm 12,1 km/h (2 Bft) W-NW 290 ° 0 min 0,000 mm 0,0 UV-I 0 W/m² -0,0 °C -2,2 °C 20,9 km/h (4 Bft)
17.01.2018 04:00 1,3 °C 91 % 997,8 hPa 0,0 mm 16,3 km/h (3 Bft) W-NW 283 ° 0 min 0,000 mm 0,0 UV-I 0 W/m² -0,0 °C -3,0 °C 27,4 km/h (4 Bft)
17.01.2018 04:01 1,3 °C 91 % 997,7 hPa 0,0 mm 22,1 km/h (4 Bft) W 261 ° 0 min 0,000 mm 0,0 UV-I 0 W/m² -0,0 °C -3,9 °C 24,1 km/h (4 Bft)
17.01.2018 04:02 1,2 °C 91 % 997,7 hPa 0,0 mm 11,5 km/h (2 Bft) W 278 ° 0 min 0,000 mm 0,0 UV-I 0 W/m² -0,1 °C -2,2 °C 17,7 km/h (3 Bft)
17.01.2018 04:03 1,2 °C 91 % 997,7 hPa 0,0 mm 13,7 km/h (3 Bft) W 266 ° 0 min 0,000 mm 0,0 UV-I 0 W/m² -0,1 °C -2,7 °C 20,9 km/h (4 Bft)
17.01.2018 04:04 1,2 °C 91 % 997,8 hPa 0,0 mm 14,8 km/h (3 Bft) W 267 ° 0 min 0,000 mm 0,0 UV-I 0 W/m² -0,1 °C -2,9 °C 17,7 km/h (3 Bft)
17.01.2018 04:05 1,2 °C 91 % 997,8 hPa 0,0 mm 11,3 km/h (2 Bft) W-SW 252 ° 0 min 0,000 mm 0,0 UV-I 0 W/m² -0,1 °C -2,2 °C 20,9 km/h (4 Bft)
17.01.2018 04:06 1,2 °C 91 % 997,7 hPa 0,0 mm 11,5 km/h (2 Bft) W 267 ° 0 min 0,000 mm 0,0 UV-I 0 W/m² -0,1 °C -2,2 °C 14,5 km/h (3 Bft)
17.01.2018 04:07 1,2 °C 91 % 997,7 hPa 0,0 mm 12,9 km/h (3 Bft) W 263 ° 0 min 0,000 mm 0,0 UV-I 0 W/m² -0,1 °C -2,5 °C 17,7 km/h (3 Bft)
17.01.2018 04:08 1,2 °C 91 % 997,8 hPa 0,0 mm 17,5 km/h (3 Bft) W 260 ° 0 min 0,000 mm 0,0 UV-I 0 W/m² -0,1 °C -3,4 °C 30,6 km/h (5 Bft)
17.01.2018 04:09 1,2 °C 92 % 997,7 hPa 0,0 mm 16,0 km/h (3 Bft) W 260 ° 0 min 0,000 mm 0,0 UV-I 0 W/m² 0,0 °C -3,1 °C 20,9 km/h (4 Bft)
17.01.2018 04:10 1,2 °C 91 % 997,7 hPa 0,0 mm 18,1 km/h (3 Bft) W-NW 292 ° 0 min 0,000 mm 0,0 UV-I 0 W/m² -0,1 °C -3,4 °C 24,1 km/h (4 Bft)
17.01.2018 04:11 1,2 °C 92 % 997,7 hPa 0,0 mm 11,9 km/h (2 Bft) W-SW 250 ° 0 min 0,000 mm 0,0 UV-I 0 W/m² 0,0 °C -2,3 °C 17,7 km/h (3 Bft)
17.01.2018 04:12 1,2 °C 92 % 997,7 hPa 0,0 mm 10,3 km/h (2 Bft) W 268 ° 0 min 0,000 mm 0,0 UV-I 0 W/m² 0,0 °C -2,0 °C 14,5 km/h (3 Bft)
17.01.2018 04:13 1,2 °C 92 % 997,6 hPa 0,2 mm 15,2 km/h (3 Bft) S 169 ° 0 min 0,000 mm 0,0 UV-I 0 W/m² 0,0 °C -3,0 °C 22,5 km/h (4 Bft)
17.01.2018 04:14 1,2 °C 91 % 997,6 hPa 0,0 mm 16,5 km/h (3 Bft) W 273 ° 0 min 0,000 mm 0,0 UV-I 0 W/m² -0,1 °C -3,2 °C 20,9 km/h (4 Bft)
17.01.2018 04:15 1,1 °C 91 % 997,8 hPa 0,0 mm 27,1 km/h (4 Bft) W-NW 290 ° 0 min 0,000 mm 0,0 UV-I 0 W/m² -0,2 °C -4,7 °C 53,1 km/h (7 Bft)
17.01.2018 04:16 1,1 °C 91 % 997,7 hPa 0,0 mm 18,7 km/h (3 Bft) SW 221 ° 0 min 0,000 mm 0,0 UV-I 0 W/m² -0,2 °C -3,7 °C 24,1 km/h (4 Bft)
17.01.2018 04:17 1,1 °C 91 % 997,8 hPa 0,0 mm 14,5 km/h (3 Bft) W-SW 257 ° 0 min 0,000 mm 0,0 UV-I 0 W/m² -0,2 °C -3,0 °C 25,7 km/h (4 Bft)
17.01.2018 04:18 1,1 °C 91 % 997,7 hPa 0,0 mm 17,5 km/h (3 Bft) W-NW 283 ° 0 min 0,000 mm 0,0 UV-I 0 W/m² -0,2 °C -3,5 °C 27,4 km/h (4 Bft)
17.01.2018 04:19 1,1 °C 91 % 997,7 hPa 0,0 mm 16,8 km/h (3 Bft) SW 222 ° 0 min 0,000 mm 0,0 UV-I 0 W/m² -0,2 °C -3,4 °C 29,0 km/h (5 Bft)
17.01.2018 04:20 1,1 °C 91 % 997,7 hPa 0,0 mm 16,3 km/h (3 Bft) S-SW 195 ° 0 min 0,000 mm 0,0 UV-I 0 W/m² -0,2 °C -3,3 °C 25,7 km/h (4 Bft)
17.01.2018 04:21 1,1 °C 91 % 997,7 hPa 0,0 mm 23,1 km/h (4 Bft) W-SW 258 ° 0 min 0,000 mm 0,0 UV-I 0 W/m² -0,2 °C -4,3 °C 32,2 km/h (5 Bft)
17.01.2018 04:22 1,0 °C 91 % 997,7 hPa 0,0 mm 23,2 km/h (4 Bft) W-SW 257 ° 0 min 0,000 mm 0,0 UV-I 0 W/m² -0,3 °C -4,4 °C 32,2 km/h (5 Bft)
17.01.2018 04:23 1,0 °C 91 % 997,7 hPa 0,0 mm 19,5 km/h (3 Bft) W-SW 240 ° 0 min 0,000 mm 0,0 UV-I 0 W/m² -0,3 °C -3,9 °C 27,4 km/h (4 Bft)
17.01.2018 04:24 1,0 °C 92 % 997,8 hPa 0,0 mm 23,3 km/h (4 Bft) W 269 ° 0 min 0,000 mm 0,0 UV-I 0 W/m² -0,2 °C -4,4 °C 33,8 km/h (5 Bft)
17.01.2018 04:25 1,0 °C 92 % 997,8 hPa 0,0 mm 19,8 km/h (3 Bft) W 267 ° 0 min 0,000 mm 0,0 UV-I 0 W/m² -0,2 °C -4,0 °C 29,0 km/h (5 Bft)
17.01.2018 04:26 1,0 °C 92 % 997,7 hPa 0,0 mm 16,5 km/h (3 Bft) W-SW 256 ° 0 min 0,000 mm 0,0 UV-I 0 W/m² -0,2 °C -3,4 °C 22,5 km/h (4 Bft)
17.01.2018 04:27 1,0 °C 92 % 997,8 hPa 0,0 mm 17,6 km/h (3 Bft) SW 223 ° 0 min 0,000 mm 0,0 UV-I 0 W/m² -0,2 °C -3,6 °C 29,0 km/h (5 Bft)
17.01.2018 04:28 0,9 °C 92 % 997,8 hPa 0,0 mm 20,0 km/h (4 Bft) W-SW 257 ° 0 min 0,000 mm 0,0 UV-I 0 W/m² -0,2 °C -4,1 °C 30,6 km/h (5 Bft)
17.01.2018 04:29 0,9 °C 92 % 997,8 hPa 0,0 mm 19,1 km/h (3 Bft) W 264 ° 0 min 0,000 mm 0,0 UV-I 0 W/m² -0,2 °C -4,0 °C 25,7 km/h (4 Bft)
17.01.2018 04:30 0,9 °C 92 % 997,8 hPa 0,0 mm 15,9 km/h (3 Bft) W 268 ° 0 min 0,000 mm 0,0 UV-I 0 W/m² -0,2 °C -3,5 °C 22,5 km/h (4 Bft)
17.01.2018 04:31 0,9 °C 92 % 997,8 hPa 0,0 mm 13,1 km/h (3 Bft) W-SW 254 ° 0 min 0,000 mm 0,0 UV-I 0 W/m² -0,2 °C -2,9 °C 17,7 km/h (3 Bft)
17.01.2018 04:32 0,9 °C 92 % 997,8 hPa 0,0 mm 12,8 km/h (3 Bft) W 267 ° 0 min 0,000 mm 0,0 UV-I 0 W/m² -0,2 °C -2,9 °C 24,1 km/h (4 Bft)
17.01.2018 04:33 0,9 °C 91 % 997,8 hPa 0,0 mm 17,6 km/h (3 Bft) W 268 ° 0 min 0,000 mm 0,0 UV-I 0 W/m² -0,4 °C -3,7 °C 25,7 km/h (4 Bft)
17.01.2018 04:34 0,9 °C 92 % 997,8 hPa 0,0 mm 12,3 km/h (3 Bft) W 273 ° 0 min 0,000 mm 0,0 UV-I 0 W/m² -0,2 °C -2,8 °C 14,5 km/h (3 Bft)
17.01.2018 04:35 0,9 °C 91 % 997,8 hPa 0,0 mm 22,0 km/h (4 Bft) W 261 ° 0 min 0,000 mm 0,0 UV-I 0 W/m² -0,4 °C -4,4 °C 33,8 km/h (5 Bft)
17.01.2018 04:36 0,9 °C 91 % 997,7 hPa 0,0 mm 14,9 km/h (3 Bft) W 269 ° 0 min 0,000 mm 0,0 UV-I 0 W/m² -0,4 °C -3,3 °C 19,3 km/h (3 Bft)
17.01.2018 04:37 0,9 °C 91 % 997,7 hPa 0,0 mm 10,0 km/h (2 Bft) W 259 ° 0 min 0,000 mm 0,0 UV-I 0 W/m² -0,4 °C -2,2 °C 17,7 km/h (3 Bft)
17.01.2018 04:38 0,9 °C 91 % 997,7 hPa 0,0 mm 21,8 km/h (4 Bft) W-SW 254 ° 0 min 0,000 mm 0,0 UV-I 0 W/m² -0,4 °C -4,4 °C 29,0 km/h (5 Bft)
17.01.2018 04:39 0,8 °C 91 % 997,7 hPa 0,0 mm 13,6 km/h (3 Bft) W-SW 257 ° 0 min 0,000 mm 0,0 UV-I 0 W/m² -0,5 °C -3,2 °C 19,3 km/h (3 Bft)
17.01.2018 04:40 0,9 °C 91 % 997,7 hPa 0,0 mm 20,1 km/h (4 Bft) W 264 ° 0 min 0,000 mm 0,0 UV-I 0 W/m² -0,4 °C -4,1 °C 27,4 km/h (4 Bft)
17.01.2018 04:41 0,8 °C 91 % 997,7 hPa 0,0 mm 13,9 km/h (3 Bft) W-NW 298 ° 0 min 0,000 mm 0,0 UV-I 0 W/m² -0,5 °C -3,2 °C 24,1 km/h (4 Bft)
17.01.2018 04:42 0,8 °C 91 % 997,8 hPa 0,0 mm 11,3 km/h (2 Bft) W-SW 248 ° 0 min 0,000 mm 0,0 UV-I 0 W/m² -0,5 °C -2,7 °C 19,3 km/h (3 Bft)
17.01.2018 04:43 0,8 °C 91 % 997,8 hPa 0,0 mm 16,8 km/h (3 Bft) W-NW 290 ° 0 min 0,000 mm 0,0 UV-I 0 W/m² -0,5 °C -3,7 °C 22,5 km/h (4 Bft)
17.01.2018 04:44 0,8 °C 91 % 997,8 hPa 0,0 mm 15,0 km/h (3 Bft) SW 231 ° 0 min 0,000 mm 0,0 UV-I 0 W/m² -0,5 °C -3,4 °C 24,1 km/h (4 Bft)
17.01.2018 04:45 0,8 °C 91 % 997,8 hPa 0,0 mm 12,9 km/h (3 Bft) W 271 ° 0 min 0,000 mm 0,0 UV-I 0 W/m² -0,5 °C -3,0 °C 20,9 km/h (4 Bft)
17.01.2018 04:46 0,8 °C 91 % 997,7 hPa 0,0 mm 9,5 km/h (2 Bft) SW 218 ° 0 min 0,000 mm 0,0 UV-I 0 W/m² -0,5 °C -2,2 °C 14,5 km/h (3 Bft)
17.01.2018 04:47 0,8 °C 91 % 997,5 hPa 0,0 mm 13,4 km/h (3 Bft) W 261 ° 0 min 0,000 mm 0,0 UV-I 0 W/m² -0,5 °C -3,1 °C 19,3 km/h (3 Bft)
17.01.2018 04:48 0,8 °C 91 % 997,5 hPa 0,2 mm 13,1 km/h (3 Bft) W 279 ° 0 min 0,000 mm 0,0 UV-I 0 W/m² -0,5 °C -3,1 °C 20,9 km/h (4 Bft)
17.01.2018 04:49 0,8 °C 91 % 997,5 hPa 0,0 mm 13,9 km/h (3 Bft) W-SW 250 ° 0 min 0,000 mm 0,0 UV-I 0 W/m² -0,5 °C -3,2 °C 20,9 km/h (4 Bft)
17.01.2018 04:50 0,8 °C 92 % 997,5 hPa 0,0 mm 12,7 km/h (3 Bft) W 271 ° 0 min 0,000 mm 0,0 UV-I 0 W/m² -0,3 °C -3,0 °C 17,7 km/h (3 Bft)
17.01.2018 04:51 0,8 °C 92 % 997,4 hPa 0,0 mm 14,3 km/h (3 Bft) W-SW 248 ° 0 min 0,000 mm 0,0 UV-I 0 W/m² -0,3 °C -3,3 °C 17,7 km/h (3 Bft)
17.01.2018 04:52 0,8 °C 92 % 997,5 hPa 0,0 mm 11,9 km/h (2 Bft) W-SW 250 ° 0 min 0,000 mm 0,0 UV-I 0 W/m² -0,3 °C -2,8 °C 17,7 km/h (3 Bft)
17.01.2018 04:53 0,8 °C 92 % 997,5 hPa 0,0 mm 10,9 km/h (2 Bft) SW 236 ° 0 min 0,000 mm 0,0 UV-I 0 W/m² -0,3 °C -2,6 °C 16,1 km/h (3 Bft)
17.01.2018 04:54 0,7 °C 92 % 997,5 hPa 0,0 mm 14,6 km/h (3 Bft) W-SW 238 ° 0 min 0,000 mm 0,0 UV-I 0 W/m² -0,4 °C -3,5 °C 20,9 km/h (4 Bft)
17.01.2018 04:55 0,7 °C 92 % 997,3 hPa 0,0 mm 14,7 km/h (3 Bft) W-SW 257 ° 0 min 0,000 mm 0,0 UV-I 0 W/m² -0,4 °C -3,5 °C 29,0 km/h (5 Bft)
17.01.2018 04:56 0,7 °C 92 % 997,3 hPa 0,0 mm 12,5 km/h (3 Bft) W 262 ° 0 min 0,000 mm 0,0 UV-I 0 W/m² -0,4 °C -3,1 °C 19,3 km/h (3 Bft)
17.01.2018 04:57 0,7 °C 92 % 997,4 hPa 0,0 mm 13,0 km/h (3 Bft) W-SW 252 ° 0 min 0,000 mm 0,0 UV-I 0 W/m² -0,4 °C -3,2 °C 17,7 km/h (3 Bft)
17.01.2018 04:58 0,7 °C 92 % 997,3 hPa 0,0 mm 13,9 km/h (3 Bft) W 261 ° 0 min 0,000 mm 0,0 UV-I 0 W/m² -0,4 °C -3,3 °C 24,1 km/h (4 Bft)
17.01.2018 04:59 0,7 °C 92 % 997,4 hPa 0,0 mm 14,2 km/h (3 Bft) W-SW 255 ° 0 min 0,000 mm 0,0 UV-I 0 W/m² -0,4 °C -3,4 °C 19,3 km/h (3 Bft)
17.01.2018 05:00 0,7 °C 92 % 997,4 hPa 0,0 mm 13,5 km/h (3 Bft) SW 227 ° 0 min 0,000 mm 0,0 UV-I 0 W/m² -0,4 °C -3,3 °C 19,3 km/h (3 Bft)
17.01.2018 05:01 0,7 °C 92 % 997,5 hPa 0,0 mm 15,0 km/h (3 Bft) W 280 ° 0 min 0,000 mm 0,0 UV-I 0 W/m² -0,4 °C -3,6 °C 29,0 km/h (5 Bft)
17.01.2018 05:02 0,7 °C 92 % 997,5 hPa 0,0 mm 11,1 km/h (2 Bft) W 261 ° 0 min 0,000 mm 0,0 UV-I 0 W/m² -0,4 °C -2,7 °C 14,5 km/h (3 Bft)
17.01.2018 05:03 0,7 °C 92 % 997,5 hPa 0,0 mm 18,5 km/h (3 Bft) W-SW 249 ° 0 min 0,000 mm 0,0 UV-I 0 W/m² -0,4 °C -4,1 °C 22,5 km/h (4 Bft)
17.01.2018 05:04 0,7 °C 92 % 997,4 hPa 0,0 mm 17,0 km/h (3 Bft) W 279 ° 0 min 0,000 mm 0,0 UV-I 0 W/m² -0,4 °C -3,9 °C 20,9 km/h (4 Bft)
17.01.2018 05:05 0,7 °C 92 % 997,4 hPa 0,0 mm 15,8 km/h (3 Bft) W 268 ° 0 min 0,000 mm 0,0 UV-I 0 W/m² -0,4 °C -3,7 °C 20,9 km/h (4 Bft)
17.01.2018 05:06 0,6 °C 92 % 997,4 hPa 0,0 mm 13,5 km/h (3 Bft) W-NW 289 ° 0 min 0,000 mm 0,0 UV-I 0 W/m² -0,5 °C -3,4 °C 20,9 km/h (4 Bft)
17.01.2018 05:07 0,6 °C 92 % 997,4 hPa 0,0 mm 15,2 km/h (3 Bft) W 263 ° 0 min 0,000 mm 0,0 UV-I 0 W/m² -0,5 °C -3,7 °C 22,5 km/h (4 Bft)
17.01.2018 05:08 0,6 °C 92 % 997,5 hPa 0,0 mm 13,3 km/h (3 Bft) W 261 ° 0 min 0,000 mm 0,0 UV-I 0 W/m² -0,5 °C -3,3 °C 19,3 km/h (3 Bft)
17.01.2018 05:09 0,6 °C 92 % 997,4 hPa 0,0 mm 12,6 km/h (3 Bft) W 270 ° 0 min 0,000 mm 0,0 UV-I 0 W/m² -0,5 °C -3,2 °C 19,3 km/h (3 Bft)
17.01.2018 05:10 0,6 °C 92 % 997,4 hPa 0,0 mm 12,0 km/h (2 Bft) W-SW 252 ° 0 min 0,000 mm 0,0 UV-I 0 W/m² -0,5 °C -3,1 °C 17,7 km/h (3 Bft)
17.01.2018 05:11 0,6 °C 92 % 997,5 hPa 0,0 mm 10,5 km/h (2 Bft) W-SW 250 ° 0 min 0,000 mm 0,0 UV-I 0 W/m² -0,5 °C -2,7 °C 14,5 km/h (3 Bft)
17.01.2018 05:12 0,6 °C 92 % 997,4 hPa 0,0 mm 7,0 km/h (2 Bft) W 271 ° 0 min 0,000 mm 0,0 UV-I 0 W/m² -0,5 °C -1,7 °C 9,7 km/h (2 Bft)
17.01.2018 05:13 0,6 °C 92 % 997,4 hPa 0,0 mm 8,7 km/h (2 Bft) W 267 ° 0 min 0,000 mm 0,0 UV-I 0 W/m² -0,5 °C -2,2 °C 14,5 km/h (3 Bft)
17.01.2018 05:14 0,6 °C 92 % 997,6 hPa 0,0 mm 7,5 km/h (2 Bft) W-SW 255 ° 0 min 0,000 mm 0,0 UV-I 0 W/m² -0,5 °C -1,9 °C 14,5 km/h (3 Bft)
17.01.2018 05:15 0,6 °C 92 % 997,5 hPa 0,0 mm 10,6 km/h (2 Bft) W 259 ° 0 min 0,000 mm 0,0 UV-I 0 W/m² -0,5 °C -2,7 °C 16,1 km/h (3 Bft)
17.01.2018 05:16 0,6 °C 92 % 997,6 hPa 0,0 mm 11,7 km/h (2 Bft) W 261 ° 0 min 0,000 mm 0,0 UV-I 0 W/m² -0,5 °C -3,0 °C 14,5 km/h (3 Bft)
17.01.2018 05:17 0,6 °C 92 % 997,6 hPa 0,0 mm 12,6 km/h (3 Bft) W 259 ° 0 min 0,000 mm 0,0 UV-I 0 W/m² -0,5 °C -3,2 °C 17,7 km/h (3 Bft)
17.01.2018 05:18 0,6 °C 92 % 997,6 hPa 0,0 mm 13,3 km/h (3 Bft) W 277 ° 0 min 0,000 mm 0,0 UV-I 0 W/m² -0,5 °C -3,3 °C 19,3 km/h (3 Bft)
17.01.2018 05:19 0,6 °C 92 % 997,6 hPa 0,0 mm 10,8 km/h (2 Bft) W-SW 254 ° 0 min 0,000 mm 0,0 UV-I 0 W/m² -0,5 °C -2,8 °C 17,7 km/h (3 Bft)
17.01.2018 05:20 0,6 °C 92 % 997,6 hPa 0,0 mm 8,4 km/h (2 Bft) W-SW 250 ° 0 min 0,000 mm 0,0 UV-I 0 W/m² -0,5 °C -2,2 °C 14,5 km/h (3 Bft)
17.01.2018 05:21 0,5 °C 92 % 997,5 hPa 0,0 mm 7,0 km/h (2 Bft) SW 222 ° 0 min 0,000 mm 0,0 UV-I 0 W/m² -0,6 °C -1,8 °C 11,3 km/h (2 Bft)
17.01.2018 05:22 0,6 °C 92 % 997,5 hPa 0,0 mm 10,5 km/h (2 Bft) W-SW 238 ° 0 min 0,000 mm 0,0 UV-I 0 W/m² -0,5 °C -2,7 °C 20,9 km/h (4 Bft)
17.01.2018 05:23 0,5 °C 92 % 997,4 hPa 0,0 mm 6,6 km/h (2 Bft) W-SW 248 ° 0 min 0,000 mm 0,0 UV-I 0 W/m² -0,6 °C -1,7 °C 11,3 km/h (2 Bft)
17.01.2018 05:24 0,5 °C 92 % 997,4 hPa 0,0 mm 12,7 km/h (3 Bft) W 267 ° 0 min 0,000 mm 0,0 UV-I 0 W/m² -0,6 °C -3,3 °C 20,9 km/h (4 Bft)
17.01.2018 05:25 0,5 °C 92 % 997,4 hPa 0,0 mm 11,7 km/h (2 Bft) W 271 ° 0 min 0,000 mm 0,0 UV-I 0 W/m² -0,6 °C -3,1 °C 14,5 km/h (3 Bft)
17.01.2018 05:26 0,5 °C 92 % 997,4 hPa 0,0 mm 9,3 km/h (2 Bft) W-NW 292 ° 0 min 0,000 mm 0,0 UV-I 0 W/m² -0,6 °C -2,5 °C 14,5 km/h (3 Bft)
17.01.2018 05:27 0,5 °C 92 % 997,5 hPa 0,0 mm 13,9 km/h (3 Bft) W-NW 294 ° 0 min 0,000 mm 0,0 UV-I 0 W/m² -0,6 °C -3,6 °C 20,9 km/h (4 Bft)
17.01.2018 05:28 0,5 °C 93 % 997,9 hPa 0,0 mm 7,2 km/h (2 Bft) NW 309 ° 0 min 0,000 mm 0,0 UV-I 0 W/m² -0,5 °C -1,9 °C 16,1 km/h (3 Bft)
17.01.2018 05:29 0,4 °C 93 % 997,9 hPa 0,0 mm 12,2 km/h (2 Bft) W 267 ° 0 min 0,000 mm 0,0 UV-I 0 W/m² -0,6 °C -3,4 °C 16,1 km/h (3 Bft)
17.01.2018 05:30 0,4 °C 93 % 998,0 hPa 0,0 mm 8,6 km/h (2 Bft) NW 307 ° 0 min 0,000 mm 0,0 UV-I 0 W/m² -0,6 °C -2,5 °C 12,9 km/h (3 Bft)
17.01.2018 05:31 0,4 °C 93 % 998,1 hPa 0,0 mm 6,3 km/h (2 Bft) W 277 ° 0 min 0,000 mm 0,0 UV-I 0 W/m² -0,6 °C -1,7 °C 14,5 km/h (3 Bft)
17.01.2018 05:32 0,4 °C 93 % 998,1 hPa 0,0 mm 7,7 km/h (2 Bft) W-NW 295 ° 0 min 0,000 mm 0,0 UV-I 0 W/m² -0,6 °C -2,2 °C 12,9 km/h (3 Bft)
17.01.2018 05:33 0,4 °C 93 % 998,1 hPa 0,0 mm 6,2 km/h (2 Bft) N-NW 332 ° 0 min 0,000 mm 0,0 UV-I 0 W/m² -0,6 °C -1,6 °C 16,1 km/h (3 Bft)
17.01.2018 05:34 0,4 °C 93 % 998,2 hPa 0,0 mm 6,6 km/h (2 Bft) W 265 ° 0 min 0,000 mm 0,0 UV-I 0 W/m² -0,6 °C -1,8 °C 11,3 km/h (2 Bft)
17.01.2018 05:35 0,3 °C 93 % 998,2 hPa 0,0 mm 6,4 km/h (2 Bft) N-NW 333 ° 0 min 0,000 mm 0,0 UV-I 0 W/m² -0,7 °C -1,8 °C 12,9 km/h (3 Bft)
17.01.2018 05:36 0,4 °C 93 % 998,3 hPa 0,0 mm 8,7 km/h (2 Bft) NW 307 ° 0 min 0,000 mm 0,0 UV-I 0 W/m² -0,6 °C -2,5 °C 12,9 km/h (3 Bft)
17.01.2018 05:37 0,3 °C 93 % 998,3 hPa 0,0 mm 9,1 km/h (2 Bft) NW 326 ° 0 min 0,000 mm 0,0 UV-I 0 W/m² -0,7 °C -2,7 °C 12,9 km/h (3 Bft)
17.01.2018 05:38 0,3 °C 93 % 998,2 hPa 0,0 mm 11,5 km/h (2 Bft) W-NW 288 ° 0 min 0,000 mm 0,0 UV-I 0 W/m² -0,7 °C -3,3 °C 24,1 km/h (4 Bft)
17.01.2018 05:39 0,3 °C 93 % 998,4 hPa 0,0 mm 12,2 km/h (2 Bft) W-NW 294 ° 0 min 0,000 mm 0,0 UV-I 0 W/m² -0,7 °C -3,5 °C 17,7 km/h (3 Bft)
17.01.2018 05:40 0,3 °C 93 % 998,1 hPa 0,0 mm 11,3 km/h (2 Bft) W 265 ° 0 min 0,000 mm 0,0 UV-I 0 W/m² -0,7 °C -3,3 °C 14,5 km/h (3 Bft)
17.01.2018 05:41 0,3 °C 93 % 998,1 hPa 0,0 mm 18,5 km/h (3 Bft) S-SW 205 ° 0 min 0,000 mm 0,0 UV-I 0 W/m² -0,7 °C -4,6 °C 24,1 km/h (4 Bft)
17.01.2018 05:42 0,2 °C 93 % 998,2 hPa 0,0 mm 16,0 km/h (3 Bft) W 276 ° 0 min 0,000 mm 0,0 UV-I 0 W/m² -0,8 °C -4,4 °C 25,7 km/h (4 Bft)
17.01.2018 05:43 0,2 °C 93 % 998,2 hPa 0,0 mm 19,2 km/h (3 Bft) W-SW 254 ° 0 min 0,000 mm 0,0 UV-I 0 W/m² -0,8 °C -4,9 °C 33,8 km/h (5 Bft)
17.01.2018 05:44 0,2 °C 93 % 998,2 hPa 0,0 mm 20,2 km/h (4 Bft) W-NW 284 ° 0 min 0,000 mm 0,0 UV-I 0 W/m² -0,8 °C -5,0 °C 30,6 km/h (5 Bft)
17.01.2018 05:45 0,2 °C 93 % 998,1 hPa 0,0 mm 12,5 km/h (3 Bft) NW 320 ° 0 min 0,000 mm 0,0 UV-I 0 W/m² -0,8 °C -3,7 °C 19,3 km/h (3 Bft)
17.01.2018 05:46 0,2 °C 93 % 998,1 hPa 0,0 mm 15,8 km/h (3 Bft) SW 233 ° 0 min 0,000 mm 0,0 UV-I 0 W/m² -0,8 °C -4,3 °C 20,9 km/h (4 Bft)
17.01.2018 05:47 0,2 °C 93 % 998,1 hPa 0,0 mm 17,6 km/h (3 Bft) W 277 ° 0 min 0,000 mm 0,0 UV-I 0 W/m² -0,8 °C -4,6 °C 25,7 km/h (4 Bft)
17.01.2018 05:48 0,2 °C 93 % 998,2 hPa 0,0 mm 13,5 km/h (3 Bft) W 265 ° 0 min 0,000 mm 0,0 UV-I 0 W/m² -0,8 °C -3,9 °C 19,3 km/h (3 Bft)
17.01.2018 05:49 0,2 °C 93 % 998,2 hPa 0,0 mm 9,7 km/h (2 Bft) W-NW 291 ° 0 min 0,000 mm 0,0 UV-I 0 W/m² -0,8 °C -3,0 °C 12,9 km/h (3 Bft)
17.01.2018 05:50 0,2 °C 93 % 998,2 hPa 0,0 mm 9,0 km/h (2 Bft) W-NW 289 ° 0 min 0,000 mm 0,0 UV-I 0 W/m² -0,8 °C -2,8 °C 11,3 km/h (2 Bft)
17.01.2018 05:51 0,2 °C 93 % 998,3 hPa 0,0 mm 13,1 km/h (3 Bft) W-SW 246 ° 0 min 0,000 mm 0,0 UV-I 0 W/m² -0,8 °C -3,8 °C 17,7 km/h (3 Bft)
17.01.2018 05:52 0,2 °C 93 % 998,3 hPa 0,0 mm 14,2 km/h (3 Bft) W 267 ° 0 min 0,000 mm 0,0 UV-I 0 W/m² -0,8 °C -4,0 °C 20,9 km/h (4 Bft)
17.01.2018 05:53 0,2 °C 93 % 998,2 hPa 0,0 mm 7,4 km/h (2 Bft) W-SW 255 ° 0 min 0,000 mm 0,0 UV-I 0 W/m² -0,8 °C -2,3 °C 12,9 km/h (3 Bft)
17.01.2018 05:54 0,2 °C 93 % 998,3 hPa 0,0 mm 10,1 km/h (2 Bft) S-SW 211 ° 0 min 0,000 mm 0,0 UV-I 0 W/m² -0,8 °C -3,1 °C 16,1 km/h (3 Bft)
17.01.2018 05:55 0,2 °C 93 % 997,9 hPa 0,0 mm 8,2 km/h (2 Bft) W-SW 246 ° 0 min 0,000 mm 0,0 UV-I 0 W/m² -0,8 °C -2,6 °C 14,5 km/h (3 Bft)
17.01.2018 05:56 0,2 °C 93 % 997,8 hPa 0,0 mm 8,7 km/h (2 Bft) W 275 ° 0 min 0,000 mm 0,0 UV-I 0 W/m² -0,8 °C -2,7 °C 20,9 km/h (4 Bft)
17.01.2018 05:57 0,2 °C 93 % 997,8 hPa 0,0 mm 8,4 km/h (2 Bft) SW 225 ° 0 min 0,000 mm 0,0 UV-I 0 W/m² -0,8 °C -2,6 °C 20,9 km/h (4 Bft)
17.01.2018 05:58 0,2 °C 93 % 997,9 hPa 0,0 mm 6,9 km/h (2 Bft) W 281 ° 0 min 0,000 mm 0,0 UV-I 0 W/m² -0,8 °C -2,1 °C 11,3 km/h (2 Bft)
17.01.2018 05:59 0,2 °C 93 % 998,0 hPa 0,0 mm 11,8 km/h (2 Bft) W-SW 256 ° 0 min 0,000 mm 0,0 UV-I 0 W/m² -0,8 °C -3,5 °C 19,3 km/h (3 Bft)
17.01.2018 06:00 0,2 °C 93 % 998,0 hPa 0,0 mm 15,3 km/h (3 Bft) W-SW 256 ° 0 min 0,000 mm 0,0 UV-I 0 W/m² -0,8 °C -4,2 °C 20,9 km/h (4 Bft)
17.01.2018 06:01 0,2 °C 93 % 997,9 hPa 0,0 mm 10,5 km/h (2 Bft) S-SW 194 ° 0 min 0,000 mm 0,0 UV-I 0 W/m² -0,8 °C -3,2 °C 16,1 km/h (3 Bft)
17.01.2018 06:02 0,2 °C 93 % 997,7 hPa 0,0 mm 8,6 km/h (2 Bft) S-SW 192 ° 0 min 0,000 mm 0,0 UV-I 0 W/m² -0,8 °C -2,7 °C 12,9 km/h (3 Bft)
17.01.2018 06:03 0,2 °C 93 % 997,9 hPa 0,0 mm 6,0 km/h (2 Bft) S 189 ° 0 min 0,000 mm 0,0 UV-I 0 W/m² -0,8 °C -1,8 °C 9,7 km/h (2 Bft)
17.01.2018 06:04 0,2 °C 93 % 998,0 hPa 0,0 mm 7,9 km/h (2 Bft) SW 217 ° 0 min 0,000 mm 0,0 UV-I 0 W/m² -0,8 °C -2,5 °C 11,3 km/h (2 Bft)
17.01.2018 06:05 0,2 °C 93 % 998,0 hPa 0,0 mm 8,9 km/h (2 Bft) W-SW 241 ° 0 min 0,000 mm 0,0 UV-I 0 W/m² -0,8 °C -2,8 °C 12,9 km/h (3 Bft)
17.01.2018 06:06 0,2 °C 93 % 998,1 hPa 0,0 mm 7,2 km/h (2 Bft) W-SW 258 ° 0 min 0,000 mm 0,0 UV-I 0 W/m² -0,8 °C -2,2 °C 11,3 km/h (2 Bft)
17.01.2018 06:07 0,2 °C 94 % 998,1 hPa 0,0 mm 12,9 km/h (3 Bft) W-SW 252 ° 0 min 0,000 mm 0,0 UV-I 0 W/m² -0,6 °C -3,8 °C 16,1 km/h (3 Bft)
17.01.2018 06:08 0,2 °C 94 % 998,0 hPa 0,0 mm 10,4 km/h (2 Bft) S 178 ° 0 min 0,000 mm 0,0 UV-I 0 W/m² -0,6 °C -3,2 °C 14,5 km/h (3 Bft)
17.01.2018 06:09 0,2 °C 94 % 998,0 hPa 0,0 mm 7,2 km/h (2 Bft) W 265 ° 0 min 0,000 mm 0,0 UV-I 0 W/m² -0,6 °C -2,2 °C 12,9 km/h (3 Bft)
17.01.2018 06:10 0,2 °C 94 % 998,0 hPa 0,0 mm 6,1 km/h (2 Bft) W 277 ° 0 min 0,000 mm 0,0 UV-I 0 W/m² -0,6 °C -1,8 °C 9,7 km/h (2 Bft)
17.01.2018 06:11 0,2 °C 93 % 998,0 hPa 0,0 mm 7,6 km/h (2 Bft) W-SW 243 ° 0 min 0,000 mm 0,0 UV-I 0 W/m² -0,8 °C -2,4 °C 12,9 km/h (3 Bft)
17.01.2018 06:12 0,2 °C 94 % 998,0 hPa 0,0 mm 8,5 km/h (2 Bft) W 262 ° 0 min 0,000 mm 0,0 UV-I 0 W/m² -0,6 °C -2,7 °C 12,9 km/h (3 Bft)
17.01.2018 06:13 0,2 °C 94 % 997,8 hPa 0,0 mm 10,3 km/h (2 Bft) W-SW 253 ° 0 min 0,000 mm 0,0 UV-I 0 W/m² -0,6 °C -3,2 °C 14,5 km/h (3 Bft)
17.01.2018 06:14 0,2 °C 94 % 997,9 hPa 0,0 mm 6,8 km/h (2 Bft) W-SW 256 ° 0 min 0,000 mm 0,0 UV-I 0 W/m² -0,6 °C -2,1 °C 11,3 km/h (2 Bft)
17.01.2018 06:15 0,2 °C 94 % 998,0 hPa 0,0 mm 10,4 km/h (2 Bft) W-SW 244 ° 0 min 0,000 mm 0,0 UV-I 0 W/m² -0,6 °C -3,2 °C 12,9 km/h (3 Bft)
17.01.2018 06:16 0,2 °C 93 % 998,0 hPa 0,0 mm 9,3 km/h (2 Bft) W 281 ° 0 min 0,000 mm 0,0 UV-I 0 W/m² -0,8 °C -2,9 °C 14,5 km/h (3 Bft)
17.01.2018 06:17 0,2 °C 93 % 997,9 hPa 0,0 mm 7,2 km/h (2 Bft) W 273 ° 0 min 0,000 mm 0,0 UV-I 0 W/m² -0,8 °C -2,2 °C 12,9 km/h (3 Bft)
17.01.2018 06:18 0,2 °C 93 % 997,9 hPa 0,0 mm 5,9 km/h (2 Bft) W-NW 282 ° 0 min 0,000 mm 0,0 UV-I 0 W/m² -0,8 °C -1,8 °C 11,3 km/h (2 Bft)
17.01.2018 06:19 0,2 °C 93 % 998,0 hPa 0,0 mm 7,0 km/h (2 Bft) W-NW 286 ° 0 min 0,000 mm 0,0 UV-I 0 W/m² -0,8 °C -2,2 °C 11,3 km/h (2 Bft)
17.01.2018 06:20 0,2 °C 93 % 997,9 hPa 0,0 mm 9,1 km/h (2 Bft) W 271 ° 0 min 0,000 mm 0,0 UV-I 0 W/m² -0,8 °C -2,8 °C 12,9 km/h (3 Bft)
17.01.2018 06:21 0,2 °C 93 % 998,0 hPa 0,0 mm 10,6 km/h (2 Bft) W-NW 297 ° 0 min 0,000 mm 0,0 UV-I 0 W/m² -0,8 °C -3,2 °C 16,1 km/h (3 Bft)
17.01.2018 06:22 0,2 °C 93 % 998,1 hPa 0,0 mm 7,6 km/h (2 Bft) NW 313 ° 0 min 0,000 mm 0,0 UV-I 0 W/m² -0,8 °C -2,4 °C 12,9 km/h (3 Bft)
17.01.2018 06:23 0,2 °C 93 % 998,1 hPa 0,0 mm 7,7 km/h (2 Bft) W-NW 284 ° 0 min 0,000 mm 0,0 UV-I 0 W/m² -0,8 °C -2,4 °C 12,9 km/h (3 Bft)
17.01.2018 06:24 0,2 °C 93 % 998,0 hPa 0,0 mm 6,7 km/h (2 Bft) W 274 ° 0 min 0,000 mm 0,0 UV-I 0 W/m² -0,8 °C -2,1 °C 9,7 km/h (2 Bft)
17.01.2018 06:25 0,2 °C 93 % 998,1 hPa 0,0 mm 5,5 km/h (1 Bft) W-NW 294 ° 0 min 0,000 mm 0,0 UV-I 0 W/m² -0,8 °C -1,6 °C 6,4 km/h (2 Bft)
17.01.2018 06:26 0,2 °C 93 % 998,1 hPa 0,0 mm 5,2 km/h (1 Bft) W 275 ° 0 min 0,000 mm 0,0 UV-I 0 W/m² -0,8 °C -1,5 °C 6,4 km/h (2 Bft)
17.01.2018 06:27 0,2 °C 93 % 998,2 hPa 0,0 mm 4,8 km/h (1 Bft) W-NW 286 ° 0 min 0,000 mm 0,0 UV-I 0 W/m² -0,8 °C -1,3 °C 6,4 km/h (2 Bft)
17.01.2018 06:28 0,2 °C 93 % 998,4 hPa 0,0 mm 4,0 km/h (1 Bft) W-NW 299 ° 0 min 0,000 mm 0,0 UV-I 0 W/m² -0,8 °C 0,2 °C 6,4 km/h (2 Bft)
17.01.2018 06:29 0,2 °C 93 % 998,4 hPa 0,0 mm 5,9 km/h (2 Bft) W-NW 287 ° 0 min 0,000 mm 0,0 UV-I 0 W/m² -0,8 °C -1,8 °C 9,7 km/h (2 Bft)
17.01.2018 06:30 0,2 °C 93 % 998,6 hPa 0,0 mm 9,5 km/h (2 Bft) W 267 ° 0 min 0,000 mm 0,0 UV-I 0 W/m² -0,8 °C -2,9 °C 14,5 km/h (3 Bft)
17.01.2018 06:31 0,2 °C 93 % 998,7 hPa 0,0 mm 5,0 km/h (1 Bft) W-NW 285 ° 0 min 0,000 mm 0,0 UV-I 0 W/m² -0,8 °C -1,4 °C 8,0 km/h (2 Bft)
17.01.2018 06:32 0,2 °C 93 % 998,7 hPa 0,0 mm 5,5 km/h (1 Bft) W-SW 250 ° 0 min 0,000 mm 0,0 UV-I 0 W/m² -0,8 °C -1,6 °C 9,7 km/h (2 Bft)
17.01.2018 06:33 0,2 °C 93 % 998,7 hPa 0,0 mm 4,5 km/h (1 Bft) W-NW 290 ° 0 min 0,000 mm 0,0 UV-I 0 W/m² -0,8 °C 0,2 °C 6,4 km/h (2 Bft)
17.01.2018 06:34 0,2 °C 93 % 998,7 hPa 0,0 mm 6,6 km/h (2 Bft) W-NW 284 ° 0 min 0,000 mm 0,0 UV-I 0 W/m² -0,8 °C -2,0 °C 11,3 km/h (2 Bft)
17.01.2018 06:35 0,2 °C 93 % 998,7 hPa 0,0 mm 8,5 km/h (2 Bft) W 265 ° 0 min 0,000 mm 0,0 UV-I 0 W/m² -0,8 °C -2,7 °C 14,5 km/h (3 Bft)
17.01.2018 06:36 0,2 °C 93 % 998,8 hPa 0,0 mm 6,0 km/h (2 Bft) W-SW 252 ° 0 min 0,000 mm 0,0 UV-I 0 W/m² -0,8 °C -1,8 °C 8,0 km/h (2 Bft)
17.01.2018 06:37 0,2 °C 93 % 999,0 hPa 0,0 mm 9,5 km/h (2 Bft) W-SW 258 ° 0 min 0,000 mm 0,0 UV-I 0 W/m² -0,8 °C -2,9 °C 12,9 km/h (3 Bft)
17.01.2018 06:38 0,2 °C 93 % 999,0 hPa 0,0 mm 8,2 km/h (2 Bft) W 260 ° 0 min 0,000 mm 0,0 UV-I 0 W/m² -0,8 °C -2,6 °C 12,9 km/h (3 Bft)
17.01.2018 06:39 0,2 °C 93 % 998,9 hPa 0,0 mm 11,3 km/h (2 Bft) W-SW 253 ° 0 min 0,000 mm 0,0 UV-I 0 W/m² -0,8 °C -3,4 °C 17,7 km/h (3 Bft)
17.01.2018 06:40 0,2 °C 93 % 999,1 hPa 0,0 mm 13,1 km/h (3 Bft) SW 223 ° 0 min 0,000 mm 0,0 UV-I 0 W/m² -0,8 °C -3,8 °C 19,3 km/h (3 Bft)
17.01.2018 06:41 0,2 °C 93 % 998,9 hPa 0,0 mm 7,3 km/h (2 Bft) W-NW 293 ° 0 min 0,000 mm 0,0 UV-I 0 W/m² -0,8 °C -2,3 °C 11,3 km/h (2 Bft)
17.01.2018 06:42 0,2 °C 93 % 999,0 hPa 0,0 mm 10,7 km/h (2 Bft) W 263 ° 0 min 0,000 mm 0,0 UV-I 0 W/m² -0,8 °C -3,3 °C 14,5 km/h (3 Bft)
17.01.2018 06:43 0,2 °C 93 % 999,0 hPa 0,0 mm 8,3 km/h (2 Bft) W 265 ° 0 min 0,000 mm 0,0 UV-I 0 W/m² -0,8 °C -2,6 °C 11,3 km/h (2 Bft)
17.01.2018 06:44 0,2 °C 93 % 999,1 hPa 0,0 mm 11,1 km/h (2 Bft) W 261 ° 0 min 0,000 mm 0,0 UV-I 0 W/m² -0,8 °C -3,4 °C 14,5 km/h (3 Bft)
17.01.2018 06:45 0,2 °C 93 % 999,0 hPa 0,0 mm 9,0 km/h (2 Bft) W-SW 257 ° 0 min 0,000 mm 0,0 UV-I 0 W/m² -0,8 °C -2,8 °C 12,9 km/h (3 Bft)
17.01.2018 06:46 0,2 °C 93 % 999,1 hPa 0,0 mm 8,8 km/h (2 Bft) W 262 ° 0 min 0,000 mm 0,0 UV-I 0 W/m² -0,8 °C -2,7 °C 11,3 km/h (2 Bft)
17.01.2018 06:47 0,2 °C 93 % 999,1 hPa 0,0 mm 7,1 km/h (2 Bft) SW 230 ° 0 min 0,000 mm 0,0 UV-I 0 W/m² -0,8 °C -2,2 °C 11,3 km/h (2 Bft)
17.01.2018 06:48 0,2 °C 93 % 998,9 hPa 0,0 mm 6,4 km/h (2 Bft) W 267 ° 0 min 0,000 mm 0,0 UV-I 0 W/m² -0,8 °C -2,0 °C 9,7 km/h (2 Bft)
17.01.2018 06:49 0,2 °C 93 % 999,1 hPa 0,0 mm 5,6 km/h (1 Bft) NW 315 ° 0 min 0,000 mm 0,0 UV-I 0 W/m² -0,8 °C -1,6 °C 9,7 km/h (2 Bft)
17.01.2018 06:50 0,2 °C 93 % 999,0 hPa 0,0 mm 13,1 km/h (3 Bft) W-SW 257 ° 0 min 0,000 mm 0,0 UV-I 0 W/m² -0,8 °C -3,8 °C 22,5 km/h (4 Bft)
17.01.2018 06:51 0,2 °C 93 % 999,2 hPa 0,0 mm 14,4 km/h (3 Bft) W 273 ° 0 min 0,000 mm 0,0 UV-I 0 W/m² -0,8 °C -4,1 °C 20,9 km/h (4 Bft)
17.01.2018 06:52 0,2 °C 93 % 999,2 hPa 0,0 mm 9,4 km/h (2 Bft) W 261 ° 0 min 0,000 mm 0,0 UV-I 0 W/m² -0,8 °C -2,9 °C 14,5 km/h (3 Bft)
17.01.2018 06:53 0,2 °C 93 % 999,2 hPa 0,0 mm 7,5 km/h (2 Bft) W-NW 284 ° 0 min 0,000 mm 0,0 UV-I 0 W/m² -0,8 °C -2,3 °C 14,5 km/h (3 Bft)
17.01.2018 06:54 0,2 °C 93 % 999,1 hPa 0,0 mm 7,6 km/h (2 Bft) W-SW 258 ° 0 min 0,000 mm 0,0 UV-I 0 W/m² -0,8 °C -2,4 °C 14,5 km/h (3 Bft)
17.01.2018 06:55 0,2 °C 93 % 999,1 hPa 0,0 mm 11,5 km/h (2 Bft) W 259 ° 0 min 0,000 mm 0,0 UV-I 0 W/m² -0,8 °C -3,4 °C 14,5 km/h (3 Bft)
17.01.2018 06:56 0,2 °C 93 % 999,1 hPa 0,0 mm 7,3 km/h (2 Bft) W-SW 257 ° 0 min 0,000 mm 0,0 UV-I 0 W/m² -0,8 °C -2,3 °C 12,9 km/h (3 Bft)
17.01.2018 06:57 0,2 °C 93 % 999,1 hPa 0,0 mm 8,4 km/h (2 Bft) W-SW 258 ° 0 min 0,000 mm 0,0 UV-I 0 W/m² -0,8 °C -2,6 °C 14,5 km/h (3 Bft)
17.01.2018 06:58 0,2 °C 93 % 999,1 hPa 0,0 mm 11,6 km/h (2 Bft) SW 236 ° 0 min 0,000 mm 0,0 UV-I 0 W/m² -0,8 °C -3,5 °C 14,5 km/h (3 Bft)
17.01.2018 06:59 0,1 °C 93 % 999,1 hPa 0,0 mm 18,5 km/h (3 Bft) W 263 ° 0 min 0,000 mm 0,0 UV-I 0 W/m² -0,9 °C -4,9 °C 30,6 km/h (5 Bft)
17.01.2018 07:00 0,2 °C 93 % 999,1 hPa 0,0 mm 10,7 km/h (2 Bft) W 276 ° 0 min 0,000 mm 0,0 UV-I 0 W/m² -0,8 °C -3,3 °C 16,1 km/h (3 Bft)
17.01.2018 07:01 0,2 °C 93 % 999,2 hPa 0,0 mm 13,8 km/h (3 Bft) SW 221 ° 0 min 0,000 mm 0,0 UV-I 0 W/m² -0,8 °C -3,9 °C 22,5 km/h (4 Bft)
17.01.2018 07:02 0,1 °C 93 % 999,2 hPa 0,0 mm 8,2 km/h (2 Bft) W 266 ° 0 min 0,000 mm 0,0 UV-I 0 W/m² -0,9 °C -2,7 °C 12,9 km/h (3 Bft)
17.01.2018 07:03 0,2 °C 93 % 999,2 hPa 0,0 mm 8,9 km/h (2 Bft) W 281 ° 0 min 0,000 mm 0,0 UV-I 0 W/m² -0,8 °C -2,8 °C 22,5 km/h (4 Bft)
17.01.2018 07:04 0,1 °C 93 % 999,2 hPa 0,0 mm 17,2 km/h (3 Bft) NW 307 ° 0 min 0,000 mm 0,0 UV-I 0 W/m² -0,9 °C -4,7 °C 24,1 km/h (4 Bft)
17.01.2018 07:05 0,1 °C 93 % 999,1 hPa 0,0 mm 20,5 km/h (4 Bft) SW 229 ° 0 min 0,000 mm 0,0 UV-I 0 W/m² -0,9 °C -5,2 °C 29,0 km/h (5 Bft)
17.01.2018 07:06 0,1 °C 93 % 999,2 hPa 0,0 mm 13,6 km/h (3 Bft) W 265 ° 0 min 0,000 mm 0,0 UV-I 0 W/m² -0,9 °C -4,0 °C 17,7 km/h (3 Bft)
17.01.2018 07:07 0,1 °C 93 % 999,3 hPa 0,0 mm 10,9 km/h (2 Bft) W 259 ° 0 min 0,000 mm 0,0 UV-I 0 W/m² -0,9 °C -3,4 °C 19,3 km/h (3 Bft)
17.01.2018 07:08 0,1 °C 93 % 999,3 hPa 0,0 mm 11,1 km/h (2 Bft) W 260 ° 0 min 0,000 mm 0,0 UV-I 0 W/m² -0,9 °C -3,5 °C 17,7 km/h (3 Bft)
17.01.2018 07:09 0,1 °C 93 % 999,3 hPa 0,0 mm 10,5 km/h (2 Bft) W-SW 241 ° 0 min 0,000 mm 0,0 UV-I 0 W/m² -0,9 °C -3,3 °C 19,3 km/h (3 Bft)
17.01.2018 07:10 0,1 °C 93 % 999,2 hPa 0,0 mm 12,1 km/h (2 Bft) W-SW 256 ° 0 min 0,000 mm 0,0 UV-I 0 W/m² -0,9 °C -3,7 °C 24,1 km/h (4 Bft)
17.01.2018 07:11 0,1 °C 93 % 999,3 hPa 0,0 mm 10,8 km/h (2 Bft) W 263 ° 0 min 0,000 mm 0,0 UV-I 0 W/m² -0,9 °C -3,4 °C 19,3 km/h (3 Bft)
17.01.2018 07:12 0,1 °C 93 % 999,3 hPa 0,0 mm 17,4 km/h (3 Bft) W-SW 255 ° 0 min 0,000 mm 0,0 UV-I 0 W/m² -0,9 °C -4,7 °C 25,7 km/h (4 Bft)
17.01.2018 07:13 0,1 °C 93 % 999,2 hPa 0,0 mm 12,2 km/h (2 Bft) W 269 ° 0 min 0,000 mm 0,0 UV-I 0 W/m² -0,9 °C -3,7 °C 20,9 km/h (4 Bft)
17.01.2018 07:14 0,1 °C 93 % 999,2 hPa 0,0 mm 17,0 km/h (3 Bft) W 261 ° 0 min 0,000 mm 0,0 UV-I 0 W/m² -0,9 °C -4,6 °C 29,0 km/h (5 Bft)
17.01.2018 07:15 0,1 °C 93 % 999,4 hPa 0,0 mm 11,9 km/h (2 Bft) W 263 ° 0 min 0,000 mm 0,0 UV-I 0 W/m² -0,9 °C -3,7 °C 19,3 km/h (3 Bft)
17.01.2018 07:16 0,1 °C 93 % 999,3 hPa 0,0 mm 13,3 km/h (3 Bft) W-SW 252 ° 0 min 0,000 mm 0,0 UV-I 0 W/m² -0,9 °C -4,0 °C 19,3 km/h (3 Bft)
17.01.2018 07:17 0,1 °C 93 % 999,4 hPa 0,0 mm 11,7 km/h (2 Bft) W-SW 247 ° 0 min 0,000 mm 0,0 UV-I 0 W/m² -0,9 °C -3,6 °C 16,1 km/h (3 Bft)
17.01.2018 07:18 0,1 °C 93 % 999,4 hPa 0,0 mm 11,1 km/h (2 Bft) W 262 ° 0 min 0,000 mm 0,0 UV-I 0 W/m² -0,9 °C -3,5 °C 19,3 km/h (3 Bft)
17.01.2018 07:19 0,0 °C 93 % 999,3 hPa 0,0 mm 13,3 km/h (3 Bft) W-NW 283 ° 0 min 0,000 mm 0,0 UV-I 0 W/m² -1,0 °C -4,1 °C 20,9 km/h (4 Bft)
17.01.2018 07:20 0,1 °C 93 % 999,3 hPa 0,0 mm 12,7 km/h (3 Bft) W-SW 252 ° 0 min 0,000 mm 0,0 UV-I 0 W/m² -0,9 °C -3,8 °C 16,1 km/h (3 Bft)
17.01.2018 07:21 0,0 °C 93 % 999,2 hPa 0,0 mm 10,1 km/h (2 Bft) W-NW 303 ° 0 min 0,000 mm 0,0 UV-I 0 W/m² -1,0 °C -3,3 °C 16,1 km/h (3 Bft)
17.01.2018 07:22 0,0 °C 93 % 999,2 hPa 0,0 mm 12,7 km/h (3 Bft) W 279 ° 0 min 0,000 mm 0,0 UV-I 0 W/m² -1,0 °C -4,0 °C 19,3 km/h (3 Bft)
17.01.2018 07:23 0,0 °C 93 % 999,2 hPa 0,0 mm 14,5 km/h (3 Bft) W 264 ° 0 min 0,000 mm 0,0 UV-I 0 W/m² -1,0 °C -4,3 °C 17,7 km/h (3 Bft)
17.01.2018 07:24 0,0 °C 93 % 999,2 hPa 0,0 mm 14,2 km/h (3 Bft) W 274 ° 0 min 0,000 mm 0,0 UV-I 0 W/m² -1,0 °C -4,3 °C 17,7 km/h (3 Bft)
17.01.2018 07:25 0,0 °C 93 % 999,2 hPa 0,0 mm 9,6 km/h (2 Bft) W-SW 242 ° 0 min 0,000 mm 0,0 UV-I 0 W/m² -1,0 °C -3,2 °C 14,5 km/h (3 Bft)
17.01.2018 07:26 -0,1 °C 93 % 999,2 hPa 0,0 mm 8,3 km/h (2 Bft) W 272 ° 0 min 0,000 mm 0,0 UV-I 0 W/m² -1,1 °C -2,9 °C 14,5 km/h (3 Bft)
17.01.2018 07:27 0,0 °C 93 % 999,2 hPa 0,0 mm 14,1 km/h (3 Bft) W 278 ° 0 min 0,000 mm 0,0 UV-I 0 W/m² -1,0 °C -4,2 °C 19,3 km/h (3 Bft)
17.01.2018 07:28 -0,1 °C 93 % 999,2 hPa 0,0 mm 12,0 km/h (2 Bft) SW 227 ° 0 min 0,000 mm 0,0 UV-I 0 W/m² -1,1 °C -3,9 °C 17,7 km/h (3 Bft)
17.01.2018 07:29 -0,1 °C 93 % 999,4 hPa 0,0 mm 11,4 km/h (2 Bft) W 275 ° 0 min 0,000 mm 0,0 UV-I 0 W/m² -1,1 °C -3,8 °C 17,7 km/h (3 Bft)
17.01.2018 07:30 -0,1 °C 93 % 999,3 hPa 0,0 mm 16,9 km/h (3 Bft) W-SW 250 ° 0 min 0,000 mm 0,0 UV-I 0 W/m² -1,1 °C -4,9 °C 33,8 km/h (5 Bft)
17.01.2018 07:31 -0,1 °C 93 % 999,2 hPa 0,0 mm 16,9 km/h (3 Bft) W 267 ° 0 min 0,000 mm 0,0 UV-I 0 W/m² -1,1 °C -4,9 °C 22,5 km/h (4 Bft)
17.01.2018 07:32 0,0 °C 93 % 999,4 hPa 0,0 mm 15,4 km/h (3 Bft) W 261 ° 0 min 0,000 mm 0,0 UV-I 0 W/m² -1,0 °C -4,5 °C 22,5 km/h (4 Bft)
17.01.2018 07:33 0,0 °C 93 % 999,4 hPa 0,0 mm 11,5 km/h (2 Bft) SW 230 ° 0 min 0,000 mm 0,0 UV-I 0 W/m² -1,0 °C -3,7 °C 16,1 km/h (3 Bft)
17.01.2018 07:34 -0,1 °C 93 % 999,4 hPa 0,0 mm 11,2 km/h (2 Bft) W 261 ° 0 min 0,000 mm 0,0 UV-I 0 W/m² -1,1 °C -3,7 °C 17,7 km/h (3 Bft)
17.01.2018 07:35 -0,1 °C 93 % 999,4 hPa 0,0 mm 10,8 km/h (2 Bft) W 264 ° 0 min 0,000 mm 0,0 UV-I 0 W/m² -1,1 °C -3,6 °C 19,3 km/h (3 Bft)
17.01.2018 07:36 0,0 °C 93 % 999,4 hPa 0,0 mm 11,1 km/h (2 Bft) W 259 ° 0 min 0,000 mm 0,0 UV-I 0 W/m² -1,0 °C -3,6 °C 17,7 km/h (3 Bft)
17.01.2018 07:37 0,0 °C 93 % 999,4 hPa 0,0 mm 15,1 km/h (3 Bft) W 270 ° 0 min 0,000 mm 0,0 UV-I 0 W/m² -1,0 °C -4,4 °C 19,3 km/h (3 Bft)
17.01.2018 07:38 0,0 °C 93 % 999,4 hPa 0,0 mm 12,4 km/h (3 Bft) SW 236 ° 0 min 0,000 mm 0,0 UV-I 0 W/m² -1,0 °C -3,9 °C 20,9 km/h (4 Bft)
17.01.2018 07:39 0,0 °C 93 % 999,5 hPa 0,0 mm 9,9 km/h (2 Bft) W 271 ° 0 min 0,000 mm 0,0 UV-I 0 W/m² -1,0 °C -3,3 °C 25,7 km/h (4 Bft)
17.01.2018 07:40 0,0 °C 93 % 999,4 hPa 0,0 mm 21,8 km/h (4 Bft) W 267 ° 0 min 0,000 mm 0,0 UV-I 0 W/m² -1,0 °C -5,5 °C 32,2 km/h (5 Bft)
17.01.2018 07:41 0,0 °C 93 % 999,3 hPa 0,0 mm 16,4 km/h (3 Bft) W 263 ° 0 min 0,000 mm 0,0 UV-I 0 W/m² -1,0 °C -4,7 °C 24,1 km/h (4 Bft)
17.01.2018 07:42 0,0 °C 93 % 999,3 hPa 0,0 mm 7,6 km/h (2 Bft) W 270 ° 0 min 0,000 mm 0,0 UV-I 0 W/m² -1,0 °C -2,6 °C 16,1 km/h (3 Bft)
17.01.2018 07:43 0,0 °C 93 % 999,2 hPa 0,0 mm 13,7 km/h (3 Bft) W-SW 242 ° 0 min 0,000 mm 0,0 UV-I 0 W/m² -1,0 °C -4,2 °C 29,0 km/h (5 Bft)
17.01.2018 07:44 0,0 °C 93 % 999,3 hPa 0,0 mm 17,0 km/h (3 Bft) W 280 ° 0 min 0,000 mm 0,0 UV-I 0 W/m² -1,0 °C -4,8 °C 25,7 km/h (4 Bft)
17.01.2018 07:45 0,0 °C 93 % 999,3 hPa 0,0 mm 15,1 km/h (3 Bft) W-NW 286 ° 0 min 0,000 mm 0,0 UV-I 0 W/m² -1,0 °C -4,4 °C 19,3 km/h (3 Bft)
17.01.2018 07:46 0,0 °C 93 % 999,2 hPa 0,0 mm 9,5 km/h (2 Bft) W-SW 252 ° 0 min 0,000 mm 0,0 UV-I 0 W/m² -1,0 °C -3,2 °C 14,5 km/h (3 Bft)
17.01.2018 07:47 0,0 °C 93 % 999,3 hPa 0,0 mm 8,1 km/h (2 Bft) W 279 ° 0 min 0,000 mm 0,0 UV-I 0 W/m² -1,0 °C -2,8 °C 12,9 km/h (3 Bft)
17.01.2018 07:48 -0,1 °C 93 % 999,3 hPa 0,0 mm 14,5 km/h (3 Bft) W-NW 288 ° 0 min 0,000 mm 0,0 UV-I 0 W/m² -1,1 °C -4,4 °C 17,7 km/h (3 Bft)
17.01.2018 07:49 0,0 °C 93 % 999,3 hPa 0,0 mm 16,0 km/h (3 Bft) NW 315 ° 0 min 0,000 mm 0,0 UV-I 0 W/m² -1,0 °C -4,6 °C 25,7 km/h (4 Bft)
17.01.2018 07:50 0,0 °C 93 % 999,3 hPa 0,0 mm 17,4 km/h (3 Bft) W 260 ° 0 min 0,000 mm 0,0 UV-I 0 W/m² -1,0 °C -4,8 °C 30,6 km/h (5 Bft)
17.01.2018 07:51 0,0 °C 93 % 999,4 hPa 0,0 mm 18,6 km/h (3 Bft) W-SW 242 ° 0 min 0,000 mm 0,0 UV-I 0 W/m² -1,0 °C -5,0 °C 27,4 km/h (4 Bft)
17.01.2018 07:52 0,0 °C 93 % 999,3 hPa 0,0 mm 14,6 km/h (3 Bft) W-SW 242 ° 0 min 0,000 mm 0,0 UV-I 0 W/m² -1,0 °C -4,3 °C 20,9 km/h (4 Bft)
17.01.2018 07:53 0,0 °C 93 % 999,3 hPa 0,0 mm 11,9 km/h (2 Bft) W-SW 254 ° 0 min 0,000 mm 0,0 UV-I 0 W/m² -1,0 °C -3,8 °C 16,1 km/h (3 Bft)
17.01.2018 07:54 0,0 °C 93 % 999,4 hPa 0,0 mm 14,8 km/h (3 Bft) W 265 ° 0 min 0,000 mm 0,0 UV-I 0 W/m² -1,0 °C -4,4 °C 25,7 km/h (4 Bft)
17.01.2018 07:55 0,0 °C 93 % 999,4 hPa 0,0 mm 21,5 km/h (4 Bft) S-SO 167 ° 0 min 0,000 mm 0,0 UV-I 0 W/m² -1,0 °C -5,5 °C 29,0 km/h (5 Bft)
17.01.2018 07:56 -0,1 °C 93 % 999,4 hPa 0,0 mm 17,0 km/h (3 Bft) W 259 ° 0 min 0,000 mm 0,0 UV-I 0 W/m² -1,1 °C -4,9 °C 32,2 km/h (5 Bft)
17.01.2018 07:57 -0,1 °C 93 % 999,4 hPa 0,0 mm 15,0 km/h (3 Bft) W-SW 245 ° 0 min 0,000 mm 0,0 UV-I 0 W/m² -1,1 °C -4,5 °C 25,7 km/h (4 Bft)
17.01.2018 07:58 0,0 °C 93 % 999,4 hPa 0,0 mm 23,3 km/h (4 Bft) W 260 ° 0 min 0,000 mm 0,0 UV-I 0 W/m² -1,0 °C -5,7 °C 37,0 km/h (5 Bft)
17.01.2018 07:59 -0,1 °C 93 % 999,4 hPa 0,0 mm 22,2 km/h (4 Bft) NW 314 ° 0 min 0,000 mm 0,0 UV-I 0 W/m² -1,1 °C -5,7 °C 32,2 km/h (5 Bft)
17.01.2018 08:00 -0,1 °C 93 % 999,4 hPa 0,0 mm 14,5 km/h (3 Bft) W-NW 290 ° 0 min 0,000 mm 0,0 UV-I 0 W/m² -1,1 °C -4,4 °C 20,9 km/h (4 Bft)
17.01.2018 08:01 -0,1 °C 92 % 999,4 hPa 0,0 mm 15,0 km/h (3 Bft) S-SW 209 ° 0 min 0,000 mm 0,0 UV-I 0 W/m² -1,2 °C -4,5 °C 20,9 km/h (4 Bft)
17.01.2018 08:02 -0,1 °C 92 % 999,5 hPa 0,0 mm 8,2 km/h (2 Bft) SW 226 ° 0 min 0,000 mm 0,0 UV-I 0 W/m² -1,2 °C -2,9 °C 17,7 km/h (3 Bft)
17.01.2018 08:03 -0,1 °C 92 % 999,6 hPa 0,0 mm 16,2 km/h (3 Bft) NW 307 ° 0 min 0,000 mm 0,0 UV-I 0 W/m² -1,2 °C -4,8 °C 22,5 km/h (4 Bft)
17.01.2018 08:04 -0,1 °C 92 % 999,4 hPa 0,0 mm 16,0 km/h (3 Bft) W-NW 299 ° 0 min 0,000 mm 0,0 UV-I 0 W/m² -1,2 °C -4,7 °C 24,1 km/h (4 Bft)
17.01.2018 08:05 -0,1 °C 92 % 999,5 hPa 0,0 mm 16,6 km/h (3 Bft) W 261 ° 0 min 0,000 mm 0,0 UV-I 0 W/m² -1,2 °C -4,8 °C 27,4 km/h (4 Bft)
17.01.2018 08:06 -0,1 °C 92 % 999,6 hPa 0,0 mm 22,9 km/h (4 Bft) W 271 ° 0 min 0,000 mm 0,0 UV-I 0 W/m² -1,2 °C -5,8 °C 33,8 km/h (5 Bft)
17.01.2018 08:07 -0,1 °C 92 % 999,6 hPa 0,0 mm 22,0 km/h (4 Bft) W-SW 257 ° 0 min 0,000 mm 0,0 UV-I 0 W/m² -1,2 °C -5,7 °C 32,2 km/h (5 Bft)
17.01.2018 08:08 -0,1 °C 92 % 999,6 hPa 0,0 mm 25,1 km/h (4 Bft) W 278 ° 0 min 0,000 mm 0,0 UV-I 0 W/m² -1,2 °C -6,1 °C 35,4 km/h (5 Bft)
17.01.2018 08:09 -0,1 °C 92 % 999,6 hPa 0,0 mm 16,8 km/h (3 Bft) W 265 ° 0 min 0,000 mm 0,0 UV-I 0 W/m² -1,2 °C -4,9 °C 25,7 km/h (4 Bft)
17.01.2018 08:10 -0,1 °C 92 % 999,6 hPa 0,0 mm 22,5 km/h (4 Bft) W-SW 246 ° 0 min 0,000 mm 0,0 UV-I 0 W/m² -1,2 °C -5,7 °C 35,4 km/h (5 Bft)
17.01.2018 08:11 -0,1 °C 92 % 999,5 hPa 0,0 mm 17,2 km/h (3 Bft) SW 223 ° 0 min 0,000 mm 0,0 UV-I 0 W/m² -1,2 °C -4,9 °C 22,5 km/h (4 Bft)
17.01.2018 08:12 -0,1 °C 92 % 999,6 hPa 0,0 mm 16,2 km/h (3 Bft) W 271 ° 0 min 0,000 mm 0,0 UV-I 0 W/m² -1,2 °C -4,8 °C 25,7 km/h (4 Bft)
17.01.2018 08:13 -0,1 °C 91 % 999,5 hPa 0,0 mm 17,4 km/h (3 Bft) W 271 ° 0 min 0,000 mm 0,0 UV-I 0 W/m² -1,4 °C -5,0 °C 27,4 km/h (4 Bft)
17.01.2018 08:14 -0,1 °C 91 % 999,5 hPa 0,0 mm 15,1 km/h (3 Bft) W-SW 246 ° 0 min 0,000 mm 0,0 UV-I 0 W/m² -1,4 °C -4,6 °C 20,9 km/h (4 Bft)
17.01.2018 08:15 -0,1 °C 91 % 999,7 hPa 0,0 mm 15,2 km/h (3 Bft) W 275 ° 0 min 0,000 mm 0,0 UV-I 0 W/m² -1,4 °C -4,6 °C 19,3 km/h (3 Bft)
17.01.2018 08:16 -0,1 °C 91 % 999,7 hPa 0,0 mm 11,8 km/h (2 Bft) SW 219 ° 0 min 0,000 mm 0,0 UV-I 0 W/m² -1,4 °C -3,9 °C 22,5 km/h (4 Bft)
17.01.2018 08:17 -0,1 °C 91 % 999,7 hPa 0,0 mm 10,6 km/h (2 Bft) W 261 ° 0 min 0,000 mm 0,0 UV-I 0 W/m² -1,4 °C -3,6 °C 17,7 km/h (3 Bft)
17.01.2018 08:18 -0,1 °C 91 % 999,7 hPa 0,0 mm 11,0 km/h (2 Bft) W-NW 288 ° 0 min 0,000 mm 0,0 UV-I 0 W/m² -1,4 °C -3,7 °C 16,1 km/h (3 Bft)
17.01.2018 08:19 -0,1 °C 91 % 999,8 hPa 0,0 mm 12,2 km/h (2 Bft) W 275 ° 0 min 0,000 mm 0,0 UV-I 0 W/m² -1,4 °C -4,0 °C 16,1 km/h (3 Bft)
17.01.2018 08:20 -0,1 °C 91 % 999,8 hPa 0,0 mm 12,9 km/h (3 Bft) W-SW 252 ° 0 min 0,000 mm 0,0 UV-I 0 W/m² -1,4 °C -4,1 °C 20,9 km/h (4 Bft)
17.01.2018 08:21 -0,1 °C 91 % 999,8 hPa 0,0 mm 19,5 km/h (3 Bft) W 281 ° 0 min 0,000 mm 0,0 UV-I 0 W/m² -1,4 °C -5,3 °C 25,7 km/h (4 Bft)
17.01.2018 08:22 -0,1 °C 91 % 1000,0 hPa 0,0 mm 21,7 km/h (4 Bft) W 265 ° 0 min 0,000 mm 0,0 UV-I 0 W/m² -1,4 °C -5,6 °C 30,6 km/h (5 Bft)
17.01.2018 08:23 -0,1 °C 91 % 1000,0 hPa 0,0 mm 21,3 km/h (4 Bft) W 276 ° 0 min 0,000 mm 0,0 UV-I 0 W/m² -1,4 °C -5,6 °C 27,4 km/h (4 Bft)
17.01.2018 08:24 -0,1 °C 91 % 999,9 hPa 0,0 mm 19,2 km/h (3 Bft) W-NW 286 ° 0 min 0,000 mm 0,0 UV-I 5 W/m² -1,4 °C -5,2 °C 25,7 km/h (4 Bft)
17.01.2018 08:25 -0,1 °C 91 % 999,9 hPa 0,0 mm 17,4 km/h (3 Bft) W-SW 249 ° 0 min 0,000 mm 0,0 UV-I 0 W/m² -1,4 °C -5,0 °C 22,5 km/h (4 Bft)
17.01.2018 08:26 -0,1 °C 91 % 1000,0 hPa 0,0 mm 15,6 km/h (3 Bft) W-NW 293 ° 0 min 0,000 mm 0,0 UV-I 0 W/m² -1,4 °C -4,7 °C 27,4 km/h (4 Bft)
17.01.2018 08:27 -0,1 °C 91 % 1000,1 hPa 0,0 mm 17,1 km/h (3 Bft) SW 234 ° 0 min 0,000 mm 0,0 UV-I 0 W/m² -1,4 °C -4,9 °C 20,9 km/h (4 Bft)
17.01.2018 08:28 -0,2 °C 91 % 1000,1 hPa 0,0 mm 19,3 km/h (3 Bft) W-NW 289 ° 0 min 0,000 mm 0,0 UV-I 0 W/m² -1,5 °C -5,4 °C 22,5 km/h (4 Bft)
17.01.2018 08:29 -0,2 °C 91 % 1000,1 hPa 0,0 mm 16,2 km/h (3 Bft) W-SW 238 ° 0 min 0,000 mm 0,0 UV-I 0 W/m² -1,5 °C -4,9 °C 24,1 km/h (4 Bft)
17.01.2018 08:30 -0,2 °C 91 % 1000,1 hPa 0,0 mm 18,0 km/h (3 Bft) W-NW 283 ° 0 min 0,000 mm 0,0 UV-I 0 W/m² -1,5 °C -5,2 °C 35,4 km/h (5 Bft)
17.01.2018 08:31 -0,2 °C 91 % 1000,0 hPa 0,0 mm 17,9 km/h (3 Bft) W-NW 288 ° 0 min 0,000 mm 0,0 UV-I 0 W/m² -1,5 °C -5,2 °C 24,1 km/h (4 Bft)
17.01.2018 08:32 -0,2 °C 91 % 1000,0 hPa 0,0 mm 14,6 km/h (3 Bft) W 278 ° 0 min 0,000 mm 0,0 UV-I 0 W/m² -1,5 °C -4,6 °C 22,5 km/h (4 Bft)
17.01.2018 08:33 -0,2 °C 91 % 999,9 hPa 0,0 mm 16,1 km/h (3 Bft) W 260 ° 0 min 0,000 mm 0,0 UV-I 0 W/m² -1,5 °C -4,9 °C 25,7 km/h (4 Bft)
17.01.2018 08:34 -0,2 °C 91 % 999,9 hPa 0,0 mm 15,4 km/h (3 Bft) W 262 ° 0 min 0,000 mm 0,0 UV-I 0 W/m² -1,5 °C -4,7 °C 20,9 km/h (4 Bft)
17.01.2018 08:35 -0,3 °C 91 % 999,9 hPa 0,0 mm 18,4 km/h (3 Bft) W-SW 249 ° 0 min 0,000 mm 0,0 UV-I 0 W/m² -1,6 °C -5,4 °C 25,7 km/h (4 Bft)
17.01.2018 08:36 -0,3 °C 91 % 999,9 hPa 0,0 mm 19,5 km/h (3 Bft) W-SW 257 ° 0 min 0,000 mm 0,0 UV-I 0 W/m² -1,6 °C -5,5 °C 29,0 km/h (5 Bft)
17.01.2018 08:37 -0,3 °C 91 % 1000,0 hPa 0,0 mm 20,0 km/h (4 Bft) W 269 ° 0 min 0,000 mm 0,0 UV-I 0 W/m² -1,6 °C -5,6 °C 29,0 km/h (5 Bft)
17.01.2018 08:38 -0,3 °C 91 % 1000,0 hPa 0,0 mm 14,9 km/h (3 Bft) W 267 ° 0 min 0,000 mm 0,0 UV-I 0 W/m² -1,6 °C -4,8 °C 25,7 km/h (4 Bft)
17.01.2018 08:39 -0,3 °C 91 % 1000,0 hPa 0,0 mm 14,0 km/h (3 Bft) W 263 ° 0 min 0,000 mm 0,0 UV-I 0 W/m² -1,6 °C -4,6 °C 20,9 km/h (4 Bft)
17.01.2018 08:40 -0,3 °C 91 % 999,9 hPa 0,0 mm 12,7 km/h (3 Bft) W 264 ° 0 min 0,000 mm 0,0 UV-I 0 W/m² -1,6 °C -4,3 °C 29,0 km/h (5 Bft)
17.01.2018 08:41 -0,3 °C 92 % 999,9 hPa 0,0 mm 16,6 km/h (3 Bft) W 263 ° 0 min 0,000 mm 0,0 UV-I 5 W/m² -1,4 °C -5,1 °C 25,7 km/h (4 Bft)
17.01.2018 08:42 -0,3 °C 92 % 999,9 hPa 0,0 mm 8,8 km/h (2 Bft) W-SW 253 ° 0 min 0,000 mm 0,0 UV-I 5 W/m² -1,4 °C -3,3 °C 12,9 km/h (3 Bft)
17.01.2018 08:43 -0,3 °C 92 % 1000,0 hPa 0,0 mm 11,4 km/h (2 Bft) N-NW 330 ° 0 min 0,000 mm 0,0 UV-I 5 W/m² -1,4 °C -4,0 °C 20,9 km/h (4 Bft)
17.01.2018 08:44 -0,3 °C 92 % 1000,0 hPa 0,0 mm 14,8 km/h (3 Bft) SW 236 ° 0 min 0,000 mm 0,0 UV-I 5 W/m² -1,4 °C -4,7 °C 25,7 km/h (4 Bft)
17.01.2018 08:45 -0,3 °C 92 % 1000,2 hPa 0,0 mm 11,8 km/h (2 Bft) W-SW 255 ° 0 min 0,000 mm 0,0 UV-I 5 W/m² -1,4 °C -4,1 °C 20,9 km/h (4 Bft)
17.01.2018 08:46 -0,3 °C 92 % 1000,2 hPa 0,0 mm 14,0 km/h (3 Bft) W-SW 257 ° 0 min 0,000 mm 0,0 UV-I 5 W/m² -1,4 °C -4,6 °C 17,7 km/h (3 Bft)
17.01.2018 08:47 -0,3 °C 92 % 1000,2 hPa 0,0 mm 10,7 km/h (2 Bft) SW 227 ° 0 min 0,000 mm 0,0 UV-I 5 W/m² -1,4 °C -3,9 °C 12,9 km/h (3 Bft)
17.01.2018 08:48 -0,3 °C 92 % 1000,2 hPa 0,0 mm 13,1 km/h (3 Bft) W-SW 252 ° 0 min 0,000 mm 0,0 UV-I 5 W/m² -1,4 °C -4,4 °C 19,3 km/h (3 Bft)
17.01.2018 08:49 -0,3 °C 91 % 1000,3 hPa 0,0 mm 18,5 km/h (3 Bft) W 265 ° 0 min 0,000 mm 0,0 UV-I 5 W/m² -1,6 °C -5,4 °C 29,0 km/h (5 Bft)
17.01.2018 08:50 -0,3 °C 91 % 1000,3 hPa 0,0 mm 18,8 km/h (3 Bft) W 279 ° 0 min 0,000 mm 0,0 UV-I 5 W/m² -1,6 °C -5,4 °C 22,5 km/h (4 Bft)
17.01.2018 08:51 -0,3 °C 91 % 1000,4 hPa 0,0 mm 21,7 km/h (4 Bft) W-SW 243 ° 0 min 0,000 mm 0,0 UV-I 0 W/m² -1,6 °C -5,9 °C 38,6 km/h (5 Bft)
17.01.2018 08:52 -0,3 °C 91 % 1000,4 hPa 0,0 mm 20,3 km/h (4 Bft) NW 316 ° 0 min 0,000 mm 0,0 UV-I 5 W/m² -1,6 °C -5,7 °C 25,7 km/h (4 Bft)
17.01.2018 08:53 -0,3 °C 91 % 1000,4 hPa 0,0 mm 19,7 km/h (3 Bft) W 263 ° 0 min 0,000 mm 0,0 UV-I 5 W/m² -1,6 °C -5,6 °C 30,6 km/h (5 Bft)
17.01.2018 08:54 -0,4 °C 91 % 1000,5 hPa 0,0 mm 15,4 km/h (3 Bft) W 260 ° 0 min 0,000 mm 0,0 UV-I 7 W/m² -1,7 °C -5,0 °C 29,0 km/h (5 Bft)
17.01.2018 08:55 -0,4 °C 91 % 1000,5 hPa 0,0 mm 16,9 km/h (3 Bft) W 262 ° 0 min 0,000 mm 0,0 UV-I 11 W/m² -1,7 °C -5,3 °C 22,5 km/h (4 Bft)
17.01.2018 08:56 -0,4 °C 91 % 1000,7 hPa 0,0 mm 13,4 km/h (3 Bft) S-SO 148 ° 0 min 0,000 mm 0,0 UV-I 12 W/m² -1,7 °C -4,6 °C 24,1 km/h (4 Bft)
17.01.2018 08:57 -0,4 °C 91 % 1000,7 hPa 0,0 mm 27,1 km/h (4 Bft) W 280 ° 0 min 0,000 mm 0,0 UV-I 11 W/m² -1,7 °C -6,7 °C 40,2 km/h (6 Bft)
17.01.2018 08:58 -0,4 °C 91 % 1000,6 hPa 0,0 mm 21,6 km/h (4 Bft) W 263 ° 0 min 0,000 mm 0,0 UV-I 11 W/m² -1,7 °C -6,0 °C 27,4 km/h (4 Bft)
17.01.2018 08:59 -0,4 °C 91 % 1000,6 hPa 0,0 mm 11,7 km/h (2 Bft) W 270 ° 0 min 0,000 mm 0,0 UV-I 7 W/m² -1,7 °C -4,2 °C 19,3 km/h (3 Bft)
17.01.2018 09:00 -0,4 °C 91 % 1000,6 hPa 0,0 mm 12,9 km/h (3 Bft) W 271 ° 0 min 0,000 mm 0,0 UV-I 7 W/m² -1,7 °C -4,5 °C 17,7 km/h (3 Bft)
17.01.2018 09:01 -0,4 °C 91 % 1000,6 hPa 0,0 mm 17,5 km/h (3 Bft) SW 224 ° 0 min 0,000 mm 0,0 UV-I 11 W/m² -1,7 °C -5,4 °C 25,7 km/h (4 Bft)
17.01.2018 09:02 -0,4 °C 91 % 1000,6 hPa 0,0 mm 18,5 km/h (3 Bft) W 267 ° 0 min 0,000 mm 0,0 UV-I 12 W/m² -1,7 °C -5,5 °C 25,7 km/h (4 Bft)
17.01.2018 09:03 -0,4 °C 91 % 1000,6 hPa 0,0 mm 17,3 km/h (3 Bft) W-SW 244 ° 0 min 0,000 mm 0,0 UV-I 14 W/m² -1,7 °C -5,3 °C 22,5 km/h (4 Bft)
17.01.2018 09:04 -0,4 °C 91 % 1000,6 hPa 0,0 mm 10,1 km/h (2 Bft) W 278 ° 0 min 0,000 mm 0,0 UV-I 16 W/m² -1,7 °C -3,8 °C 19,3 km/h (3 Bft)
17.01.2018 09:05 -0,4 °C 91 % 1000,7 hPa 0,0 mm 10,2 km/h (2 Bft) W-SW 238 ° 0 min 0,000 mm 0,0 UV-I 21 W/m² -1,7 °C -3,8 °C 12,9 km/h (3 Bft)
17.01.2018 09:06 -0,5 °C 91 % 1000,7 hPa 0,0 mm 12,4 km/h (3 Bft) W 265 ° 0 min 0,000 mm 0,0 UV-I 23 W/m² -1,8 °C -4,5 °C 17,7 km/h (3 Bft)
17.01.2018 09:07 -0,4 °C 91 % 1000,8 hPa 0,0 mm 13,7 km/h (3 Bft) W-SW 251 ° 0 min 0,000 mm 0,0 UV-I 26 W/m² -1,7 °C -4,7 °C 19,3 km/h (3 Bft)
17.01.2018 09:08 -0,4 °C 91 % 1000,9 hPa 0,0 mm 18,8 km/h (3 Bft) W-NW 294 ° 0 min 0,000 mm 0,0 UV-I 26 W/m² -1,7 °C -5,6 °C 24,1 km/h (4 Bft)
17.01.2018 09:09 -0,4 °C 90 % 1000,8 hPa 0,0 mm 15,8 km/h (3 Bft) W-NW 295 ° 0 min 0,000 mm 0,0 UV-I 26 W/m² -1,8 °C -5,1 °C 20,9 km/h (4 Bft)
17.01.2018 09:10 -0,4 °C 90 % 1001,0 hPa 0,0 mm 22,6 km/h (4 Bft) W-SW 258 ° 0 min 0,000 mm 0,0 UV-I 30 W/m² -1,8 °C -6,1 °C 32,2 km/h (5 Bft)
17.01.2018 09:11 -0,4 °C 90 % 1001,0 hPa 0,0 mm 20,8 km/h (4 Bft) NW 321 ° 0 min 0,000 mm 0,0 UV-I 28 W/m² -1,8 °C -5,9 °C 27,4 km/h (4 Bft)
17.01.2018 09:12 -0,4 °C 90 % 1000,9 hPa 0,0 mm 15,2 km/h (3 Bft) W-NW 289 ° 0 min 0,000 mm 0,0 UV-I 21 W/m² -1,8 °C -4,9 °C 24,1 km/h (4 Bft)
17.01.2018 09:13 -0,4 °C 90 % 1001,0 hPa 0,0 mm 15,8 km/h (3 Bft) W 269 ° 0 min 0,000 mm 0,0 UV-I 9 W/m² -1,8 °C -5,1 °C 20,9 km/h (4 Bft)
17.01.2018 09:14 -0,4 °C 90 % 1001,2 hPa 0,0 mm 18,3 km/h (3 Bft) W-NW 296 ° 0 min 0,000 mm 0,0 UV-I 7 W/m² -1,8 °C -5,5 °C 29,0 km/h (5 Bft)
17.01.2018 09:15 -0,4 °C 90 % 1001,1 hPa 0,0 mm 15,4 km/h (3 Bft) W 263 ° 0 min 0,000 mm 0,0 UV-I 7 W/m² -1,8 °C -5,0 °C 20,9 km/h (4 Bft)
17.01.2018 09:16 -0,4 °C 90 % 1001,2 hPa 0,0 mm 14,0 km/h (3 Bft) W-SW 248 ° 0 min 0,000 mm 0,0 UV-I 7 W/m² -1,8 °C -4,7 °C 19,3 km/h (3 Bft)
17.01.2018 09:17 -0,4 °C 90 % 1001,3 hPa 0,0 mm 16,2 km/h (3 Bft) W 273 ° 0 min 0,000 mm 0,0 UV-I 9 W/m² -1,8 °C -5,1 °C 24,1 km/h (4 Bft)
17.01.2018 09:18 -0,4 °C 90 % 1001,3 hPa 0,0 mm 15,9 km/h (3 Bft) W-NW 282 ° 0 min 0,000 mm 0,0 UV-I 12 W/m² -1,8 °C -5,1 °C 20,9 km/h (4 Bft)
17.01.2018 09:19 -0,4 °C 90 % 1001,3 hPa 0,0 mm 17,5 km/h (3 Bft) W 273 ° 0 min 0,000 mm 0,0 UV-I 16 W/m² -1,8 °C -5,4 °C 24,1 km/h (4 Bft)
17.01.2018 09:20 -0,4 °C 90 % 1001,3 hPa 0,0 mm 19,8 km/h (3 Bft) W-SW 245 ° 0 min 0,000 mm 0,0 UV-I 16 W/m² -1,8 °C -5,7 °C 25,7 km/h (4 Bft)
17.01.2018 09:21 -0,4 °C 90 % 1001,2 hPa 0,0 mm 17,1 km/h (3 Bft) W 261 ° 0 min 0,000 mm 0,0 UV-I 18 W/m² -1,8 °C -5,3 °C 24,1 km/h (4 Bft)
17.01.2018 09:22 -0,4 °C 90 % 1001,3 hPa 0,0 mm 13,5 km/h (3 Bft) NW 315 ° 0 min 0,000 mm 0,0 UV-I 19 W/m² -1,8 °C -4,6 °C 17,7 km/h (3 Bft)
17.01.2018 09:23 -0,4 °C 90 % 1001,3 hPa 0,0 mm 17,6 km/h (3 Bft) W-SW 256 ° 0 min 0,000 mm 0,0 UV-I 19 W/m² -1,8 °C -5,4 °C 25,7 km/h (4 Bft)
17.01.2018 09:24 -0,4 °C 90 % 1001,3 hPa 0,0 mm 19,4 km/h (3 Bft) W-NW 288 ° 0 min 0,000 mm 0,0 UV-I 19 W/m² -1,8 °C -5,7 °C 27,4 km/h (4 Bft)
17.01.2018 09:25 -0,4 °C 90 % 1001,2 hPa 0,0 mm 16,1 km/h (3 Bft) W 263 ° 0 min 0,000 mm 0,0 UV-I 28 W/m² -1,8 °C -5,1 °C 25,7 km/h (4 Bft)
17.01.2018 09:26 -0,4 °C 90 % 1001,3 hPa 0,0 mm 19,5 km/h (3 Bft) W-SW 248 ° 0 min 0,000 mm 0,0 UV-I 32 W/m² -1,8 °C -5,7 °C 30,6 km/h (5 Bft)
17.01.2018 09:27 -0,4 °C 89 % 1001,3 hPa 0,0 mm 11,8 km/h (2 Bft) W 267 ° 0 min 0,000 mm 0,0 UV-I 33 W/m² -2,0 °C -4,2 °C 17,7 km/h (3 Bft)
17.01.2018 09:28 -0,4 °C 89 % 1001,2 hPa 0,0 mm 14,8 km/h (3 Bft) NW 310 ° 0 min 0,000 mm 0,0 UV-I 33 W/m² -2,0 °C -4,9 °C 20,9 km/h (4 Bft)
17.01.2018 09:29 -0,4 °C 89 % 1001,3 hPa 0,0 mm 13,2 km/h (3 Bft) W-NW 288 ° 0 min 0,000 mm 0,0 UV-I 28 W/m² -2,0 °C -4,5 °C 17,7 km/h (3 Bft)
17.01.2018 09:30 -0,4 °C 89 % 1001,2 hPa 0,0 mm 11,7 km/h (2 Bft) W-NW 286 ° 0 min 0,000 mm 0,0 UV-I 21 W/m² -2,0 °C -4,2 °C 19,3 km/h (3 Bft)
17.01.2018 09:31 -0,4 °C 89 % 1001,4 hPa 0,0 mm 11,7 km/h (2 Bft) W 275 ° 0 min 0,000 mm 0,0 UV-I 12 W/m² -2,0 °C -4,2 °C 17,7 km/h (3 Bft)
17.01.2018 09:32 -0,4 °C 89 % 1001,3 hPa 0,0 mm 17,2 km/h (3 Bft) W 259 ° 0 min 0,000 mm 0,0 UV-I 12 W/m² -2,0 °C -5,3 °C 24,1 km/h (4 Bft)
17.01.2018 09:33 -0,4 °C 89 % 1001,2 hPa 0,0 mm 15,5 km/h (3 Bft) W-NW 291 ° 0 min 0,000 mm 0,0 UV-I 14 W/m² -2,0 °C -5,0 °C 20,9 km/h (4 Bft)
17.01.2018 09:34 -0,4 °C 89 % 1001,3 hPa 0,0 mm 13,1 km/h (3 Bft) W-NW 287 ° 0 min 0,000 mm 0,0 UV-I 14 W/m² -2,0 °C -4,5 °C 20,9 km/h (4 Bft)
17.01.2018 09:35 -0,4 °C 89 % 1001,2 hPa 0,0 mm 17,5 km/h (3 Bft) W 265 ° 0 min 0,000 mm 0,0 UV-I 12 W/m² -2,0 °C -5,4 °C 27,4 km/h (4 Bft)
17.01.2018 09:36 -0,4 °C 89 % 1001,2 hPa 0,0 mm 14,4 km/h (3 Bft) W-NW 288 ° 0 min 0,000 mm 0,0 UV-I 11 W/m² -2,0 °C -4,8 °C 22,5 km/h (4 Bft)
17.01.2018 09:37 -0,4 °C 89 % 1001,3 hPa 0,0 mm 10,9 km/h (2 Bft) SW 225 ° 0 min 0,000 mm 0,0 UV-I 11 W/m² -2,0 °C -4,0 °C 19,3 km/h (3 Bft)
17.01.2018 09:38 -0,4 °C 89 % 1001,3 hPa 0,0 mm 12,6 km/h (3 Bft) W-NW 284 ° 0 min 0,000 mm 0,0 UV-I 11 W/m² -2,0 °C -4,4 °C 17,7 km/h (3 Bft)
17.01.2018 09:39 -0,4 °C 89 % 1001,3 hPa 0,0 mm 17,3 km/h (3 Bft) W 280 ° 0 min 0,000 mm 0,0 UV-I 11 W/m² -2,0 °C -5,3 °C 24,1 km/h (4 Bft)
17.01.2018 09:40 -0,4 °C 89 % 1001,4 hPa 0,0 mm 12,5 km/h (3 Bft) W-NW 302 ° 0 min 0,000 mm 0,0 UV-I 7 W/m² -2,0 °C -4,4 °C 22,5 km/h (4 Bft)
17.01.2018 09:41 -0,4 °C 88 % 1001,3 hPa 0,0 mm 17,6 km/h (3 Bft) W-SW 250 ° 0 min 0,000 mm 0,0 UV-I 7 W/m² -2,1 °C -5,4 °C 29,0 km/h (5 Bft)
17.01.2018 09:42 -0,4 °C 88 % 1001,4 hPa 0,0 mm 21,1 km/h (4 Bft) NW 306 ° 0 min 0,000 mm 0,0 UV-I 7 W/m² -2,1 °C -5,9 °C 29,0 km/h (5 Bft)
17.01.2018 09:43 -0,5 °C 88 % 1001,3 hPa 0,0 mm 16,7 km/h (3 Bft) W-NW 287 ° 0 min 0,000 mm 0,0 UV-I 7 W/m² -2,2 °C -5,3 °C 27,4 km/h (4 Bft)
17.01.2018 09:44 -0,5 °C 88 % 1001,3 hPa 0,0 mm 17,2 km/h (3 Bft) W 277 ° 0 min 0,000 mm 0,0 UV-I 7 W/m² -2,2 °C -5,4 °C 29,0 km/h (5 Bft)
17.01.2018 09:45 -0,5 °C 88 % 1001,4 hPa 0,0 mm 11,0 km/h (2 Bft) W 273 ° 0 min 0,000 mm 0,0 UV-I 7 W/m² -2,2 °C -4,2 °C 16,1 km/h (3 Bft)
17.01.2018 09:46 -0,5 °C 88 % 1001,3 hPa 0,0 mm 10,5 km/h (2 Bft) W 265 ° 0 min 0,000 mm 0,0 UV-I 7 W/m² -2,2 °C -4,0 °C 16,1 km/h (3 Bft)
17.01.2018 09:47 -0,5 °C 88 % 1001,4 hPa 0,0 mm 17,1 km/h (3 Bft) NW 304 ° 0 min 0,000 mm 0,0 UV-I 7 W/m² -2,2 °C -5,4 °C 20,9 km/h (4 Bft)
17.01.2018 09:48 -0,5 °C 89 % 1001,6 hPa 0,0 mm 14,5 km/h (3 Bft) W-NW 300 ° 0 min 0,000 mm 0,0 UV-I 7 W/m² -2,1 °C -4,9 °C 17,7 km/h (3 Bft)
17.01.2018 09:49 -0,5 °C 88 % 1001,8 hPa 0,0 mm 16,1 km/h (3 Bft) N-NW 334 ° 0 min 0,000 mm 0,0 UV-I 7 W/m² -2,2 °C -5,2 °C 25,7 km/h (4 Bft)
17.01.2018 09:50 -0,5 °C 88 % 1001,7 hPa 0,0 mm 8,5 km/h (2 Bft) W 267 ° 0 min 0,000 mm 0,0 UV-I 5 W/m² -2,2 °C -3,5 °C 12,9 km/h (3 Bft)
17.01.2018 09:51 -0,5 °C 89 % 1001,8 hPa 0,0 mm 3,8 km/h (1 Bft) W 275 ° 0 min 0,000 mm 0,0 UV-I 5 W/m² -2,1 °C -0,5 °C 6,4 km/h (2 Bft)
17.01.2018 09:52 -0,6 °C 89 % 1002,0 hPa 0,0 mm 10,8 km/h (2 Bft) N-NW 333 ° 0 min 0,000 mm 0,0 UV-I 5 W/m² -2,2 °C -4,2 °C 14,5 km/h (3 Bft)
17.01.2018 09:53 -0,6 °C 89 % 1002,1 hPa 0,0 mm 14,1 km/h (3 Bft) W 272 ° 0 min 0,000 mm 0,0 UV-I 0 W/m² -2,2 °C -5,0 °C 22,5 km/h (4 Bft)
17.01.2018 09:54 -0,6 °C 89 % 1002,1 hPa 0,0 mm 14,8 km/h (3 Bft) W-NW 289 ° 0 min 0,000 mm 0,0 UV-I 0 W/m² -2,2 °C -5,1 °C 20,9 km/h (4 Bft)
17.01.2018 09:55 -0,6 °C 89 % 1002,0 hPa 0,0 mm 17,8 km/h (3 Bft) NW 304 ° 0 min 0,000 mm 0,0 UV-I 0 W/m² -2,2 °C -5,7 °C 24,1 km/h (4 Bft)
17.01.2018 09:56 -0,6 °C 89 % 1002,1 hPa 0,0 mm 11,5 km/h (2 Bft) W 269 ° 0 min 0,000 mm 0,0 UV-I 0 W/m² -2,2 °C -4,4 °C 17,7 km/h (3 Bft)
17.01.2018 09:57 -0,7 °C 89 % 1002,0 hPa 0,0 mm 5,4 km/h (1 Bft) W-NW 290 ° 0 min 0,000 mm 0,0 UV-I 0 W/m² -2,3 °C -2,6 °C 11,3 km/h (2 Bft)
17.01.2018 09:58 -0,7 °C 90 % 1002,1 hPa 0,0 mm 7,1 km/h (2 Bft) W-NW 300 ° 0 min 0,000 mm 0,0 UV-I 5 W/m² -2,1 °C -3,3 °C 12,9 km/h (3 Bft)
17.01.2018 09:59 -0,8 °C 90 % 1002,1 hPa 0,0 mm 8,4 km/h (2 Bft) W-NW 282 ° 0 min 0,000 mm 0,0 UV-I 7 W/m² -2,2 °C -3,8 °C 16,1 km/h (3 Bft)
17.01.2018 10:00 -0,8 °C 90 % 1002,1 hPa 0,0 mm 12,2 km/h (2 Bft) W-SW 255 ° 0 min 0,000 mm 0,0 UV-I 9 W/m² -2,2 °C -4,8 °C 14,5 km/h (3 Bft)
17.01.2018 10:01 -0,8 °C 90 % 1002,4 hPa 0,0 mm 12,5 km/h (3 Bft) W-NW 287 ° 0 min 0,025 mm 0,0 UV-I 9 W/m² -2,2 °C -4,9 °C 20,9 km/h (4 Bft)
17.01.2018 10:02 -0,8 °C 90 % 1002,4 hPa 0,0 mm 18,6 km/h (3 Bft) W-NW 286 ° 0 min 0,000 mm 0,0 UV-I 9 W/m² -2,2 °C -6,0 °C 25,7 km/h (4 Bft)
17.01.2018 10:03 -0,8 °C 90 % 1002,5 hPa 0,0 mm 12,2 km/h (2 Bft) W-NW 289 ° 0 min 0,000 mm 0,0 UV-I 11 W/m² -2,2 °C -4,8 °C 16,1 km/h (3 Bft)
17.01.2018 10:04 -0,8 °C 90 % 1002,5 hPa 0,0 mm 9,7 km/h (2 Bft) W 263 ° 0 min 0,000 mm 0,0 UV-I 12 W/m² -2,2 °C -4,2 °C 14,5 km/h (3 Bft)
17.01.2018 10:05 -0,9 °C 90 % 1002,5 hPa 0,0 mm 10,1 km/h (2 Bft) W-NW 292 ° 0 min 0,000 mm 0,0 UV-I 12 W/m² -2,3 °C -4,4 °C 16,1 km/h (3 Bft)
17.01.2018 10:06 -0,9 °C 91 % 1002,6 hPa 0,0 mm 8,7 km/h (2 Bft) W 265 ° 0 min 0,000 mm 0,0 UV-I 11 W/m² -2,2 °C -4,0 °C 16,1 km/h (3 Bft)
17.01.2018 10:07 -0,9 °C 91 % 1002,6 hPa 0,0 mm 10,4 km/h (2 Bft) NW 305 ° 0 min 0,000 mm 0,0 UV-I 12 W/m² -2,2 °C -4,5 °C 14,5 km/h (3 Bft)
17.01.2018 10:08 -0,9 °C 91 % 1002,7 hPa 0,0 mm 8,6 km/h (2 Bft) NW 311 ° 0 min 0,000 mm 0,0 UV-I 16 W/m² -2,2 °C -4,0 °C 11,3 km/h (2 Bft)
17.01.2018 10:09 -0,9 °C 91 % 1002,7 hPa 0,0 mm 12,4 km/h (3 Bft) W 264 ° 0 min 0,000 mm 0,0 UV-I 19 W/m² -2,2 °C -5,0 °C 20,9 km/h (4 Bft)
17.01.2018 10:10 -0,9 °C 91 % 1002,7 hPa 0,0 mm 18,7 km/h (3 Bft) W 273 ° 0 min 0,000 mm 0,0 UV-I 19 W/m² -2,2 °C -6,2 °C 22,5 km/h (4 Bft)
17.01.2018 10:11 -0,9 °C 91 % 1002,6 hPa 0,0 mm 12,6 km/h (3 Bft) W 277 ° 0 min 0,000 mm 0,0 UV-I 25 W/m² -2,2 °C -5,0 °C 16,1 km/h (3 Bft)
17.01.2018 10:12 -0,9 °C 91 % 1002,8 hPa 0,0 mm 10,9 km/h (2 Bft) W-SW 258 ° 0 min 0,000 mm 0,0 UV-I 26 W/m² -2,2 °C -4,6 °C 16,1 km/h (3 Bft)
17.01.2018 10:13 -0,9 °C 91 % 1002,8 hPa 0,0 mm 15,3 km/h (3 Bft) W-NW 298 ° 0 min 0,000 mm 0,0 UV-I 30 W/m² -2,2 °C -5,6 °C 19,3 km/h (3 Bft)
17.01.2018 10:14 -0,9 °C 91 % 1002,8 hPa 0,0 mm 12,4 km/h (3 Bft) W-SW 246 ° 0 min 0,000 mm 0,0 UV-I 33 W/m² -2,2 °C -5,0 °C 20,9 km/h (4 Bft)
17.01.2018 10:15 -0,9 °C 91 % 1002,7 hPa 0,0 mm 15,2 km/h (3 Bft) W 270 ° 0 min 0,000 mm 0,0 UV-I 30 W/m² -2,2 °C -5,6 °C 20,9 km/h (4 Bft)
17.01.2018 10:16 -0,9 °C 91 % 1002,8 hPa 0,0 mm 18,3 km/h (3 Bft) W-SW 249 ° 0 min 0,000 mm 0,0 UV-I 28 W/m² -2,2 °C -6,1 °C 24,1 km/h (4 Bft)
17.01.2018 10:17 -0,9 °C 91 % 1002,8 hPa 0,0 mm 13,3 km/h (3 Bft) W-SW 255 ° 0 min 0,000 mm 0,0 UV-I 25 W/m² -2,2 °C -5,2 °C 22,5 km/h (4 Bft)
17.01.2018 10:18 -0,9 °C 91 % 1002,8 hPa 0,0 mm 17,0 km/h (3 Bft) W 262 ° 0 min 0,000 mm 0,0 UV-I 21 W/m² -2,2 °C -5,9 °C 22,5 km/h (4 Bft)
17.01.2018 10:19 -0,8 °C 91 % 1002,9 hPa 0,0 mm 18,2 km/h (3 Bft) NW 305 ° 0 min 0,000 mm 0,0 UV-I 26 W/m² -2,1 °C -6,0 °C 27,4 km/h (4 Bft)
17.01.2018 10:20 -0,8 °C 91 % 1002,8 hPa 0,0 mm 15,7 km/h (3 Bft) W 269 ° 0 min 0,000 mm 0,0 UV-I 28 W/m² -2,1 °C -5,5 °C 22,5 km/h (4 Bft)
17.01.2018 10:21 -0,8 °C 91 % 1002,9 hPa 0,0 mm 15,8 km/h (3 Bft) W 259 ° 0 min 0,000 mm 0,0 UV-I 28 W/m² -2,1 °C -5,6 °C 20,9 km/h (4 Bft)
17.01.2018 10:22 -0,8 °C 91 % 1002,9 hPa 0,0 mm 22,8 km/h (4 Bft) W-NW 292 ° 0 min 0,000 mm 0,0 UV-I 25 W/m² -2,1 °C -6,7 °C 30,6 km/h (5 Bft)
17.01.2018 10:23 -0,8 °C 91 % 1002,9 hPa 0,0 mm 15,3 km/h (3 Bft) W-NW 284 ° 0 min 0,000 mm 0,0 UV-I 21 W/m² -2,1 °C -5,5 °C 19,3 km/h (3 Bft)
17.01.2018 10:24 -0,8 °C 91 % 1002,9 hPa 0,0 mm 13,8 km/h (3 Bft) W-SW 254 ° 0 min 0,000 mm 0,0 UV-I 19 W/m² -2,1 °C -5,2 °C 24,1 km/h (4 Bft)
17.01.2018 10:25 -0,8 °C 91 % 1002,9 hPa 0,0 mm 19,0 km/h (3 Bft) W-SW 257 ° 0 min 0,000 mm 0,0 UV-I 19 W/m² -2,1 °C -6,1 °C 22,5 km/h (4 Bft)
17.01.2018 10:26 -0,8 °C 91 % 1003,0 hPa 0,0 mm 15,9 km/h (3 Bft) W 278 ° 0 min 0,000 mm 0,0 UV-I 16 W/m² -2,1 °C -5,6 °C 19,3 km/h (3 Bft)
17.01.2018 10:27 -0,8 °C 92 % 1003,1 hPa 0,0 mm 15,9 km/h (3 Bft) W 269 ° 0 min 0,000 mm 0,0 UV-I 14 W/m² -1,9 °C -5,6 °C 20,9 km/h (4 Bft)
17.01.2018 10:28 -0,8 °C 92 % 1003,1 hPa 0,0 mm 14,4 km/h (3 Bft) W 265 ° 0 min 0,000 mm 0,0 UV-I 14 W/m² -1,9 °C -5,3 °C 19,3 km/h (3 Bft)
17.01.2018 10:29 -0,8 °C 92 % 1003,1 hPa 0,0 mm 17,4 km/h (3 Bft) W 277 ° 0 min 0,000 mm 0,0 UV-I 18 W/m² -1,9 °C -5,8 °C 25,7 km/h (4 Bft)
17.01.2018 10:30 -0,8 °C 92 % 1003,1 hPa 0,0 mm 22,7 km/h (4 Bft) W 271 ° 0 min 0,000 mm 0,0 UV-I 16 W/m² -1,9 °C -6,6 °C 30,6 km/h (5 Bft)
17.01.2018 10:31 -0,8 °C 92 % 1003,4 hPa 0,0 mm 15,9 km/h (3 Bft) W 260 ° 0 min 0,000 mm 0,0 UV-I 16 W/m² -1,9 °C -5,6 °C 24,1 km/h (4 Bft)
17.01.2018 10:32 -0,8 °C 92 % 1003,2 hPa 0,0 mm 18,2 km/h (3 Bft) W 261 ° 0 min 0,000 mm 0,0 UV-I 16 W/m² -1,9 °C -6,0 °C 25,7 km/h (4 Bft)
17.01.2018 10:33 -0,8 °C 92 % 1003,1 hPa 0,0 mm 17,6 km/h (3 Bft) W 260 ° 0 min 0,000 mm 0,0 UV-I 16 W/m² -1,9 °C -5,9 °C 22,5 km/h (4 Bft)
17.01.2018 10:34 -0,8 °C 92 % 1003,1 hPa 0,0 mm 13,0 km/h (3 Bft) W 265 ° 0 min 0,000 mm 0,0 UV-I 18 W/m² -1,9 °C -5,0 °C 16,1 km/h (3 Bft)
17.01.2018 10:35 -0,9 °C 92 % 1003,1 hPa 0,0 mm 13,4 km/h (3 Bft) W 273 ° 0 min 0,000 mm 0,0 UV-I 18 W/m² -2,0 °C -5,2 °C 24,1 km/h (4 Bft)
17.01.2018 10:36 -0,9 °C 92 % 1003,2 hPa 0,0 mm 14,8 km/h (3 Bft) W-NW 286 ° 0 min 0,000 mm 0,0 UV-I 16 W/m² -2,0 °C -5,5 °C 25,7 km/h (4 Bft)
17.01.2018 10:37 -0,9 °C 92 % 1003,0 hPa 0,0 mm 20,4 km/h (4 Bft) NW 304 ° 0 min 0,000 mm 0,0 UV-I 14 W/m² -2,0 °C -6,4 °C 30,6 km/h (5 Bft)
17.01.2018 10:38 -0,9 °C 92 % 1003,2 hPa 0,0 mm 15,7 km/h (3 Bft) W 278 ° 0 min 0,000 mm 0,0 UV-I 14 W/m² -2,0 °C -5,7 °C 22,5 km/h (4 Bft)
17.01.2018 10:39 -0,9 °C 92 % 1003,3 hPa 0,0 mm 17,2 km/h (3 Bft) W-SW 248 ° 0 min 0,000 mm 0,0 UV-I 12 W/m² -2,0 °C -5,9 °C 25,7 km/h (4 Bft)
17.01.2018 10:40 -0,9 °C 91 % 1003,3 hPa 0,0 mm 18,1 km/h (3 Bft) W 264 ° 0 min 0,000 mm 0,0 UV-I 12 W/m² -2,2 °C -6,1 °C 24,1 km/h (4 Bft)
17.01.2018 10:41 -1,0 °C 91 % 1003,4 hPa 0,0 mm 13,6 km/h (3 Bft) SW 236 ° 0 min 0,000 mm 0,0 UV-I 12 W/m² -2,3 °C -5,4 °C 22,5 km/h (4 Bft)
17.01.2018 10:42 -1,0 °C 91 % 1003,5 hPa 0,0 mm 16,6 km/h (3 Bft) W-SW 243 ° 0 min 0,000 mm 0,0 UV-I 12 W/m² -2,3 °C -5,9 °C 22,5 km/h (4 Bft)
17.01.2018 10:43 -1,0 °C 92 % 1003,5 hPa 0,0 mm 12,9 km/h (3 Bft) W 270 ° 0 min 0,000 mm 0,0 UV-I 14 W/m² -2,1 °C -5,2 °C 17,7 km/h (3 Bft)
17.01.2018 10:44 -1,0 °C 92 % 1003,5 hPa 0,0 mm 16,2 km/h (3 Bft) W 280 ° 0 min 0,000 mm 0,0 UV-I 14 W/m² -2,1 °C -5,9 °C 24,1 km/h (4 Bft)
17.01.2018 10:45 -1,1 °C 92 % 1003,6 hPa 0,0 mm 20,8 km/h (4 Bft) N-NW 336 ° 0 min 0,000 mm 0,0 UV-I 16 W/m² -2,2 °C -6,8 °C 32,2 km/h (5 Bft)
17.01.2018 10:46 -1,1 °C 92 % 1003,5 hPa 0,0 mm 22,3 km/h (4 Bft) W-SW 251 ° 0 min 0,000 mm 0,0 UV-I 16 W/m² -2,2 °C -7,0 °C 48,3 km/h (6 Bft)
17.01.2018 10:47 -1,1 °C 92 % 1003,7 hPa 0,0 mm 17,2 km/h (3 Bft) W-NW 291 ° 0 min 0,000 mm 0,0 UV-I 19 W/m² -2,2 °C -6,2 °C 27,4 km/h (4 Bft)
17.01.2018 10:48 -1,1 °C 92 % 1003,8 hPa 0,0 mm 22,7 km/h (4 Bft) W 259 ° 0 min 0,000 mm 0,0 UV-I 19 W/m² -2,2 °C -7,0 °C 30,6 km/h (5 Bft)
17.01.2018 10:49 -1,1 °C 91 % 1003,8 hPa 0,0 mm 27,3 km/h (4 Bft) W 274 ° 0 min 0,000 mm 0,0 UV-I 19 W/m² -2,4 °C -7,6 °C 40,2 km/h (6 Bft)
17.01.2018 10:50 -1,1 °C 91 % 1003,8 hPa 0,0 mm 27,4 km/h (4 Bft) W 266 ° 0 min 0,000 mm 0,0 UV-I 19 W/m² -2,4 °C -7,6 °C 38,6 km/h (5 Bft)
17.01.2018 10:51 -1,1 °C 91 % 1003,9 hPa 0,0 mm 25,6 km/h (4 Bft) W-NW 294 ° 0 min 0,000 mm 0,0 UV-I 19 W/m² -2,4 °C -7,4 °C 37,0 km/h (5 Bft)
17.01.2018 10:52 -1,2 °C 91 % 1003,9 hPa 0,0 mm 17,3 km/h (3 Bft) SW 232 ° 0 min 0,000 mm 0,0 UV-I 21 W/m² -2,5 °C -6,3 °C 24,1 km/h (4 Bft)
17.01.2018 10:53 -1,2 °C 91 % 1003,9 hPa 0,0 mm 17,1 km/h (3 Bft) W-SW 254 ° 0 min 0,000 mm 0,0 UV-I 19 W/m² -2,5 °C -6,3 °C 20,9 km/h (4 Bft)
17.01.2018 10:54 -1,2 °C 91 % 1004,0 hPa 0,0 mm 14,4 km/h (3 Bft) W 274 ° 0 min 0,000 mm 0,0 UV-I 19 W/m² -2,5 °C -5,8 °C 19,3 km/h (3 Bft)
17.01.2018 10:55 -1,2 °C 91 % 1004,0 hPa 0,0 mm 12,5 km/h (3 Bft) W-SW 250 ° 0 min 0,000 mm 0,0 UV-I 21 W/m² -2,5 °C -5,4 °C 19,3 km/h (3 Bft)
17.01.2018 10:56 -1,2 °C 91 % 1004,1 hPa 0,0 mm 13,1 km/h (3 Bft) W 272 ° 0 min 0,000 mm 0,0 UV-I 25 W/m² -2,5 °C -5,5 °C 24,1 km/h (4 Bft)
17.01.2018 10:57 -1,2 °C 91 % 1004,1 hPa 0,0 mm 14,8 km/h (3 Bft) W 263 ° 0 min 0,000 mm 0,0 UV-I 26 W/m² -2,5 °C -5,9 °C 22,5 km/h (4 Bft)
17.01.2018 10:58 -1,2 °C 91 % 1004,1 hPa 0,0 mm 17,8 km/h (3 Bft) W-NW 302 ° 0 min 0,000 mm 0,0 UV-I 30 W/m² -2,5 °C -6,4 °C 22,5 km/h (4 Bft)
17.01.2018 10:59 -1,2 °C 91 % 1004,1 hPa 0,0 mm 14,3 km/h (3 Bft) S-SW 209 ° 0 min 0,000 mm 0,0 UV-I 33 W/m² -2,5 °C -5,8 °C 19,3 km/h (3 Bft)
17.01.2018 11:00 -1,2 °C 91 % 1004,1 hPa 0,0 mm 9,3 km/h (2 Bft) NW 313 ° 0 min 0,026 mm 0,0 UV-I 32 W/m² -2,5 °C -4,6 °C 14,5 km/h (3 Bft)
17.01.2018 11:01 -1,2 °C 91 % 1004,1 hPa 0,0 mm 13,9 km/h (3 Bft) W-SW 253 ° 0 min 0,000 mm 0,0 UV-I 30 W/m² -2,5 °C -5,7 °C 17,7 km/h (3 Bft)
17.01.2018 11:02 -1,2 °C 91 % 1004,1 hPa 0,0 mm 17,4 km/h (3 Bft) W-SW 257 ° 0 min 0,000 mm 0,0 UV-I 26 W/m² -2,5 °C -6,3 °C 25,7 km/h (4 Bft)
17.01.2018 11:03 -1,2 °C 91 % 1004,1 hPa 0,0 mm 17,4 km/h (3 Bft) W 259 ° 0 min 0,000 mm 0,0 UV-I 23 W/m² -2,5 °C -6,3 °C 25,7 km/h (4 Bft)
17.01.2018 11:04 -1,2 °C 91 % 1004,1 hPa 0,0 mm 18,4 km/h (3 Bft) W-NW 297 ° 0 min 0,000 mm 0,0 UV-I 23 W/m² -2,5 °C -6,5 °C 25,7 km/h (4 Bft)
17.01.2018 11:05 -1,2 °C 91 % 1004,1 hPa 0,0 mm 15,1 km/h (3 Bft) W 259 ° 0 min 0,000 mm 0,0 UV-I 21 W/m² -2,5 °C -5,9 °C 19,3 km/h (3 Bft)
17.01.2018 11:06 -1,2 °C 91 % 1004,2 hPa 0,0 mm 14,6 km/h (3 Bft) W-SW 248 ° 0 min 0,000 mm 0,0 UV-I 23 W/m² -2,5 °C -5,8 °C 19,3 km/h (3 Bft)
17.01.2018 11:07 -1,2 °C 91 % 1004,3 hPa 0,0 mm 21,8 km/h (4 Bft) NW 305 ° 0 min 0,000 mm 0,0 UV-I 25 W/m² -2,5 °C -7,0 °C 27,4 km/h (4 Bft)
17.01.2018 11:08 -1,2 °C 90 % 1004,3 hPa 0,0 mm 16,5 km/h (3 Bft) W-SW 254 ° 0 min 0,000 mm 0,0 UV-I 28 W/m² -2,6 °C -6,2 °C 24,1 km/h (4 Bft)
17.01.2018 11:09 -1,2 °C 90 % 1004,2 hPa 0,0 mm 10,7 km/h (2 Bft) W-SW 241 ° 0 min 0,000 mm 0,0 UV-I 30 W/m² -2,6 °C -4,9 °C 16,1 km/h (3 Bft)
17.01.2018 11:10 -1,2 °C 91 % 1004,3 hPa 0,0 mm 6,9 km/h (2 Bft) SW 218 ° 0 min 0,000 mm 0,0 UV-I 26 W/m² -2,5 °C -3,8 °C 14,5 km/h (3 Bft)
17.01.2018 11:11 -1,2 °C 90 % 1004,2 hPa 0,0 mm 11,9 km/h (2 Bft) W-SW 256 ° 0 min 0,000 mm 0,0 UV-I 26 W/m² -2,6 °C -5,2 °C 20,9 km/h (4 Bft)
17.01.2018 11:12 -1,2 °C 90 % 1004,2 hPa 0,0 mm 16,4 km/h (3 Bft) NW 306 ° 0 min 0,000 mm 0,0 UV-I 30 W/m² -2,6 °C -6,2 °C 22,5 km/h (4 Bft)
17.01.2018 11:13 -1,2 °C 90 % 1004,2 hPa 0,0 mm 11,9 km/h (2 Bft) W-SW 251 ° 0 min 0,000 mm 0,0 UV-I 30 W/m² -2,6 °C -5,2 °C 19,3 km/h (3 Bft)
17.01.2018 11:14 -1,1 °C 90 % 1004,3 hPa 0,0 mm 18,5 km/h (3 Bft) W-SW 244 ° 0 min 0,000 mm 0,0 UV-I 35 W/m² -2,5 °C -6,4 °C 24,1 km/h (4 Bft)
17.01.2018 11:15 -1,1 °C 90 % 1004,3 hPa 0,0 mm 17,2 km/h (3 Bft) W 269 ° 0 min 0,000 mm 0,0 UV-I 37 W/m² -2,5 °C -6,2 °C 22,5 km/h (4 Bft)
17.01.2018 11:16 -1,1 °C 90 % 1004,2 hPa 0,0 mm 17,7 km/h (3 Bft) W 259 ° 0 min 0,000 mm 0,0 UV-I 40 W/m² -2,5 °C -6,3 °C 24,1 km/h (4 Bft)
17.01.2018 11:17 -1,1 °C 90 % 1004,3 hPa 0,0 mm 15,0 km/h (3 Bft) W 276 ° 0 min 0,000 mm 0,0 UV-I 39 W/m² -2,5 °C -5,8 °C 19,3 km/h (3 Bft)
17.01.2018 11:18 -1,1 °C 90 % 1004,4 hPa 0,0 mm 12,9 km/h (3 Bft) W-NW 290 ° 0 min 0,000 mm 0,0 UV-I 39 W/m² -2,5 °C -5,3 °C 20,9 km/h (4 Bft)
17.01.2018 11:19 -1,1 °C 90 % 1004,4 hPa 0,0 mm 13,0 km/h (3 Bft) W 261 ° 0 min 0,000 mm 0,0 UV-I 39 W/m² -2,5 °C -5,4 °C 16,1 km/h (3 Bft)
17.01.2018 11:20 -1,1 °C 90 % 1004,4 hPa 0,0 mm 17,8 km/h (3 Bft) W-NW 298 ° 0 min 0,000 mm 0,0 UV-I 39 W/m² -2,5 °C -6,3 °C 25,7 km/h (4 Bft)
17.01.2018 11:21 -1,1 °C 90 % 1004,3 hPa 0,0 mm 15,3 km/h (3 Bft) W 270 ° 0 min 0,000 mm 0,0 UV-I 39 W/m² -2,5 °C -5,8 °C 22,5 km/h (4 Bft)
17.01.2018 11:22 -1,1 °C 90 % 1004,4 hPa 0,0 mm 13,3 km/h (3 Bft) W-SW 244 ° 0 min 0,000 mm 0,0 UV-I 35 W/m² -2,5 °C -5,4 °C 24,1 km/h (4 Bft)
17.01.2018 11:23 -1,1 °C 90 % 1004,3 hPa 0,0 mm 18,0 km/h (3 Bft) W 271 ° 0 min 0,000 mm 0,0 UV-I 37 W/m² -2,5 °C -6,3 °C 27,4 km/h (4 Bft)
17.01.2018 11:24 -1,0 °C 90 % 1004,3 hPa 0,0 mm 15,9 km/h (3 Bft) W-NW 294 ° 0 min 0,000 mm 0,0 UV-I 40 W/m² -2,4 °C -5,8 °C 19,3 km/h (3 Bft)
17.01.2018 11:25 -1,0 °C 90 % 1004,3 hPa 0,0 mm 20,3 km/h (4 Bft) W-SW 246 ° 0 min 0,000 mm 0,0 UV-I 42 W/m² -2,4 °C -6,5 °C 27,4 km/h (4 Bft)
17.01.2018 11:26 -1,1 °C 90 % 1004,4 hPa 0,0 mm 24,1 km/h (4 Bft) W 266 ° 0 min 0,000 mm 0,0 UV-I 42 W/m² -2,5 °C -7,2 °C 32,2 km/h (5 Bft)
17.01.2018 11:27 -1,0 °C 90 % 1004,4 hPa 0,0 mm 13,4 km/h (3 Bft) W-NW 286 ° 0 min 0,000 mm 0,0 UV-I 42 W/m² -2,4 °C -5,3 °C 22,5 km/h (4 Bft)
17.01.2018 11:28 -1,1 °C 90 % 1004,4 hPa 0,0 mm 13,7 km/h (3 Bft) W-NW 287 ° 0 min 0,000 mm 0,0 UV-I 39 W/m² -2,5 °C -5,5 °C 17,7 km/h (3 Bft)
17.01.2018 11:29 -1,0 °C 90 % 1004,4 hPa 0,0 mm 19,8 km/h (3 Bft) W 265 ° 0 min 0,000 mm 0,0 UV-I 35 W/m² -2,4 °C -6,5 °C 24,1 km/h (4 Bft)
17.01.2018 11:30 -1,1 °C 90 % 1004,4 hPa 0,0 mm 17,7 km/h (3 Bft) W-NW 300 ° 0 min 0,000 mm 0,0 UV-I 33 W/m² -2,5 °C -6,3 °C 24,1 km/h (4 Bft)
17.01.2018 11:31 -1,1 °C 90 % 1004,4 hPa 0,0 mm 18,3 km/h (3 Bft) W-NW 300 ° 0 min 0,000 mm 0,0 UV-I 28 W/m² -2,5 °C -6,4 °C 24,1 km/h (4 Bft)
17.01.2018 11:32 -1,1 °C 90 % 1004,3 hPa 0,0 mm 18,7 km/h (3 Bft) W 260 ° 0 min 0,000 mm 0,0 UV-I 33 W/m² -2,5 °C -6,4 °C 27,4 km/h (4 Bft)
17.01.2018 11:33 -1,1 °C 90 % 1004,4 hPa 0,0 mm 19,6 km/h (3 Bft) W 271 ° 0 min 0,000 mm 0,0 UV-I 35 W/m² -2,5 °C -6,6 °C 24,1 km/h (4 Bft)
17.01.2018 11:34 -1,1 °C 90 % 1004,3 hPa 0,0 mm 12,7 km/h (3 Bft) W-NW 296 ° 0 min 0,000 mm 0,0 UV-I 32 W/m² -2,5 °C -5,3 °C 19,3 km/h (3 Bft)
17.01.2018 11:35 -1,1 °C 90 % 1004,3 hPa 0,0 mm 12,1 km/h (2 Bft) W 266 ° 0 min 0,000 mm 0,0 UV-I 32 W/m² -2,5 °C -5,2 °C 17,7 km/h (3 Bft)
17.01.2018 11:36 -1,1 °C 90 % 1004,4 hPa 0,0 mm 15,7 km/h (3 Bft) W-NW 285 ° 0 min 0,000 mm 0,0 UV-I 30 W/m² -2,5 °C -5,9 °C 22,5 km/h (4 Bft)
17.01.2018 11:37 -1,1 °C 90 % 1004,4 hPa 0,0 mm 9,8 km/h (2 Bft) W-NW 290 ° 0 min 0,000 mm 0,0 UV-I 30 W/m² -2,5 °C -4,6 °C 12,9 km/h (3 Bft)
17.01.2018 11:38 -1,1 °C 90 % 1004,4 hPa 0,0 mm 16,0 km/h (3 Bft) W-NW 289 ° 0 min 0,000 mm 0,0 UV-I 30 W/m² -2,5 °C -6,0 °C 20,9 km/h (4 Bft)
17.01.2018 11:39 -1,1 °C 90 % 1004,4 hPa 0,0 mm 12,3 km/h (3 Bft) W-SW 258 ° 0 min 0,000 mm 0,0 UV-I 28 W/m² -2,5 °C -5,2 °C 17,7 km/h (3 Bft)
17.01.2018 11:40 -1,1 °C 90 % 1004,4 hPa 0,0 mm 10,2 km/h (2 Bft) W-NW 291 ° 0 min 0,000 mm 0,0 UV-I 23 W/m² -2,5 °C -4,7 °C 14,5 km/h (3 Bft)
17.01.2018 11:41 -1,1 °C 90 % 1004,4 hPa 0,0 mm 10,1 km/h (2 Bft) W-NW 285 ° 0 min 0,000 mm 0,0 UV-I 19 W/m² -2,5 °C -4,7 °C 12,9 km/h (3 Bft)
17.01.2018 11:42 -1,1 °C 90 % 1004,5 hPa 0,0 mm 11,6 km/h (2 Bft) W 260 ° 0 min 0,000 mm 0,0 UV-I 16 W/m² -2,5 °C -5,0 °C 16,1 km/h (3 Bft)
17.01.2018 11:43 -1,1 °C 90 % 1004,5 hPa 0,0 mm 12,7 km/h (3 Bft) W 271 ° 0 min 0,000 mm 0,0 UV-I 14 W/m² -2,5 °C -5,3 °C 17,7 km/h (3 Bft)
17.01.2018 11:44 -1,2 °C 90 % 1004,5 hPa 0,0 mm 12,4 km/h (3 Bft) W-NW 286 ° 0 min 0,000 mm 0,0 UV-I 12 W/m² -2,6 °C -5,3 °C 14,5 km/h (3 Bft)
17.01.2018 11:45 -1,2 °C 90 % 1004,5 hPa 0,0 mm 13,9 km/h (3 Bft) W 274 ° 0 min 0,000 mm 0,0 UV-I 11 W/m² -2,6 °C -5,7 °C 19,3 km/h (3 Bft)
17.01.2018 11:46 -1,2 °C 90 % 1004,5 hPa 0,0 mm 11,5 km/h (2 Bft) W 276 ° 0 min 0,000 mm 0,0 UV-I 7 W/m² -2,6 °C -5,1 °C 14,5 km/h (3 Bft)
17.01.2018 11:47 -1,2 °C 90 % 1004,5 hPa 0,0 mm 10,5 km/h (2 Bft) W 275 ° 0 min 0,000 mm 0,0 UV-I 5 W/m² -2,6 °C -4,9 °C 14,5 km/h (3 Bft)
17.01.2018 11:48 -1,2 °C 90 % 1004,5 hPa 0,0 mm 12,4 km/h (3 Bft) W-SW 254 ° 0 min 0,000 mm 0,0 UV-I 5 W/m² -2,6 °C -5,3 °C 14,5 km/h (3 Bft)
17.01.2018 11:49 -1,2 °C 90 % 1004,8 hPa 0,0 mm 9,2 km/h (2 Bft) NW 308 ° 0 min 0,000 mm 0,0 UV-I 5 W/m² -2,6 °C -4,5 °C 12,9 km/h (3 Bft)
17.01.2018 11:50 -1,2 °C 90 % 1004,8 hPa 0,0 mm 14,8 km/h (3 Bft) W 264 ° 0 min 0,000 mm 0,0 UV-I 5 W/m² -2,6 °C -5,9 °C 17,7 km/h (3 Bft)
17.01.2018 11:51 -1,2 °C 90 % 1004,8 hPa 0,0 mm 18,0 km/h (3 Bft) W 273 ° 0 min 0,000 mm 0,0 UV-I 0 W/m² -2,6 °C -6,4 °C 25,7 km/h (4 Bft)
17.01.2018 11:52 -1,3 °C 91 % 1004,8 hPa 0,0 mm 24,9 km/h (4 Bft) W 278 ° 0 min 0,000 mm 0,0 UV-I 0 W/m² -2,6 °C -7,6 °C 43,5 km/h (6 Bft)
17.01.2018 11:53 -1,3 °C 91 % 1004,8 hPa 0,0 mm 18,7 km/h (3 Bft) N-NW 328 ° 0 min 0,000 mm 0,0 UV-I 0 W/m² -2,6 °C -6,7 °C 24,1 km/h (4 Bft)
17.01.2018 11:54 -1,3 °C 91 % 1004,9 hPa 0,0 mm 17,2 km/h (3 Bft) W 281 ° 0 min 0,000 mm 0,0 UV-I 0 W/m² -2,6 °C -6,4 °C 25,7 km/h (4 Bft)
17.01.2018 11:55 -1,4 °C 91 % 1004,8 hPa 0,0 mm 18,5 km/h (3 Bft) NW 313 ° 0 min 0,000 mm 0,0 UV-I 5 W/m² -2,7 °C -6,8 °C 25,7 km/h (4 Bft)
17.01.2018 11:56 -1,4 °C 91 % 1004,8 hPa 0,0 mm 13,2 km/h (3 Bft) N 360 ° 0 min 0,000 mm 0,0 UV-I 5 W/m² -2,7 °C -5,8 °C 19,3 km/h (3 Bft)
17.01.2018 11:57 -1,4 °C 91 % 1004,6 hPa 0,0 mm 9,2 km/h (2 Bft) W-NW 299 ° 0 min 0,000 mm 0,0 UV-I 7 W/m² -2,7 °C -4,8 °C 12,9 km/h (3 Bft)
17.01.2018 11:58 -1,5 °C 91 % 1004,7 hPa 0,0 mm 12,1 km/h (2 Bft) W 279 ° 0 min 0,000 mm 0,0 UV-I 11 W/m² -2,8 °C -5,6 °C 16,1 km/h (3 Bft)
17.01.2018 11:59 -1,6 °C 91 % 1004,7 hPa 0,0 mm 15,8 km/h (3 Bft) W 273 ° 0 min 0,000 mm 0,0 UV-I 12 W/m² -2,9 °C -6,5 °C 25,7 km/h (4 Bft)
17.01.2018 12:00 -1,6 °C 91 % 1004,7 hPa 0,0 mm 15,7 km/h (3 Bft) W-SW 246 ° 0 min 0,000 mm 0,0 UV-I 14 W/m² -2,9 °C -6,5 °C 20,9 km/h (4 Bft)
17.01.2018 12:01 -1,6 °C 91 % 1004,7 hPa 0,0 mm 17,8 km/h (3 Bft) NW 316 ° 0 min 0,025 mm 0,0 UV-I 14 W/m² -2,9 °C -6,9 °C 24,1 km/h (4 Bft)
17.01.2018 12:02 -1,7 °C 91 % 1004,7 hPa 0,0 mm 9,1 km/h (2 Bft) W-NW 286 ° 0 min 0,000 mm 0,0 UV-I 12 W/m² -3,0 °C -5,1 °C 16,1 km/h (3 Bft)
17.01.2018 12:03 -1,7 °C 91 % 1004,7 hPa 0,0 mm 14,4 km/h (3 Bft) W-NW 300 ° 0 min 0,000 mm 0,0 UV-I 12 W/m² -3,0 °C -6,4 °C 17,7 km/h (3 Bft)
17.01.2018 12:04 -1,7 °C 91 % 1004,8 hPa 0,0 mm 13,6 km/h (3 Bft) W 273 ° 0 min 0,000 mm 0,0 UV-I 12 W/m² -3,0 °C -6,2 °C 17,7 km/h (3 Bft)
17.01.2018 12:05 -1,8 °C 91 % 1004,9 hPa 0,0 mm 11,3 km/h (2 Bft) W-NW 286 ° 0 min 0,000 mm 0,0 UV-I 14 W/m² -3,1 °C -5,8 °C 29,0 km/h (5 Bft)
17.01.2018 12:06 -1,8 °C 91 % 1004,7 hPa 0,0 mm 12,3 km/h (3 Bft) W 269 ° 0 min 0,000 mm 0,0 UV-I 16 W/m² -3,1 °C -6,1 °C 17,7 km/h (3 Bft)
17.01.2018 12:07 -1,8 °C 91 % 1004,7 hPa 0,0 mm 14,5 km/h (3 Bft) SW 234 ° 0 min 0,000 mm 0,0 UV-I 16 W/m² -3,1 °C -6,5 °C 22,5 km/h (4 Bft)
17.01.2018 12:08 -1,8 °C 91 % 1004,8 hPa 0,0 mm 14,6 km/h (3 Bft) NW 310 ° 0 min 0,000 mm 0,0 UV-I 14 W/m² -3,1 °C -6,6 °C 20,9 km/h (4 Bft)
17.01.2018 12:09 -1,9 °C 91 % 1004,8 hPa 0,0 mm 17,2 km/h (3 Bft) W-SW 247 ° 0 min 0,000 mm 0,0 UV-I 14 W/m² -3,2 °C -7,2 °C 29,0 km/h (5 Bft)
17.01.2018 12:10 -1,9 °C 92 % 1004,7 hPa 0,0 mm 18,5 km/h (3 Bft) N-NW 336 ° 0 min 0,000 mm 0,0 UV-I 14 W/m² -3,0 °C -7,4 °C 27,4 km/h (4 Bft)
17.01.2018 12:11 -1,9 °C 92 % 1004,6 hPa 0,0 mm 14,9 km/h (3 Bft) W-NW 286 ° 0 min 0,000 mm 0,0 UV-I 12 W/m² -3,0 °C -6,7 °C 25,7 km/h (4 Bft)
17.01.2018 12:12 -2,0 °C 92 % 1004,6 hPa 0,0 mm 14,1 km/h (3 Bft) W-SW 244 ° 0 min 0,000 mm 0,0 UV-I 12 W/m² -3,1 °C -6,7 °C 19,3 km/h (3 Bft)
17.01.2018 12:13 -1,9 °C 92 % 1004,5 hPa 0,0 mm 12,9 km/h (3 Bft) W-NW 292 ° 0 min 0,000 mm 0,0 UV-I 12 W/m² -3,0 °C -6,3 °C 19,3 km/h (3 Bft)
17.01.2018 12:14 -2,0 °C 92 % 1004,7 hPa 0,0 mm 8,6 km/h (2 Bft) NW 309 ° 0 min 0,000 mm 0,0 UV-I 11 W/m² -3,1 °C -5,3 °C 14,5 km/h (3 Bft)
17.01.2018 12:15 -2,0 °C 92 % 1004,6 hPa 0,0 mm 10,6 km/h (2 Bft) W 281 ° 0 min 0,000 mm 0,0 UV-I 7 W/m² -3,1 °C -5,9 °C 19,3 km/h (3 Bft)
17.01.2018 12:16 -2,0 °C 92 % 1004,6 hPa 0,0 mm 20,9 km/h (4 Bft) W 277 ° 0 min 0,000 mm 0,0 UV-I 5 W/m² -3,1 °C -7,9 °C 35,4 km/h (5 Bft)
17.01.2018 12:17 -2,1 °C 92 % 1004,6 hPa 0,0 mm 17,4 km/h (3 Bft) W-SW 249 ° 0 min 0,000 mm 0,0 UV-I 5 W/m² -3,2 °C -7,5 °C 25,7 km/h (4 Bft)
17.01.2018 12:18 -2,1 °C 92 % 1004,6 hPa 0,0 mm 21,2 km/h (4 Bft) W-NW 285 ° 0 min 0,000 mm 0,0 UV-I 5 W/m² -3,2 °C -8,1 °C 33,8 km/h (5 Bft)
17.01.2018 12:19 -2,1 °C 92 % 1004,7 hPa 0,0 mm 16,6 km/h (3 Bft) W 265 ° 0 min 0,000 mm 0,0 UV-I 7 W/m² -3,2 °C -7,3 °C 25,7 km/h (4 Bft)
17.01.2018 12:20 -2,1 °C 92 % 1004,5 hPa 0,0 mm 19,2 km/h (3 Bft) N-NW 329 ° 0 min 0,000 mm 0,0 UV-I 7 W/m² -3,2 °C -7,8 °C 25,7 km/h (4 Bft)
17.01.2018 12:21 -2,1 °C 92 % 1004,5 hPa 0,0 mm 10,9 km/h (2 Bft) W-NW 283 ° 0 min 0,000 mm 0,0 UV-I 5 W/m² -3,2 °C -6,1 °C 19,3 km/h (3 Bft)
17.01.2018 12:22 -2,1 °C 92 % 1004,9 hPa 0,0 mm 17,0 km/h (3 Bft) NW 325 ° 0 min 0,000 mm 0,0 UV-I 5 W/m² -3,2 °C -7,4 °C 25,7 km/h (4 Bft)
17.01.2018 12:23 -2,1 °C 92 % 1005,1 hPa 0,0 mm 18,8 km/h (3 Bft) W-SW 250 ° 0 min 0,000 mm 0,0 UV-I 11 W/m² -3,2 °C -7,7 °C 27,4 km/h (4 Bft)
17.01.2018 12:24 -2,1 °C 92 % 1004,8 hPa 0,0 mm 14,9 km/h (3 Bft) W-NW 292 ° 0 min 0,000 mm 0,0 UV-I 16 W/m² -3,2 °C -7,0 °C 24,1 km/h (4 Bft)
17.01.2018 12:25 -2,1 °C 92 % 1004,7 hPa 0,0 mm 12,9 km/h (3 Bft) NW 307 ° 0 min 0,000 mm 0,0 UV-I 19 W/m² -3,2 °C -6,6 °C 17,7 km/h (3 Bft)
17.01.2018 12:26 -2,1 °C 92 % 1004,7 hPa 0,0 mm 12,7 km/h (3 Bft) W-NW 294 ° 0 min 0,000 mm 0,0 UV-I 21 W/m² -3,2 °C -6,5 °C 20,9 km/h (4 Bft)
17.01.2018 12:27 -2,1 °C 92 % 1004,8 hPa 0,0 mm 15,9 km/h (3 Bft) W 261 ° 0 min 0,000 mm 0,0 UV-I 19 W/m² -3,2 °C -7,2 °C 20,9 km/h (4 Bft)
17.01.2018 12:28 -2,1 °C 93 % 1004,8 hPa 0,0 mm 13,3 km/h (3 Bft) W 277 ° 0 min 0,000 mm 0,0 UV-I 18 W/m² -3,1 °C -6,6 °C 17,7 km/h (3 Bft)
17.01.2018 12:29 -2,1 °C 93 % 1004,9 hPa 0,0 mm 16,0 km/h (3 Bft) W 280 ° 0 min 0,000 mm 0,0 UV-I 21 W/m² -3,1 °C -7,2 °C 22,5 km/h (4 Bft)
17.01.2018 12:30 -2,1 °C 93 % 1005,0 hPa 0,0 mm 24,5 km/h (4 Bft) W-NW 286 ° 0 min 0,000 mm 0,0 UV-I 26 W/m² -3,1 °C -8,5 °C 41,8 km/h (6 Bft)
17.01.2018 12:31 -2,1 °C 93 % 1005,0 hPa 0,0 mm 17,7 km/h (3 Bft) W-NW 298 ° 0 min 0,000 mm 0,0 UV-I 35 W/m² -3,1 °C -7,5 °C 22,5 km/h (4 Bft)
17.01.2018 12:32 -2,1 °C 92 % 1004,9 hPa 0,0 mm 18,0 km/h (3 Bft) W-NW 300 ° 0 min 0,000 mm 0,0 UV-I 65 W/m² -3,2 °C -7,6 °C 27,4 km/h (4 Bft)
17.01.2018 12:33 -2,1 °C 92 % 1004,9 hPa 0,0 mm 17,6 km/h (3 Bft) W-NW 288 ° 0 min 0,000 mm 0,0 UV-I 72 W/m² -3,2 °C -7,5 °C 24,1 km/h (4 Bft)
17.01.2018 12:34 -2,0 °C 93 % 1004,8 hPa 0,0 mm 15,8 km/h (3 Bft) W-SW 253 ° 0 min 0,000 mm 0,0 UV-I 70 W/m² -3,0 °C -7,0 °C 24,1 km/h (4 Bft)
17.01.2018 12:35 -2,0 °C 93 % 1004,9 hPa 0,0 mm 16,6 km/h (3 Bft) NW 311 ° 0 min 0,000 mm 0,0 UV-I 70 W/m² -3,0 °C -7,2 °C 24,1 km/h (4 Bft)
17.01.2018 12:36 -1,9 °C 93 % 1004,9 hPa 0,0 mm 11,6 km/h (2 Bft) W-SW 257 ° 0 min 0,000 mm 0,0 UV-I 63 W/m² -2,9 °C -6,0 °C 17,7 km/h (3 Bft)
17.01.2018 12:37 -1,9 °C 93 % 1004,9 hPa 0,0 mm 10,0 km/h (2 Bft) W-SW 239 ° 0 min 0,000 mm 0,0 UV-I 58 W/m² -2,9 °C -5,6 °C 14,5 km/h (3 Bft)
17.01.2018 12:38 -1,8 °C 93 % 1004,9 hPa 0,0 mm 8,0 km/h (2 Bft) W 259 ° 0 min 0,000 mm 0,0 UV-I 62 W/m² -2,8 °C -4,9 °C 11,3 km/h (2 Bft)
17.01.2018 12:39 -1,8 °C 93 % 1005,0 hPa 0,0 mm 13,9 km/h (3 Bft) NW 306 ° 0 min 0,000 mm 0,0 UV-I 69 W/m² -2,8 °C -6,4 °C 19,3 km/h (3 Bft)
17.01.2018 12:40 -1,8 °C 93 % 1004,8 hPa 0,0 mm 12,8 km/h (3 Bft) SW 219 ° 0 min 0,000 mm 0,0 UV-I 70 W/m² -2,8 °C -6,2 °C 17,7 km/h (3 Bft)
17.01.2018 12:41 -1,7 °C 93 % 1004,8 hPa 0,0 mm 12,6 km/h (3 Bft) W 269 ° 0 min 0,000 mm 0,0 UV-I 65 W/m² -2,7 °C -6,0 °C 17,7 km/h (3 Bft)
17.01.2018 12:42 -1,7 °C 93 % 1004,8 hPa 0,0 mm 11,1 km/h (2 Bft) W-SW 241 ° 0 min 0,000 mm 0,0 UV-I 62 W/m² -2,7 °C -5,6 °C 14,5 km/h (3 Bft)
17.01.2018 12:43 -1,7 °C 93 % 1004,8 hPa 0,0 mm 16,0 km/h (3 Bft) W 264 ° 0 min 0,000 mm 0,0 UV-I 60 W/m² -2,7 °C -6,7 °C 25,7 km/h (4 Bft)
17.01.2018 12:44 -1,6 °C 93 % 1004,9 hPa 0,0 mm 14,7 km/h (3 Bft) W 265 ° 0 min 0,000 mm 0,0 UV-I 44 W/m² -2,6 °C -6,3 °C 19,3 km/h (3 Bft)
17.01.2018 12:45 -1,6 °C 93 % 1004,8 hPa 0,0 mm 16,0 km/h (3 Bft) W-NW 298 ° 0 min 0,000 mm 0,0 UV-I 40 W/m² -2,6 °C -6,6 °C 20,9 km/h (4 Bft)
17.01.2018 12:46 -1,6 °C 93 % 1004,7 hPa 0,0 mm 13,3 km/h (3 Bft) W 271 ° 0 min 0,000 mm 0,0 UV-I 37 W/m² -2,6 °C -6,0 °C 16,1 km/h (3 Bft)
17.01.2018 12:47 -1,6 °C 93 % 1004,7 hPa 0,0 mm 12,7 km/h (3 Bft) W-NW 286 ° 0 min 0,000 mm 0,0 UV-I 33 W/m² -2,6 °C -5,9 °C 16,1 km/h (3 Bft)
17.01.2018 12:48 -1,6 °C 92 % 1004,7 hPa 0,0 mm 10,5 km/h (2 Bft) W-SW 254 ° 0 min 0,000 mm 0,0 UV-I 32 W/m² -2,7 °C -5,4 °C 14,5 km/h (3 Bft)
17.01.2018 12:49 -1,6 °C 92 % 1004,7 hPa 0,0 mm 11,3 km/h (2 Bft) W 265 ° 0 min 0,000 mm 0,0 UV-I 30 W/m² -2,7 °C -5,6 °C 16,1 km/h (3 Bft)
17.01.2018 12:50 -1,5 °C 92 % 1004,7 hPa 0,0 mm 9,0 km/h (2 Bft) W 270 ° 0 min 0,000 mm 0,0 UV-I 26 W/m² -2,6 °C -4,8 °C 12,9 km/h (3 Bft)
17.01.2018 12:51 -1,5 °C 92 % 1004,8 hPa 0,0 mm 12,0 km/h (2 Bft) W-NW 290 ° 0 min 0,000 mm 0,0 UV-I 26 W/m² -2,6 °C -5,6 °C 17,7 km/h (3 Bft)
17.01.2018 12:52 -1,5 °C 92 % 1004,8 hPa 0,0 mm 10,7 km/h (2 Bft) W-SW 251 ° 0 min 0,000 mm 0,0 UV-I 25 W/m² -2,6 °C -5,3 °C 17,7 km/h (3 Bft)
17.01.2018 12:53 -1,5 °C 92 % 1004,8 hPa 0,0 mm 16,1 km/h (3 Bft) W 275 ° 0 min 0,000 mm 0,0 UV-I 23 W/m² -2,6 °C -6,5 °C 25,7 km/h (4 Bft)
17.01.2018 12:54 -1,5 °C 92 % 1004,8 hPa 0,0 mm 15,2 km/h (3 Bft) W 259 ° 0 min 0,000 mm 0,0 UV-I 19 W/m² -2,6 °C -6,3 °C 20,9 km/h (4 Bft)
17.01.2018 12:55 -1,5 °C 92 % 1004,8 hPa 0,0 mm 16,3 km/h (3 Bft) W 263 ° 0 min 0,000 mm 0,0 UV-I 18 W/m² -2,6 °C -6,5 °C 27,4 km/h (4 Bft)
17.01.2018 12:56 -1,4 °C 92 % 1004,8 hPa 0,0 mm 21,8 km/h (4 Bft) W-NW 297 ° 0 min 0,000 mm 0,0 UV-I 16 W/m² -2,5 °C -7,3 °C 32,2 km/h (5 Bft)
17.01.2018 12:57 -1,5 °C 92 % 1004,8 hPa 0,0 mm 11,1 km/h (2 Bft) W 275 ° 0 min 0,000 mm 0,0 UV-I 16 W/m² -2,6 °C -5,4 °C 19,3 km/h (3 Bft)
17.01.2018 12:58 -1,5 °C 92 % 1004,7 hPa 0,0 mm 13,8 km/h (3 Bft) W-SW 240 ° 0 min 0,000 mm 0,0 UV-I 16 W/m² -2,6 °C -6,0 °C 20,9 km/h (4 Bft)
17.01.2018 12:59 -1,5 °C 92 % 1004,7 hPa 0,0 mm 11,5 km/h (2 Bft) W-NW 286 ° 0 min 0,000 mm 0,0 UV-I 14 W/m² -2,6 °C -5,5 °C 14,5 km/h (3 Bft)
17.01.2018 13:00 -1,5 °C 92 % 1004,8 hPa 0,0 mm 13,1 km/h (3 Bft) W 268 ° 0 min 0,026 mm 0,0 UV-I 12 W/m² -2,6 °C -5,9 °C 19,3 km/h (3 Bft)
17.01.2018 13:01 -1,5 °C 92 % 1004,8 hPa 0,0 mm 10,1 km/h (2 Bft) W 265 ° 0 min 0,000 mm 0,0 UV-I 11 W/m² -2,6 °C -5,1 °C 14,5 km/h (3 Bft)
17.01.2018 13:02 -1,5 °C 92 % 1004,8 hPa 0,0 mm 12,1 km/h (2 Bft) W-NW 302 ° 0 min 0,000 mm 0,0 UV-I 9 W/m² -2,6 °C -5,6 °C 17,7 km/h (3 Bft)
17.01.2018 13:03 -1,5 °C 92 % 1004,9 hPa 0,0 mm 15,5 km/h (3 Bft) W 265 ° 0 min 0,000 mm 0,0 UV-I 7 W/m² -2,6 °C -6,4 °C 20,9 km/h (4 Bft)
17.01.2018 13:04 -1,6 °C 92 % 1005,0 hPa 0,0 mm 14,5 km/h (3 Bft) NW 323 ° 0 min 0,000 mm 0,0 UV-I 7 W/m² -2,7 °C -6,3 °C 20,9 km/h (4 Bft)
17.01.2018 13:05 -1,6 °C 92 % 1004,9 hPa 0,0 mm 13,2 km/h (3 Bft) NW 304 ° 0 min 0,000 mm 0,0 UV-I 7 W/m² -2,7 °C -6,0 °C 22,5 km/h (4 Bft)
17.01.2018 13:06 -1,5 °C 92 % 1005,0 hPa 0,0 mm 17,3 km/h (3 Bft) NW 317 ° 0 min 0,000 mm 0,0 UV-I 7 W/m² -2,6 °C -6,7 °C 24,1 km/h (4 Bft)
17.01.2018 13:07 -1,6 °C 92 % 1005,0 hPa 0,0 mm 11,1 km/h (2 Bft) W 265 ° 0 min 0,000 mm 0,0 UV-I 5 W/m² -2,7 °C -5,5 °C 16,1 km/h (3 Bft)
17.01.2018 13:08 -1,6 °C 92 % 1005,2 hPa 0,0 mm 16,1 km/h (3 Bft) NW 309 ° 0 min 0,000 mm 0,0 UV-I 5 W/m² -2,7 °C -6,6 °C 22,5 km/h (4 Bft)
17.01.2018 13:09 -1,6 °C 92 % 1005,5 hPa 0,0 mm 20,7 km/h (4 Bft) W-NW 292 ° 0 min 0,000 mm 0,0 UV-I 0 W/m² -2,7 °C -7,4 °C 25,7 km/h (4 Bft)
17.01.2018 13:10 -1,6 °C 92 % 1005,9 hPa 0,0 mm 16,5 km/h (3 Bft) N-NW 329 ° 0 min 0,000 mm 0,0 UV-I 0 W/m² -2,7 °C -6,7 °C 27,4 km/h (4 Bft)
17.01.2018 13:11 -1,6 °C 92 % 1006,1 hPa 0,0 mm 11,6 km/h (2 Bft) N-NW 333 ° 0 min 0,000 mm 0,0 UV-I 0 W/m² -2,7 °C -5,6 °C 20,9 km/h (4 Bft)
17.01.2018 13:12 -1,6 °C 92 % 1006,3 hPa 0,0 mm 16,6 km/h (3 Bft) W 276 ° 0 min 0,000 mm 0,0 UV-I 0 W/m² -2,7 °C -6,7 °C 25,7 km/h (4 Bft)
17.01.2018 13:13 -1,6 °C 92 % 1006,3 hPa 0,0 mm 16,9 km/h (3 Bft) W-NW 284 ° 0 min 0,000 mm 0,0 UV-I 0 W/m² -2,7 °C -6,7 °C 27,4 km/h (4 Bft)
17.01.2018 13:14 -1,7 °C 92 % 1006,4 hPa 0,0 mm 18,8 km/h (3 Bft) W-NW 290 ° 0 min 0,000 mm 0,0 UV-I 0 W/m² -2,8 °C -7,2 °C 22,5 km/h (4 Bft)
17.01.2018 13:15 -1,7 °C 92 % 1006,1 hPa 0,0 mm 12,6 km/h (3 Bft) W 266 ° 0 min 0,000 mm 0,0 UV-I 7 W/m² -2,8 °C -6,0 °C 14,5 km/h (3 Bft)
17.01.2018 13:16 -1,8 °C 92 % 1005,9 hPa 0,0 mm 11,1 km/h (2 Bft) W-NW 284 ° 0 min 0,000 mm 0,0 UV-I 14 W/m² -2,9 °C -5,8 °C 16,1 km/h (3 Bft)
17.01.2018 13:17 -1,8 °C 92 % 1005,8 hPa 0,0 mm 12,5 km/h (3 Bft) W-SW 256 ° 0 min 0,000 mm 0,0 UV-I 21 W/m² -2,9 °C -6,1 °C 19,3 km/h (3 Bft)
17.01.2018 13:18 -1,8 °C 92 % 1005,8 hPa 0,0 mm 16,9 km/h (3 Bft) W 270 ° 0 min 0,000 mm 0,0 UV-I 26 W/m² -2,9 °C -7,0 °C 22,5 km/h (4 Bft)
17.01.2018 13:19 -1,9 °C 92 % 1005,9 hPa 0,0 mm 18,4 km/h (3 Bft) W-NW 301 ° 0 min 0,000 mm 0,0 UV-I 37 W/m² -3,0 °C -7,4 °C 25,7 km/h (4 Bft)
17.01.2018 13:20 -1,9 °C 92 % 1005,9 hPa 0,0 mm 12,2 km/h (2 Bft) W 273 ° 0 min 0,000 mm 0,0 UV-I 44 W/m² -3,0 °C -6,2 °C 19,3 km/h (3 Bft)
17.01.2018 13:21 -1,9 °C 92 % 1005,9 hPa 0,0 mm 18,0 km/h (3 Bft) W-SW 243 ° 0 min 0,000 mm 0,0 UV-I 47 W/m² -3,0 °C -7,3 °C 30,6 km/h (5 Bft)
17.01.2018 13:22 -1,9 °C 92 % 1005,9 hPa 0,0 mm 23,8 km/h (4 Bft) W-SW 257 ° 0 min 0,000 mm 0,0 UV-I 46 W/m² -3,0 °C -8,2 °C 38,6 km/h (5 Bft)
17.01.2018 13:23 -1,9 °C 92 % 1005,9 hPa 0,0 mm 18,3 km/h (3 Bft) W 267 ° 0 min 0,000 mm 0,0 UV-I 42 W/m² -3,0 °C -7,4 °C 29,0 km/h (5 Bft)
17.01.2018 13:24 -1,9 °C 92 % 1005,9 hPa 0,0 mm 19,3 km/h (3 Bft) W-NW 286 ° 0 min 0,000 mm 0,0 UV-I 42 W/m² -3,0 °C -7,5 °C 25,7 km/h (4 Bft)
17.01.2018 13:25 -2,0 °C 92 % 1005,9 hPa 0,0 mm 12,9 km/h (3 Bft) NW 316 ° 0 min 0,000 mm 0,0 UV-I 39 W/m² -3,1 °C -6,4 °C 24,1 km/h (4 Bft)
17.01.2018 13:26 -2,0 °C 92 % 1006,0 hPa 0,0 mm 13,8 km/h (3 Bft) W 275 ° 0 min 0,000 mm 0,0 UV-I 33 W/m² -3,1 °C -6,6 °C 17,7 km/h (3 Bft)
17.01.2018 13:27 -2,0 °C 92 % 1006,0 hPa 0,0 mm 16,7 km/h (3 Bft) NW 317 ° 0 min 0,000 mm 0,0 UV-I 28 W/m² -3,1 °C -7,2 °C 24,1 km/h (4 Bft)
17.01.2018 13:28 -2,0 °C 92 % 1006,2 hPa 0,0 mm 15,8 km/h (3 Bft) W-NW 296 ° 0 min 0,000 mm 0,0 UV-I 23 W/m² -3,1 °C -7,0 °C 20,9 km/h (4 Bft)
17.01.2018 13:29 -2,0 °C 92 % 1006,2 hPa 0,0 mm 15,5 km/h (3 Bft) W-NW 284 ° 0 min 0,000 mm 0,0 UV-I 21 W/m² -3,1 °C -7,0 °C 20,9 km/h (4 Bft)
17.01.2018 13:30 -2,1 °C 92 % 1006,2 hPa 0,0 mm 17,8 km/h (3 Bft) W 275 ° 0 min 0,000 mm 0,0 UV-I 18 W/m² -3,2 °C -7,5 °C 24,1 km/h (4 Bft)
17.01.2018 13:31 -2,1 °C 92 % 1006,3 hPa 0,0 mm 19,6 km/h (3 Bft) W-NW 284 ° 0 min 0,000 mm 0,0 UV-I 16 W/m² -3,2 °C -7,8 °C 27,4 km/h (4 Bft)
17.01.2018 13:32 -2,0 °C 92 % 1006,4 hPa 0,0 mm 16,6 km/h (3 Bft) W-NW 302 ° 0 min 0,000 mm 0,0 UV-I 18 W/m² -3,1 °C -7,2 °C 22,5 km/h (4 Bft)
17.01.2018 13:33 -2,1 °C 92 % 1006,4 hPa 0,0 mm 15,7 km/h (3 Bft) W-NW 294 ° 0 min 0,000 mm 0,0 UV-I 21 W/m² -3,2 °C -7,1 °C 22,5 km/h (4 Bft)
17.01.2018 13:34 -2,1 °C 92 % 1006,5 hPa 0,0 mm 14,8 km/h (3 Bft) W-NW 285 ° 0 min 0,000 mm 0,0 UV-I 28 W/m² -3,2 °C -7,0 °C 17,7 km/h (3 Bft)
17.01.2018 13:35 -2,1 °C 92 % 1006,5 hPa 0,0 mm 15,0 km/h (3 Bft) W 268 ° 0 min 0,000 mm 0,0 UV-I 32 W/m² -3,2 °C -7,0 °C 27,4 km/h (4 Bft)
17.01.2018 13:36 -2,0 °C 93 % 1006,5 hPa 0,0 mm 13,2 km/h (3 Bft) W-NW 303 ° 0 min 0,000 mm 0,0 UV-I 35 W/m² -3,0 °C -6,5 °C 16,1 km/h (3 Bft)
17.01.2018 13:37 -2,0 °C 93 % 1006,7 hPa 0,0 mm 12,5 km/h (3 Bft) W-SW 253 ° 0 min 0,000 mm 0,0 UV-I 56 W/m² -3,0 °C -6,3 °C 24,1 km/h (4 Bft)
17.01.2018 13:38 -1,9 °C 93 % 1006,7 hPa 0,0 mm 22,0 km/h (4 Bft) W-NW 282 ° 0 min 0,000 mm 0,0 UV-I 62 W/m² -2,9 °C -7,9 °C 32,2 km/h (5 Bft)
17.01.2018 13:39 -1,9 °C 93 % 1006,7 hPa 0,0 mm 22,2 km/h (4 Bft) W 263 ° 0 min 0,000 mm 0,0 UV-I 69 W/m² -2,9 °C -8,0 °C 32,2 km/h (5 Bft)
17.01.2018 13:40 -1,9 °C 93 % 1006,8 hPa 0,0 mm 20,9 km/h (4 Bft) W-NW 293 ° 0 min 0,000 mm 0,0 UV-I 76 W/m² -2,9 °C -7,8 °C 32,2 km/h (5 Bft)
17.01.2018 13:41 -1,9 °C 93 % 1006,9 hPa 0,0 mm 24,0 km/h (4 Bft) W 270 ° 0 min 0,000 mm 0,0 UV-I 86 W/m² -2,9 °C -8,2 °C 33,8 km/h (5 Bft)
17.01.2018 13:42 -1,8 °C 92 % 1006,9 hPa 0,0 mm 16,6 km/h (3 Bft) W 268 ° 0 min 0,000 mm 0,0 UV-I 88 W/m² -2,9 °C -6,9 °C 27,4 km/h (4 Bft)
17.01.2018 13:43 -1,8 °C 92 % 1007,0 hPa 0,0 mm 22,5 km/h (4 Bft) W 269 ° 0 min 0,000 mm 0,0 UV-I 84 W/m² -2,9 °C -7,9 °C 29,0 km/h (5 Bft)
17.01.2018 13:44 -1,8 °C 93 % 1007,0 hPa 0,0 mm 19,3 km/h (3 Bft) W 273 ° 0 min 0,000 mm 0,0 UV-I 74 W/m² -2,8 °C -7,4 °C 30,6 km/h (5 Bft)
17.01.2018 13:45 -1,7 °C 93 % 1007,0 hPa 0,0 mm 21,8 km/h (4 Bft) W 276 ° 0 min 0,000 mm 0,0 UV-I 67 W/m² -2,7 °C -7,7 °C 27,4 km/h (4 Bft)
17.01.2018 13:46 -1,7 °C 92 % 1007,0 hPa 0,0 mm 28,4 km/h (4 Bft) W 273 ° 0 min 0,000 mm 0,0 UV-I 62 W/m² -2,8 °C -8,5 °C 46,7 km/h (6 Bft)
17.01.2018 13:47 -1,7 °C 92 % 1007,0 hPa 0,0 mm 17,9 km/h (3 Bft) W 277 ° 0 min 0,000 mm 0,0 UV-I 53 W/m² -2,8 °C -7,0 °C 33,8 km/h (5 Bft)
17.01.2018 13:48 -1,7 °C 92 % 1007,3 hPa 0,0 mm 23,3 km/h (4 Bft) W-SW 254 ° 0 min 0,000 mm 0,0 UV-I 54 W/m² -2,8 °C -7,9 °C 37,0 km/h (5 Bft)
17.01.2018 13:49 -1,7 °C 92 % 1007,1 hPa 0,0 mm 18,0 km/h (3 Bft) W 280 ° 0 min 0,000 mm 0,0 UV-I 39 W/m² -2,8 °C -7,1 °C 22,5 km/h (4 Bft)
17.01.2018 13:50 -1,7 °C 92 % 1007,1 hPa 0,0 mm 17,0 km/h (3 Bft) W-NW 286 ° 0 min 0,000 mm 0,0 UV-I 33 W/m² -2,8 °C -6,9 °C 24,1 km/h (4 Bft)
17.01.2018 13:51 -1,7 °C 92 % 1007,1 hPa 0,0 mm 20,7 km/h (4 Bft) W 272 ° 0 min 0,000 mm 0,0 UV-I 28 W/m² -2,8 °C -7,5 °C 32,2 km/h (5 Bft)
17.01.2018 13:52 -1,7 °C 92 % 1007,1 hPa 0,0 mm 24,0 km/h (4 Bft) W 267 ° 0 min 0,000 mm 0,0 UV-I 25 W/m² -2,8 °C -8,0 °C 33,8 km/h (5 Bft)
17.01.2018 13:53 -1,7 °C 91 % 1007,1 hPa 0,0 mm 14,3 km/h (3 Bft) W-NW 283 ° 0 min 0,000 mm 0,0 UV-I 25 W/m² -3,0 °C -6,4 °C 17,7 km/h (3 Bft)
17.01.2018 13:54 -1,7 °C 91 % 1007,2 hPa 0,0 mm 19,5 km/h (3 Bft) W-NW 296 ° 0 min 0,000 mm 0,0 UV-I 37 W/m² -3,0 °C -7,3 °C 37,0 km/h (5 Bft)
17.01.2018 13:55 -1,8 °C 91 % 1007,4 hPa 0,0 mm 13,7 km/h (3 Bft) W 272 ° 0 min 0,000 mm 0,0 UV-I 33 W/m² -3,1 °C -6,4 °C 17,7 km/h (3 Bft)
17.01.2018 13:56 -1,8 °C 91 % 1007,4 hPa 0,0 mm 15,0 km/h (3 Bft) W 264 ° 0 min 0,000 mm 0,0 UV-I 26 W/m² -3,1 °C -6,6 °C 20,9 km/h (4 Bft)
17.01.2018 13:57 -1,8 °C 91 % 1007,4 hPa 0,0 mm 17,8 km/h (3 Bft) W 259 ° 0 min 0,000 mm 0,0 UV-I 25 W/m² -3,1 °C -7,2 °C 27,4 km/h (4 Bft)
17.01.2018 13:58 -1,8 °C 91 % 1007,4 hPa 0,0 mm 21,5 km/h (4 Bft) W 261 ° 0 min 0,000 mm 0,0 UV-I 23 W/m² -3,1 °C -7,7 °C 33,8 km/h (5 Bft)
17.01.2018 13:59 -1,8 °C 91 % 1007,4 hPa 0,0 mm 20,7 km/h (4 Bft) W-NW 298 ° 0 min 0,000 mm 0,0 UV-I 21 W/m² -3,1 °C -7,6 °C 29,0 km/h (5 Bft)
17.01.2018 14:00 -1,8 °C 91 % 1007,3 hPa 0,0 mm 13,9 km/h (3 Bft) W-NW 302 ° 0 min 0,025 mm 0,0 UV-I 19 W/m² -3,1 °C -6,4 °C 17,7 km/h (3 Bft)
17.01.2018 14:01 -1,8 °C 91 % 1007,2 hPa 0,0 mm 13,6 km/h (3 Bft) NW 309 ° 0 min 0,000 mm 0,0 UV-I 18 W/m² -3,1 °C -6,3 °C 22,5 km/h (4 Bft)
17.01.2018 14:02 -1,8 °C 91 % 1007,3 hPa 0,0 mm 13,8 km/h (3 Bft) W 262 ° 0 min 0,000 mm 0,0 UV-I 18 W/m² -3,1 °C -6,4 °C 20,9 km/h (4 Bft)
17.01.2018 14:03 -1,9 °C 91 % 1007,3 hPa 0,0 mm 23,9 km/h (4 Bft) NW 322 ° 0 min 0,000 mm 0,0 UV-I 18 W/m² -3,2 °C -8,2 °C 33,8 km/h (5 Bft)
17.01.2018 14:04 -1,9 °C 90 % 1007,5 hPa 0,0 mm 15,2 km/h (3 Bft) W 272 ° 0 min 0,000 mm 0,0 UV-I 18 W/m² -3,3 °C -6,8 °C 19,3 km/h (3 Bft)
17.01.2018 14:05 -1,9 °C 90 % 1007,5 hPa 0,0 mm 15,0 km/h (3 Bft) W-NW 300 ° 0 min 0,000 mm 0,0 UV-I 21 W/m² -3,3 °C -6,8 °C 22,5 km/h (4 Bft)
17.01.2018 14:06 -1,9 °C 90 % 1007,6 hPa 0,0 mm 15,3 km/h (3 Bft) W-SW 244 ° 0 min 0,000 mm 0,0 UV-I 35 W/m² -3,3 °C -6,8 °C 27,4 km/h (4 Bft)
17.01.2018 14:07 -1,9 °C 90 % 1007,6 hPa 0,0 mm 15,9 km/h (3 Bft) W 275 ° 0 min 0,000 mm 0,0 UV-I 39 W/m² -3,3 °C -6,9 °C 22,5 km/h (4 Bft)
17.01.2018 14:08 -1,9 °C 90 % 1007,6 hPa 0,0 mm 17,8 km/h (3 Bft) W 271 ° 0 min 0,000 mm 0,0 UV-I 44 W/m² -3,3 °C -7,3 °C 22,5 km/h (4 Bft)
17.01.2018 14:09 -1,9 °C 90 % 1007,5 hPa 0,0 mm 14,1 km/h (3 Bft) W-NW 284 ° 0 min 0,000 mm 0,0 UV-I 39 W/m² -3,3 °C -6,6 °C 20,9 km/h (4 Bft)
17.01.2018 14:10 -1,9 °C 90 % 1007,6 hPa 0,0 mm 17,6 km/h (3 Bft) W-NW 282 ° 0 min 0,000 mm 0,0 UV-I 35 W/m² -3,3 °C -7,2 °C 25,7 km/h (4 Bft)
17.01.2018 14:11 -1,9 °C 90 % 1007,6 hPa 0,0 mm 15,3 km/h (3 Bft) W-NW 289 ° 0 min 0,000 mm 0,0 UV-I 33 W/m² -3,3 °C -6,8 °C 22,5 km/h (4 Bft)
17.01.2018 14:12 -1,9 °C 90 % 1007,8 hPa 0,0 mm 13,8 km/h (3 Bft) W 280 ° 0 min 0,000 mm 0,0 UV-I 33 W/m² -3,3 °C -6,5 °C 22,5 km/h (4 Bft)
17.01.2018 14:13 -1,9 °C 90 % 1007,8 hPa 0,0 mm 21,5 km/h (4 Bft) W-NW 296 ° 0 min 0,000 mm 0,0 UV-I 37 W/m² -3,3 °C -7,9 °C 29,0 km/h (5 Bft)
17.01.2018 14:14 -1,9 °C 90 % 1007,8 hPa 0,0 mm 13,9 km/h (3 Bft) W 269 ° 0 min 0,000 mm 0,0 UV-I 37 W/m² -3,3 °C -6,5 °C 17,7 km/h (3 Bft)
17.01.2018 14:15 -1,9 °C 90 % 1007,9 hPa 0,0 mm 15,8 km/h (3 Bft) W 270 ° 0 min 0,000 mm 0,0 UV-I 39 W/m² -3,3 °C -6,9 °C 20,9 km/h (4 Bft)
17.01.2018 14:16 -1,9 °C 90 % 1008,0 hPa 0,0 mm 20,4 km/h (4 Bft) NW 312 ° 0 min 0,000 mm 0,0 UV-I 39 W/m² -3,3 °C -7,7 °C 29,0 km/h (5 Bft)
17.01.2018 14:17 -1,9 °C 90 % 1008,0 hPa 0,0 mm 15,6 km/h (3 Bft) W 272 ° 0 min 0,000 mm 0,0 UV-I 35 W/m² -3,3 °C -6,9 °C 24,1 km/h (4 Bft)
17.01.2018 14:18 -1,9 °C 90 % 1008,2 hPa 0,0 mm 17,8 km/h (3 Bft) W-NW 300 ° 0 min 0,000 mm 0,0 UV-I 28 W/m² -3,3 °C -7,3 °C 22,5 km/h (4 Bft)
17.01.2018 14:19 -1,9 °C 90 % 1008,1 hPa 0,0 mm 19,0 km/h (3 Bft) W 268 ° 0 min 0,000 mm 0,0 UV-I 28 W/m² -3,3 °C -7,5 °C 25,7 km/h (4 Bft)
17.01.2018 14:20 -1,9 °C 90 % 1008,0 hPa 0,0 mm 20,2 km/h (4 Bft) W-SW 248 ° 0 min 0,000 mm 0,0 UV-I 26 W/m² -3,3 °C -7,7 °C 30,6 km/h (5 Bft)
17.01.2018 14:21 -1,9 °C 90 % 1008,1 hPa 0,0 mm 22,3 km/h (4 Bft) W-SW 247 ° 0 min 0,000 mm 0,0 UV-I 23 W/m² -3,3 °C -8,0 °C 25,7 km/h (4 Bft)
17.01.2018 14:22 -1,9 °C 90 % 1008,0 hPa 0,0 mm 13,9 km/h (3 Bft) W-NW 293 ° 0 min 0,000 mm 0,0 UV-I 23 W/m² -3,3 °C -6,5 °C 19,3 km/h (3 Bft)
17.01.2018 14:23 -1,9 °C 90 % 1008,0 hPa 0,0 mm 10,4 km/h (2 Bft) W-SW 252 ° 0 min 0,000 mm 0,0 UV-I 26 W/m² -3,3 °C -5,7 °C 16,1 km/h (3 Bft)
17.01.2018 14:24 -1,9 °C 90 % 1008,1 hPa 0,0 mm 14,4 km/h (3 Bft) W-SW 256 ° 0 min 0,000 mm 0,0 UV-I 42 W/m² -3,3 °C -6,6 °C 19,3 km/h (3 Bft)
17.01.2018 14:25 -1,9 °C 89 % 1008,1 hPa 0,0 mm 19,8 km/h (3 Bft) W 268 ° 0 min 0,000 mm 0,0 UV-I 40 W/m² -3,5 °C -7,6 °C 24,1 km/h (4 Bft)
17.01.2018 14:26 -1,9 °C 89 % 1008,1 hPa 0,0 mm 18,6 km/h (3 Bft) NW 305 ° 0 min 0,000 mm 0,0 UV-I 40 W/m² -3,5 °C -7,4 °C 24,1 km/h (4 Bft)
17.01.2018 14:27 -1,9 °C 89 % 1008,1 hPa 0,0 mm 17,4 km/h (3 Bft) W-NW 293 ° 0 min 0,000 mm 0,0 UV-I 39 W/m² -3,5 °C -7,2 °C 22,5 km/h (4 Bft)
17.01.2018 14:28 -2,0 °C 90 % 1008,1 hPa 0,0 mm 10,1 km/h (2 Bft) W-SW 246 ° 0 min 0,000 mm 0,0 UV-I 37 W/m² -3,4 °C -5,7 °C 14,5 km/h (3 Bft)
17.01.2018 14:29 -1,9 °C 90 % 1008,2 hPa 0,0 mm 17,7 km/h (3 Bft) W-SW 250 ° 0 min 0,000 mm 0,0 UV-I 40 W/m² -3,3 °C -7,3 °C 25,7 km/h (4 Bft)
17.01.2018 14:30 -2,0 °C 90 % 1008,2 hPa 0,0 mm 14,8 km/h (3 Bft) W 280 ° 0 min 0,000 mm 0,0 UV-I 39 W/m² -3,4 °C -6,8 °C 27,4 km/h (4 Bft)
17.01.2018 14:31 -2,0 °C 90 % 1008,2 hPa 0,0 mm 17,6 km/h (3 Bft) W-SW 248 ° 0 min 0,000 mm 0,0 UV-I 40 W/m² -3,4 °C -7,4 °C 24,1 km/h (4 Bft)
17.01.2018 14:32 -2,0 °C 90 % 1008,3 hPa 0,0 mm 14,0 km/h (3 Bft) W 263 ° 0 min 0,000 mm 0,0 UV-I 54 W/m² -3,4 °C -6,7 °C 17,7 km/h (3 Bft)
17.01.2018 14:33 -2,0 °C 90 % 1008,2 hPa 0,0 mm 19,4 km/h (3 Bft) W 260 ° 0 min 0,000 mm 0,0 UV-I 65 W/m² -3,4 °C -7,7 °C 25,7 km/h (4 Bft)
17.01.2018 14:34 -1,9 °C 89 % 1008,2 hPa 0,0 mm 12,9 km/h (3 Bft) W 270 ° 0 min 0,000 mm 0,0 UV-I 72 W/m² -3,5 °C -6,3 °C 20,9 km/h (4 Bft)
17.01.2018 14:35 -2,0 °C 89 % 1008,2 hPa 0,0 mm 12,9 km/h (3 Bft) W 269 ° 0 min 0,000 mm 0,0 UV-I 81 W/m² -3,6 °C -6,4 °C 17,7 km/h (3 Bft)
17.01.2018 14:36 -1,9 °C 89 % 1008,3 hPa 0,0 mm 13,1 km/h (3 Bft) W 260 ° 0 min 0,000 mm 0,0 UV-I 77 W/m² -3,5 °C -6,4 °C 19,3 km/h (3 Bft)
17.01.2018 14:37 -1,9 °C 89 % 1008,3 hPa 0,0 mm 21,7 km/h (4 Bft) SW 225 ° 0 min 0,000 mm 0,0 UV-I 74 W/m² -3,5 °C -7,9 °C 37,0 km/h (5 Bft)
17.01.2018 14:38 -1,9 °C 89 % 1008,3 hPa 0,0 mm 13,7 km/h (3 Bft) W 266 ° 0 min 0,000 mm 0,0 UV-I 72 W/m² -3,5 °C -6,5 °C 20,9 km/h (4 Bft)
17.01.2018 14:39 -1,9 °C 89 % 1008,4 hPa 0,0 mm 20,0 km/h (4 Bft) W 267 ° 0 min 0,000 mm 0,0 UV-I 72 W/m² -3,5 °C -7,6 °C 25,7 km/h (4 Bft)
17.01.2018 14:40 -1,9 °C 89 % 1008,4 hPa 0,0 mm 17,8 km/h (3 Bft) NW 306 ° 0 min 0,000 mm 0,0 UV-I 70 W/m² -3,5 °C -7,3 °C 22,5 km/h (4 Bft)
17.01.2018 14:41 -1,9 °C 89 % 1008,4 hPa 0,0 mm 17,8 km/h (3 Bft) W 267 ° 0 min 0,000 mm 0,0 UV-I 70 W/m² -3,5 °C -7,3 °C 27,4 km/h (4 Bft)
17.01.2018 14:42 -1,9 °C 89 % 1008,4 hPa 0,0 mm 19,7 km/h (3 Bft) W 259 ° 0 min 0,000 mm 0,0 UV-I 70 W/m² -3,5 °C -7,6 °C 27,4 km/h (4 Bft)
17.01.2018 14:43 -1,9 °C 89 % 1008,4 hPa 0,0 mm 18,1 km/h (3 Bft) W 259 ° 0 min 0,000 mm 0,0 UV-I 76 W/m² -3,5 °C -7,3 °C 25,7 km/h (4 Bft)
17.01.2018 14:44 -1,9 °C 89 % 1008,4 hPa 0,0 mm 14,0 km/h (3 Bft) W 273 ° 0 min 0,000 mm 0,0 UV-I 77 W/m² -3,5 °C -6,6 °C 19,3 km/h (3 Bft)
17.01.2018 14:45 -1,9 °C 89 % 1008,4 hPa 0,0 mm 14,4 km/h (3 Bft) W-SW 238 ° 0 min 0,000 mm 0,0 UV-I 65 W/m² -3,5 °C -6,6 °C 20,9 km/h (4 Bft)
17.01.2018 14:46 -1,9 °C 89 % 1008,3 hPa 0,0 mm 12,8 km/h (3 Bft) W-SW 252 ° 0 min 0,000 mm 0,0 UV-I 70 W/m² -3,5 °C -6,3 °C 17,7 km/h (3 Bft)
17.01.2018 14:47 -1,9 °C 88 % 1008,4 hPa 0,0 mm 14,0 km/h (3 Bft) W 268 ° 0 min 0,000 mm 0,0 UV-I 63 W/m² -3,6 °C -6,6 °C 19,3 km/h (3 Bft)
17.01.2018 14:48 -1,9 °C 88 % 1008,4 hPa 0,0 mm 18,6 km/h (3 Bft) W-SW 255 ° 0 min 0,000 mm 0,0 UV-I 56 W/m² -3,6 °C -7,4 °C 25,7 km/h (4 Bft)
17.01.2018 14:49 -1,9 °C 88 % 1008,4 hPa 0,0 mm 19,4 km/h (3 Bft) W-SW 254 ° 0 min 0,000 mm 0,0 UV-I 60 W/m² -3,6 °C -7,5 °C 32,2 km/h (5 Bft)
17.01.2018 14:50 -1,9 °C 88 % 1008,4 hPa 0,0 mm 10,3 km/h (2 Bft) W 262 ° 0 min 0,000 mm 0,0 UV-I 63 W/m² -3,6 °C -5,7 °C 19,3 km/h (3 Bft)
17.01.2018 14:51 -1,9 °C 88 % 1008,4 hPa 0,0 mm 15,8 km/h (3 Bft) W 269 ° 0 min 0,000 mm 0,0 UV-I 56 W/m² -3,6 °C -6,9 °C 20,9 km/h (4 Bft)
17.01.2018 14:52 -1,9 °C 88 % 1008,5 hPa 0,0 mm 11,1 km/h (2 Bft) W-SW 257 ° 0 min 0,000 mm 0,0 UV-I 44 W/m² -3,6 °C -5,9 °C 19,3 km/h (3 Bft)
17.01.2018 14:53 -1,9 °C 89 % 1008,6 hPa 0,0 mm 13,8 km/h (3 Bft) W 277 ° 0 min 0,000 mm 0,0 UV-I 40 W/m² -3,5 °C -6,5 °C 24,1 km/h (4 Bft)
17.01.2018 14:54 -1,9 °C 88 % 1008,5 hPa 0,0 mm 9,9 km/h (2 Bft) W 277 ° 0 min 0,000 mm 0,0 UV-I 65 W/m² -3,6 °C -5,6 °C 14,5 km/h (3 Bft)
17.01.2018 14:55 -1,9 °C 88 % 1008,5 hPa 0,0 mm 9,5 km/h (2 Bft) W-SW 250 ° 0 min 0,000 mm 0,0 UV-I 65 W/m² -3,6 °C -5,4 °C 16,1 km/h (3 Bft)
17.01.2018 14:56 -1,9 °C 88 % 1008,7 hPa 0,0 mm 13,7 km/h (3 Bft) W-SW 244 ° 0 min 0,000 mm 0,0 UV-I 51 W/m² -3,6 °C -6,5 °C 20,9 km/h (4 Bft)
17.01.2018 14:57 -1,9 °C 88 % 1008,6 hPa 0,0 mm 13,0 km/h (3 Bft) W 261 ° 0 min 0,000 mm 0,0 UV-I 44 W/m² -3,6 °C -6,3 °C 16,1 km/h (3 Bft)
17.01.2018 14:58 -1,9 °C 88 % 1008,6 hPa 0,0 mm 11,5 km/h (2 Bft) W-NW 284 ° 0 min 0,000 mm 0,0 UV-I 37 W/m² -3,6 °C -6,0 °C 19,3 km/h (3 Bft)
17.01.2018 14:59 -1,9 °C 88 % 1008,6 hPa 0,0 mm 15,5 km/h (3 Bft) W-NW 283 ° 0 min 0,000 mm 0,0 UV-I 30 W/m² -3,6 °C -6,9 °C 22,5 km/h (4 Bft)
17.01.2018 15:00 -1,9 °C 88 % 1008,8 hPa 0,0 mm 12,0 km/h (2 Bft) W-NW 292 ° 0 min 0,025 mm 0,0 UV-I 30 W/m² -3,6 °C -6,1 °C 19,3 km/h (3 Bft)
17.01.2018 15:01 -1,9 °C 88 % 1008,8 hPa 0,0 mm 12,2 km/h (2 Bft) W 280 ° 0 min 0,000 mm 0,0 UV-I 26 W/m² -3,6 °C -6,2 °C 17,7 km/h (3 Bft)
17.01.2018 15:02 -1,9 °C 88 % 1008,8 hPa 0,0 mm 14,3 km/h (3 Bft) W-NW 288 ° 0 min 0,000 mm 0,0 UV-I 25 W/m² -3,6 °C -6,6 °C 20,9 km/h (4 Bft)
17.01.2018 15:03 -1,9 °C 88 % 1008,8 hPa 0,0 mm 9,7 km/h (2 Bft) W-SW 256 ° 0 min 0,000 mm 0,0 UV-I 23 W/m² -3,6 °C -5,5 °C 19,3 km/h (3 Bft)
17.01.2018 15:04 -1,9 °C 88 % 1008,9 hPa 0,0 mm 15,5 km/h (3 Bft) W-SW 252 ° 0 min 0,000 mm 0,0 UV-I 23 W/m² -3,6 °C -6,9 °C 25,7 km/h (4 Bft)
17.01.2018 15:05 -1,9 °C 88 % 1008,8 hPa 0,0 mm 18,0 km/h (3 Bft) W-SW 257 ° 0 min 0,000 mm 0,0 UV-I 25 W/m² -3,6 °C -7,3 °C 25,7 km/h (4 Bft)
17.01.2018 15:06 -1,9 °C 88 % 1008,8 hPa 0,0 mm 13,9 km/h (3 Bft) W-NW 294 ° 0 min 0,000 mm 0,0 UV-I 26 W/m² -3,6 °C -6,5 °C 17,7 km/h (3 Bft)
17.01.2018 15:07 -1,9 °C 88 % 1008,9 hPa 0,0 mm 12,0 km/h (2 Bft) W-NW 289 ° 0 min 0,000 mm 0,0 UV-I 19 W/m² -3,6 °C -6,1 °C 16,1 km/h (3 Bft)
17.01.2018 15:08 -1,9 °C 89 % 1008,9 hPa 0,0 mm 12,5 km/h (3 Bft) NW 306 ° 0 min 0,000 mm 0,0 UV-I 18 W/m² -3,5 °C -6,2 °C 19,3 km/h (3 Bft)
17.01.2018 15:09 -2,0 °C 89 % 1008,9 hPa 0,0 mm 13,9 km/h (3 Bft) W-NW 291 ° 0 min 0,000 mm 0,0 UV-I 14 W/m² -3,6 °C -6,7 °C 19,3 km/h (3 Bft)
17.01.2018 15:10 -2,1 °C 89 % 1009,0 hPa 0,0 mm 11,7 km/h (2 Bft) W 269 ° 0 min 0,000 mm 0,0 UV-I 12 W/m² -3,7 °C -6,3 °C 17,7 km/h (3 Bft)
17.01.2018 15:11 -2,1 °C 89 % 1008,8 hPa 0,0 mm 17,6 km/h (3 Bft) W-NW 294 ° 0 min 0,000 mm 0,0 UV-I 16 W/m² -3,7 °C -7,5 °C 25,7 km/h (4 Bft)
17.01.2018 15:12 -2,1 °C 89 % 1008,9 hPa 0,0 mm 18,0 km/h (3 Bft) W-SW 251 ° 0 min 0,000 mm 0,0 UV-I 16 W/m² -3,7 °C -7,6 °C 30,6 km/h (5 Bft)
17.01.2018 15:13 -2,1 °C 89 % 1008,7 hPa 0,0 mm 16,6 km/h (3 Bft) W 265 ° 0 min 0,000 mm 0,0 UV-I 18 W/m² -3,7 °C -7,3 °C 25,7 km/h (4 Bft)
17.01.2018 15:14 -2,1 °C 88 % 1008,8 hPa 0,0 mm 15,4 km/h (3 Bft) W-NW 288 ° 0 min 0,000 mm 0,0 UV-I 19 W/m² -3,8 °C -7,1 °C 24,1 km/h (4 Bft)
17.01.2018 15:15 -2,2 °C 89 % 1008,8 hPa 0,0 mm 14,5 km/h (3 Bft) W 273 ° 0 min 0,000 mm 0,0 UV-I 19 W/m² -3,8 °C -7,0 °C 22,5 km/h (4 Bft)
17.01.2018 15:16 -2,2 °C 89 % 1008,7 hPa 0,0 mm 12,1 km/h (2 Bft) W 271 ° 0 min 0,000 mm 0,0 UV-I 21 W/m² -3,8 °C -6,5 °C 16,1 km/h (3 Bft)
17.01.2018 15:17 -2,2 °C 89 % 1008,8 hPa 0,0 mm 8,7 km/h (2 Bft) W-NW 290 ° 0 min 0,000 mm 0,0 UV-I 23 W/m² -3,8 °C -5,6 °C 12,9 km/h (3 Bft)
17.01.2018 15:18 -2,2 °C 89 % 1008,8 hPa 0,0 mm 15,6 km/h (3 Bft) NW 323 ° 0 min 0,000 mm 0,0 UV-I 25 W/m² -3,8 °C -7,2 °C 25,7 km/h (4 Bft)
17.01.2018 15:19 -2,2 °C 89 % 1008,7 hPa 0,0 mm 16,9 km/h (3 Bft) NW 311 ° 0 min 0,000 mm 0,0 UV-I 26 W/m² -3,8 °C -7,5 °C 22,5 km/h (4 Bft)
17.01.2018 15:20 -2,2 °C 89 % 1008,7 hPa 0,0 mm 11,8 km/h (2 Bft) W 263 ° 0 min 0,000 mm 0,0 UV-I 28 W/m² -3,8 °C -6,4 °C 17,7 km/h (3 Bft)
17.01.2018 15:21 -2,2 °C 89 % 1008,8 hPa 0,0 mm 17,2 km/h (3 Bft) W 279 ° 0 min 0,000 mm 0,0 UV-I 28 W/m² -3,8 °C -7,5 °C 20,9 km/h (4 Bft)
17.01.2018 15:22 -2,2 °C 89 % 1008,8 hPa 0,0 mm 14,9 km/h (3 Bft) W-SW 244 ° 0 min 0,000 mm 0,0 UV-I 25 W/m² -3,8 °C -7,1 °C 17,7 km/h (3 Bft)
17.01.2018 15:23 -2,2 °C 89 % 1008,8 hPa 0,0 mm 13,9 km/h (3 Bft) W 259 ° 0 min 0,000 mm 0,0 UV-I 23 W/m² -3,8 °C -6,9 °C 24,1 km/h (4 Bft)
17.01.2018 15:24 -2,2 °C 89 % 1008,8 hPa 0,0 mm 19,7 km/h (3 Bft) W-NW 300 ° 0 min 0,000 mm 0,0 UV-I 25 W/m² -3,8 °C -8,0 °C 25,7 km/h (4 Bft)
17.01.2018 15:25 -2,2 °C 89 % 1008,8 hPa 0,0 mm 13,2 km/h (3 Bft) W-NW 288 ° 0 min 0,000 mm 0,0 UV-I 25 W/m² -3,8 °C -6,7 °C 17,7 km/h (3 Bft)
17.01.2018 15:26 -2,2 °C 89 % 1008,8 hPa 0,0 mm 12,7 km/h (3 Bft) W 259 ° 0 min 0,000 mm 0,0 UV-I 25 W/m² -3,8 °C -6,6 °C 16,1 km/h (3 Bft)
17.01.2018 15:27 -2,2 °C 89 % 1008,8 hPa 0,0 mm 15,1 km/h (3 Bft) W 273 ° 0 min 0,000 mm 0,0 UV-I 19 W/m² -3,8 °C -7,1 °C 22,5 km/h (4 Bft)
17.01.2018 15:28 -2,2 °C 89 % 1008,9 hPa 0,0 mm 17,2 km/h (3 Bft) W 267 ° 0 min 0,000 mm 0,0 UV-I 14 W/m² -3,8 °C -7,5 °C 24,1 km/h (4 Bft)
17.01.2018 15:29 -2,2 °C 90 % 1008,9 hPa 0,0 mm 12,6 km/h (3 Bft) W-SW 244 ° 0 min 0,000 mm 0,0 UV-I 12 W/m² -3,6 °C -6,6 °C 16,1 km/h (3 Bft)
17.01.2018 15:30 -2,2 °C 90 % 1008,9 hPa 0,0 mm 14,3 km/h (3 Bft) W-SW 251 ° 0 min 0,000 mm 0,0 UV-I 11 W/m² -3,6 °C -7,0 °C 17,7 km/h (3 Bft)
17.01.2018 15:31 -2,2 °C 90 % 1008,9 hPa 0,0 mm 13,3 km/h (3 Bft) W-SW 247 ° 0 min 0,000 mm 0,0 UV-I 11 W/m² -3,6 °C -6,8 °C 17,7 km/h (3 Bft)
17.01.2018 15:32 -2,2 °C 90 % 1008,9 hPa 0,0 mm 10,5 km/h (2 Bft) W-NW 296 ° 0 min 0,000 mm 0,0 UV-I 12 W/m² -3,6 °C -6,1 °C 19,3 km/h (3 Bft)
17.01.2018 15:33 -2,2 °C 90 % 1008,9 hPa 0,0 mm 7,9 km/h (2 Bft) W-SW 244 ° 0 min 0,000 mm 0,0 UV-I 14 W/m² -3,6 °C -5,3 °C 11,3 km/h (2 Bft)
17.01.2018 15:34 -2,2 °C 90 % 1008,8 hPa 0,0 mm 12,0 km/h (2 Bft) W 265 ° 0 min 0,000 mm 0,0 UV-I 14 W/m² -3,6 °C -6,5 °C 16,1 km/h (3 Bft)
17.01.2018 15:35 -2,2 °C 90 % 1008,9 hPa 0,0 mm 8,6 km/h (2 Bft) W 271 ° 0 min 0,000 mm 0,0 UV-I 12 W/m² -3,6 °C -5,5 °C 11,3 km/h (2 Bft)
17.01.2018 15:36 -2,2 °C 90 % 1008,9 hPa 0,0 mm 14,8 km/h (3 Bft) W 278 ° 0 min 0,000 mm 0,0 UV-I 12 W/m² -3,6 °C -7,1 °C 22,5 km/h (4 Bft)
17.01.2018 15:37 -2,2 °C 90 % 1009,0 hPa 0,0 mm 14,3 km/h (3 Bft) W-SW 256 ° 0 min 0,000 mm 0,0 UV-I 12 W/m² -3,6 °C -7,0 °C 24,1 km/h (4 Bft)
17.01.2018 15:38 -2,2 °C 90 % 1008,9 hPa 0,0 mm 12,2 km/h (2 Bft) SW 236 ° 0 min 0,000 mm 0,0 UV-I 12 W/m² -3,6 °C -6,5 °C 16,1 km/h (3 Bft)
17.01.2018 15:39 -2,2 °C 90 % 1008,9 hPa 0,0 mm 12,2 km/h (2 Bft) W 264 ° 0 min 0,000 mm 0,0 UV-I 12 W/m² -3,6 °C -6,5 °C 24,1 km/h (4 Bft)
17.01.2018 15:40 -2,2 °C 90 % 1008,9 hPa 0,0 mm 13,7 km/h (3 Bft) W 277 ° 0 min 0,000 mm 0,0 UV-I 11 W/m² -3,6 °C -6,9 °C 16,1 km/h (3 Bft)
17.01.2018 15:41 -2,2 °C 90 % 1009,3 hPa 0,0 mm 11,9 km/h (2 Bft) W 267 ° 0 min 0,000 mm 0,0 UV-I 11 W/m² -3,6 °C -6,4 °C 19,3 km/h (3 Bft)
17.01.2018 15:42 -2,2 °C 90 % 1009,3 hPa 0,0 mm 15,7 km/h (3 Bft) W 271 ° 0 min 0,000 mm 0,0 UV-I 12 W/m² -3,6 °C -7,3 °C 20,9 km/h (4 Bft)
17.01.2018 15:43 -2,2 °C 90 % 1009,2 hPa 0,0 mm 11,1 km/h (2 Bft) NW 305 ° 0 min 0,000 mm 0,0 UV-I 14 W/m² -3,6 °C -6,2 °C 16,1 km/h (3 Bft)
17.01.2018 15:44 -2,2 °C 90 % 1009,1 hPa 0,0 mm 8,7 km/h (2 Bft) W 263 ° 0 min 0,000 mm 0,0 UV-I 14 W/m² -3,6 °C -5,6 °C 16,1 km/h (3 Bft)
17.01.2018 15:45 -2,2 °C 90 % 1009,1 hPa 0,0 mm 16,6 km/h (3 Bft) W 263 ° 0 min 0,000 mm 0,0 UV-I 14 W/m² -3,6 °C -7,4 °C 22,5 km/h (4 Bft)
17.01.2018 15:46 -2,2 °C 90 % 1009,2 hPa 0,0 mm 16,1 km/h (3 Bft) W 265 ° 0 min 0,000 mm 0,0 UV-I 16 W/m² -3,6 °C -7,3 °C 22,5 km/h (4 Bft)
17.01.2018 15:47 -2,2 °C 90 % 1009,2 hPa 0,0 mm 14,8 km/h (3 Bft) W 265 ° 0 min 0,000 mm 0,0 UV-I 18 W/m² -3,6 °C -7,1 °C 19,3 km/h (3 Bft)
17.01.2018 15:48 -2,2 °C 90 % 1009,1 hPa 0,0 mm 11,9 km/h (2 Bft) W-SW 258 ° 0 min 0,000 mm 0,0 UV-I 19 W/m² -3,6 °C -6,4 °C 22,5 km/h (4 Bft)
17.01.2018 15:49 -2,2 °C 90 % 1009,1 hPa 0,0 mm 20,0 km/h (4 Bft) W 281 ° 0 min 0,000 mm 0,0 UV-I 21 W/m² -3,6 °C -8,0 °C 30,6 km/h (5 Bft)
17.01.2018 15:50 -2,2 °C 91 % 1009,1 hPa 0,0 mm 16,9 km/h (3 Bft) W 279 ° 0 min 0,000 mm 0,0 UV-I 19 W/m² -3,5 °C -7,5 °C 22,5 km/h (4 Bft)
17.01.2018 15:51 -2,2 °C 90 % 1009,1 hPa 0,0 mm 11,0 km/h (2 Bft) W 261 ° 0 min 0,000 mm 0,0 UV-I 19 W/m² -3,6 °C -6,2 °C 16,1 km/h (3 Bft)
17.01.2018 15:52 -2,2 °C 91 % 1009,2 hPa 0,0 mm 15,6 km/h (3 Bft) W-NW 300 ° 0 min 0,000 mm 0,0 UV-I 16 W/m² -3,5 °C -7,2 °C 25,7 km/h (4 Bft)
17.01.2018 15:53 -2,2 °C 91 % 1009,1 hPa 0,0 mm 15,7 km/h (3 Bft) W 267 ° 0 min 0,000 mm 0,0 UV-I 16 W/m² -3,5 °C -7,3 °C 29,0 km/h (5 Bft)
17.01.2018 15:54 -2,2 °C 91 % 1009,1 hPa 0,0 mm 17,7 km/h (3 Bft) W 269 ° 0 min 0,000 mm 0,0 UV-I 14 W/m² -3,5 °C -7,6 °C 25,7 km/h (4 Bft)
17.01.2018 15:55 -2,1 °C 91 % 1009,1 hPa 0,0 mm 19,7 km/h (3 Bft) W 280 ° 0 min 0,000 mm 0,0 UV-I 14 W/m² -3,4 °C -7,8 °C 25,7 km/h (4 Bft)
17.01.2018 15:56 -2,2 °C 91 % 1009,1 hPa 0,0 mm 13,4 km/h (3 Bft) W 263 ° 0 min 0,000 mm 0,0 UV-I 14 W/m² -3,5 °C -6,8 °C 17,7 km/h (3 Bft)
17.01.2018 15:57 -2,1 °C 91 % 1009,1 hPa 0,0 mm 10,0 km/h (2 Bft) W-SW 250 ° 0 min 0,000 mm 0,0 UV-I 16 W/m² -3,4 °C -5,8 °C 17,7 km/h (3 Bft)
17.01.2018 15:58 -2,2 °C 91 % 1009,1 hPa 0,0 mm 16,2 km/h (3 Bft) W 275 ° 0 min 0,000 mm 0,0 UV-I 16 W/m² -3,5 °C -7,4 °C 24,1 km/h (4 Bft)
17.01.2018 15:59 -2,1 °C 91 % 1009,0 hPa 0,0 mm 16,3 km/h (3 Bft) S-SW 211 ° 0 min 0,000 mm 0,0 UV-I 18 W/m² -3,4 °C -7,3 °C 22,5 km/h (4 Bft)
17.01.2018 16:00 -2,1 °C 91 % 1009,1 hPa 0,0 mm 11,1 km/h (2 Bft) W-NW 283 ° 0 min 0,026 mm 0,0 UV-I 16 W/m² -3,4 °C -6,1 °C 14,5 km/h (3 Bft)
17.01.2018 16:01 -2,1 °C 91 % 1009,1 hPa 0,0 mm 13,6 km/h (3 Bft) W 267 ° 0 min 0,000 mm 0,0 UV-I 14 W/m² -3,4 °C -6,7 °C 17,7 km/h (3 Bft)
17.01.2018 16:02 -2,1 °C 91 % 1009,1 hPa 0,0 mm 12,7 km/h (3 Bft) W-SW 246 ° 0 min 0,000 mm 0,0 UV-I 11 W/m² -3,4 °C -6,5 °C 17,7 km/h (3 Bft)
17.01.2018 16:03 -2,1 °C 91 % 1009,1 hPa 0,0 mm 9,3 km/h (2 Bft) SW 236 ° 0 min 0,000 mm 0,0 UV-I 11 W/m² -3,4 °C -5,6 °C 12,9 km/h (3 Bft)
17.01.2018 16:04 -2,1 °C 91 % 1009,1 hPa 0,0 mm 12,5 km/h (3 Bft) W 266 ° 0 min 0,000 mm 0,0 UV-I 11 W/m² -3,4 °C -6,5 °C 14,5 km/h (3 Bft)
17.01.2018 16:05 -2,1 °C 91 % 1009,1 hPa 0,0 mm 10,1 km/h (2 Bft) W 272 ° 0 min 0,000 mm 0,0 UV-I 11 W/m² -3,4 °C -5,9 °C 12,9 km/h (3 Bft)
17.01.2018 16:06 -2,1 °C 91 % 1009,1 hPa 0,0 mm 13,1 km/h (3 Bft) W-SW 256 ° 0 min 0,000 mm 0,0 UV-I 9 W/m² -3,4 °C -6,6 °C 17,7 km/h (3 Bft)
17.01.2018 16:07 -2,1 °C 91 % 1009,1 hPa 0,0 mm 19,2 km/h (3 Bft) W 268 ° 0 min 0,000 mm 0,0 UV-I 11 W/m² -3,4 °C -7,8 °C 27,4 km/h (4 Bft)
17.01.2018 16:08 -2,1 °C 91 % 1009,1 hPa 0,0 mm 13,6 km/h (3 Bft) W 273 ° 0 min 0,000 mm 0,0 UV-I 9 W/m² -3,4 °C -6,7 °C 20,9 km/h (4 Bft)
17.01.2018 16:09 -2,1 °C 91 % 1009,1 hPa 0,0 mm 8,9 km/h (2 Bft) W 260 ° 0 min 0,000 mm 0,0 UV-I 7 W/m² -3,4 °C -5,5 °C 12,9 km/h (3 Bft)
17.01.2018 16:10 -2,1 °C 91 % 1009,2 hPa 0,0 mm 16,0 km/h (3 Bft) W-SW 256 ° 0 min 0,000 mm 0,0 UV-I 9 W/m² -3,4 °C -7,2 °C 22,5 km/h (4 Bft)
17.01.2018 16:11 -2,1 °C 91 % 1009,1 hPa 0,0 mm 18,2 km/h (3 Bft) W 271 ° 0 min 0,000 mm 0,0 UV-I 9 W/m² -3,4 °C -7,6 °C 20,9 km/h (4 Bft)
17.01.2018 16:12 -2,1 °C 91 % 1009,2 hPa 0,0 mm 12,2 km/h (2 Bft) W-SW 257 ° 0 min 0,000 mm 0,0 UV-I 7 W/m² -3,4 °C -6,4 °C 17,7 km/h (3 Bft)
17.01.2018 16:13 -2,1 °C 91 % 1009,2 hPa 0,0 mm 16,2 km/h (3 Bft) W-SW 238 ° 0 min 0,000 mm 0,0 UV-I 7 W/m² -3,4 °C -7,2 °C 20,9 km/h (4 Bft)
17.01.2018 16:14 -2,1 °C 91 % 1009,2 hPa 0,0 mm 9,6 km/h (2 Bft) SW 234 ° 0 min 0,000 mm 0,0 UV-I 7 W/m² -3,4 °C -5,7 °C 12,9 km/h (3 Bft)
17.01.2018 16:15 -2,0 °C 91 % 1009,2 hPa 0,0 mm 9,4 km/h (2 Bft) W-SW 255 ° 0 min 0,000 mm 0,0 UV-I 7 W/m² -3,3 °C -5,5 °C 14,5 km/h (3 Bft)
17.01.2018 16:16 -2,0 °C 91 % 1009,2 hPa 0,0 mm 9,9 km/h (2 Bft) W 261 ° 0 min 0,000 mm 0,0 UV-I 9 W/m² -3,3 °C -5,7 °C 12,9 km/h (3 Bft)
17.01.2018 16:17 -2,1 °C 91 % 1009,3 hPa 0,0 mm 10,4 km/h (2 Bft) W 265 ° 0 min 0,000 mm 0,0 UV-I 9 W/m² -3,4 °C -5,9 °C 14,5 km/h (3 Bft)
17.01.2018 16:18 -2,1 °C 91 % 1009,2 hPa 0,0 mm 16,0 km/h (3 Bft) W 260 ° 0 min 0,000 mm 0,0 UV-I 7 W/m² -3,4 °C -7,2 °C 25,7 km/h (4 Bft)
17.01.2018 16:19 -2,0 °C 91 % 1009,4 hPa 0,0 mm 18,3 km/h (3 Bft) W-SW 257 ° 0 min 0,000 mm 0,0 UV-I 7 W/m² -3,3 °C -7,5 °C 25,7 km/h (4 Bft)
17.01.2018 16:20 -2,0 °C 91 % 1009,3 hPa 0,0 mm 19,1 km/h (3 Bft) S-SW 212 ° 0 min 0,000 mm 0,0 UV-I 7 W/m² -3,3 °C -7,6 °C 29,0 km/h (5 Bft)
17.01.2018 16:21 -2,0 °C 91 % 1009,3 hPa 0,0 mm 14,9 km/h (3 Bft) W-SW 244 ° 0 min 0,000 mm 0,0 UV-I 5 W/m² -3,3 °C -6,9 °C 24,1 km/h (4 Bft)
17.01.2018 16:22 -2,0 °C 91 % 1009,4 hPa 0,0 mm 17,6 km/h (3 Bft) W 276 ° 0 min 0,000 mm 0,0 UV-I 5 W/m² -3,3 °C -7,4 °C 27,4 km/h (4 Bft)
17.01.2018 16:23 -2,0 °C 91 % 1009,4 hPa 0,0 mm 17,0 km/h (3 Bft) W-SW 239 ° 0 min 0,000 mm 0,0 UV-I 5 W/m² -3,3 °C -7,3 °C 24,1 km/h (4 Bft)
17.01.2018 16:24 -2,0 °C 91 % 1009,4 hPa 0,0 mm 14,9 km/h (3 Bft) W-SW 254 ° 0 min 0,000 mm 0,0 UV-I 5 W/m² -3,3 °C -6,9 °C 20,9 km/h (4 Bft)
17.01.2018 16:25 -2,0 °C 91 % 1009,5 hPa 0,0 mm 13,5 km/h (3 Bft) W-SW 237 ° 0 min 0,000 mm 0,0 UV-I 5 W/m² -3,3 °C -6,6 °C 20,9 km/h (4 Bft)
17.01.2018 16:26 -2,1 °C 91 % 1009,4 hPa 0,0 mm 13,2 km/h (3 Bft) W-SW 255 ° 0 min 0,000 mm 0,0 UV-I 5 W/m² -3,4 °C -6,6 °C 24,1 km/h (4 Bft)
17.01.2018 16:27 -2,0 °C 91 % 1009,5 hPa 0,0 mm 17,7 km/h (3 Bft) W-SW 250 ° 0 min 0,000 mm 0,0 UV-I 7 W/m² -3,3 °C -7,4 °C 29,0 km/h (5 Bft)
17.01.2018 16:28 -2,0 °C 91 % 1009,5 hPa 0,0 mm 15,4 km/h (3 Bft) W 271 ° 0 min 0,000 mm 0,0 UV-I 7 W/m² -3,3 °C -7,0 °C 24,1 km/h (4 Bft)
17.01.2018 16:29 -2,0 °C 91 % 1009,5 hPa 0,0 mm 16,8 km/h (3 Bft) W 277 ° 0 min 0,000 mm 0,0 UV-I 9 W/m² -3,3 °C -7,2 °C 25,7 km/h (4 Bft)
17.01.2018 16:30 -2,0 °C 90 % 1009,5 hPa 0,0 mm 15,6 km/h (3 Bft) W 263 ° 0 min 0,000 mm 0,0 UV-I 9 W/m² -3,4 °C -7,0 °C 25,7 km/h (4 Bft)
17.01.2018 16:31 -2,0 °C 90 % 1009,5 hPa 0,0 mm 15,2 km/h (3 Bft) SW 236 ° 0 min 0,000 mm 0,0 UV-I 9 W/m² -3,4 °C -6,9 °C 24,1 km/h (4 Bft)
17.01.2018 16:32 -2,0 °C 90 % 1009,4 hPa 0,0 mm 13,0 km/h (3 Bft) SW 235 ° 0 min 0,000 mm 0,0 UV-I 9 W/m² -3,4 °C -6,5 °C 17,7 km/h (3 Bft)
17.01.2018 16:33 -2,0 °C 90 % 1009,5 hPa 0,0 mm 14,8 km/h (3 Bft) W-SW 248 ° 0 min 0,000 mm 0,0 UV-I 7 W/m² -3,4 °C -6,8 °C 25,7 km/h (4 Bft)
17.01.2018 16:34 -1,9 °C 90 % 1009,5 hPa 0,0 mm 21,5 km/h (4 Bft) W-SW 243 ° 0 min 0,000 mm 0,0 UV-I 7 W/m² -3,3 °C -7,9 °C 29,0 km/h (5 Bft)
17.01.2018 16:35 -1,9 °C 90 % 1009,4 hPa 0,0 mm 21,9 km/h (4 Bft) W 265 ° 0 min 0,000 mm 0,0 UV-I 9 W/m² -3,3 °C -7,9 °C 33,8 km/h (5 Bft)
17.01.2018 16:36 -1,9 °C 90 % 1009,5 hPa 0,0 mm 17,4 km/h (3 Bft) W-NW 300 ° 0 min 0,000 mm 0,0 UV-I 7 W/m² -3,3 °C -7,2 °C 24,1 km/h (4 Bft)
17.01.2018 16:37 -1,9 °C 90 % 1009,5 hPa 0,0 mm 16,9 km/h (3 Bft) W 279 ° 0 min 0,000 mm 0,0 UV-I 7 W/m² -3,3 °C -7,1 °C 20,9 km/h (4 Bft)
17.01.2018 16:38 -1,9 °C 90 % 1009,7 hPa 0,0 mm 18,0 km/h (3 Bft) W-SW 258 ° 0 min 0,000 mm 0,0 UV-I 5 W/m² -3,3 °C -7,3 °C 24,1 km/h (4 Bft)
17.01.2018 16:39 -1,9 °C 90 % 1009,4 hPa 0,0 mm 18,4 km/h (3 Bft) S-SW 198 ° 0 min 0,000 mm 0,0 UV-I 5 W/m² -3,3 °C -7,4 °C 24,1 km/h (4 Bft)
17.01.2018 16:40 -1,9 °C 90 % 1009,5 hPa 0,0 mm 14,1 km/h (3 Bft) W-SW 246 ° 0 min 0,000 mm 0,0 UV-I 5 W/m² -3,3 °C -6,6 °C 20,9 km/h (4 Bft)
17.01.2018 16:41 -1,9 °C 90 % 1009,5 hPa 0,0 mm 17,3 km/h (3 Bft) W-SW 247 ° 0 min 0,000 mm 0,0 UV-I 5 W/m² -3,3 °C -7,2 °C 25,7 km/h (4 Bft)
17.01.2018 16:42 -1,9 °C 90 % 1009,5 hPa 0,0 mm 19,2 km/h (3 Bft) W 262 ° 0 min 0,000 mm 0,0 UV-I 5 W/m² -3,3 °C -7,5 °C 25,7 km/h (4 Bft)
17.01.2018 16:43 -1,9 °C 89 % 1009,6 hPa 0,0 mm 17,2 km/h (3 Bft) W 259 ° 0 min 0,000 mm 0,0 UV-I 5 W/m² -3,5 °C -7,2 °C 25,7 km/h (4 Bft)
17.01.2018 16:44 -1,9 °C 89 % 1009,5 hPa 0,0 mm 15,8 km/h (3 Bft) W-NW 284 ° 0 min 0,000 mm 0,0 UV-I 5 W/m² -3,5 °C -6,9 °C 27,4 km/h (4 Bft)
17.01.2018 16:45 -1,9 °C 90 % 1009,6 hPa 0,0 mm 11,9 km/h (2 Bft) W-SW 242 ° 0 min 0,000 mm 0,0 UV-I 5 W/m² -3,3 °C -6,1 °C 16,1 km/h (3 Bft)
17.01.2018 16:46 -1,9 °C 90 % 1009,6 hPa 0,0 mm 10,3 km/h (2 Bft) W 273 ° 0 min 0,000 mm 0,0 UV-I 5 W/m² -3,3 °C -5,7 °C 17,7 km/h (3 Bft)
17.01.2018 16:47 -1,9 °C 90 % 1009,5 hPa 0,0 mm 17,0 km/h (3 Bft) W-SW 257 ° 0 min 0,000 mm 0,0 UV-I 5 W/m² -3,3 °C -7,1 °C 24,1 km/h (4 Bft)
17.01.2018 16:48 -1,9 °C 90 % 1009,5 hPa 0,0 mm 21,2 km/h (4 Bft) W-NW 294 ° 0 min 0,000 mm 0,0 UV-I 5 W/m² -3,3 °C -7,8 °C 29,0 km/h (5 Bft)
17.01.2018 16:49 -1,9 °C 90 % 1009,5 hPa 0,0 mm 16,8 km/h (3 Bft) W-SW 257 ° 0 min 0,000 mm 0,0 UV-I 0 W/m² -3,3 °C -7,1 °C 24,1 km/h (4 Bft)
17.01.2018 16:50 -1,9 °C 90 % 1009,5 hPa 0,0 mm 19,4 km/h (3 Bft) W-SW 249 ° 0 min 0,000 mm 0,0 UV-I 0 W/m² -3,3 °C -7,5 °C 24,1 km/h (4 Bft)
17.01.2018 16:51 -1,9 °C 90 % 1009,5 hPa 0,0 mm 13,2 km/h (3 Bft) SW 223 ° 0 min 0,000 mm 0,0 UV-I 0 W/m² -3,3 °C -6,4 °C 22,5 km/h (4 Bft)
17.01.2018 16:52 -1,9 °C 90 % 1009,5 hPa 0,0 mm 15,1 km/h (3 Bft) SW 219 ° 0 min 0,000 mm 0,0 UV-I 0 W/m² -3,3 °C -6,8 °C 22,5 km/h (4 Bft)
17.01.2018 16:53 -1,9 °C 90 % 1009,5 hPa 0,0 mm 20,1 km/h (4 Bft) W 265 ° 0 min 0,000 mm 0,0 UV-I 0 W/m² -3,3 °C -7,7 °C 25,7 km/h (4 Bft)
17.01.2018 16:54 -1,9 °C 90 % 1009,5 hPa 0,0 mm 17,0 km/h (3 Bft) W 267 ° 0 min 0,000 mm 0,0 UV-I 0 W/m² -3,3 °C -7,1 °C 22,5 km/h (4 Bft)
17.01.2018 16:55 -1,9 °C 90 % 1009,5 hPa 0,0 mm 12,6 km/h (3 Bft) W-SW 256 ° 0 min 0,000 mm 0,0 UV-I 0 W/m² -3,3 °C -6,2 °C 17,7 km/h (3 Bft)
17.01.2018 16:56 -1,9 °C 90 % 1009,5 hPa 0,0 mm 9,4 km/h (2 Bft) W 265 ° 0 min 0,000 mm 0,0 UV-I 0 W/m² -3,3 °C -5,4 °C 17,7 km/h (3 Bft)
17.01.2018 16:57 -1,9 °C 90 % 1009,6 hPa 0,0 mm 13,1 km/h (3 Bft) W 265 ° 0 min 0,000 mm 0,0 UV-I 0 W/m² -3,3 °C -6,4 °C 16,1 km/h (3 Bft)
17.01.2018 16:58 -1,9 °C 90 % 1009,6 hPa 0,0 mm 14,1 km/h (3 Bft) W-SW 252 ° 0 min 0,000 mm 0,0 UV-I 0 W/m² -3,3 °C -6,6 °C 17,7 km/h (3 Bft)
17.01.2018 16:59 -1,9 °C 90 % 1009,7 hPa 0,0 mm 16,0 km/h (3 Bft) W 277 ° 0 min 0,000 mm 0,0 UV-I 0 W/m² -3,3 °C -7,0 °C 22,5 km/h (4 Bft)
17.01.2018 17:00 -1,9 °C 90 % 1009,7 hPa 0,0 mm 12,8 km/h (3 Bft) W 267 ° 0 min 0,000 mm 0,0 UV-I 0 W/m² -3,3 °C -6,3 °C 20,9 km/h (4 Bft)
17.01.2018 17:01 -1,9 °C 90 % 1009,7 hPa 0,0 mm 14,7 km/h (3 Bft) W 263 ° 0 min 0,000 mm 0,0 UV-I 0 W/m² -3,3 °C -6,7 °C 17,7 km/h (3 Bft)
17.01.2018 17:02 -1,9 °C 90 % 1009,7 hPa 0,0 mm 16,9 km/h (3 Bft) W 281 ° 0 min 0,000 mm 0,0 UV-I 0 W/m² -3,3 °C -7,1 °C 20,9 km/h (4 Bft)
17.01.2018 17:03 -1,9 °C 90 % 1009,7 hPa 0,0 mm 15,0 km/h (3 Bft) W-SW 250 ° 0 min 0,000 mm 0,0 UV-I 0 W/m² -3,3 °C -6,8 °C 20,9 km/h (4 Bft)
17.01.2018 17:04 -1,9 °C 90 % 1009,8 hPa 0,0 mm 16,8 km/h (3 Bft) W 263 ° 0 min 0,000 mm 0,0 UV-I 0 W/m² -3,3 °C -7,1 °C 27,4 km/h (4 Bft)
17.01.2018 17:05 -1,9 °C 90 % 1009,8 hPa 0,0 mm 18,2 km/h (3 Bft) W-NW 296 ° 0 min 0,000 mm 0,0 UV-I 0 W/m² -3,3 °C -7,3 °C 24,1 km/h (4 Bft)
17.01.2018 17:06 -1,9 °C 90 % 1009,7 hPa 0,0 mm 21,0 km/h (4 Bft) W-SW 254 ° 0 min 0,000 mm 0,0 UV-I 0 W/m² -3,3 °C -7,8 °C 27,4 km/h (4 Bft)
17.01.2018 17:07 -1,9 °C 90 % 1009,9 hPa 0,0 mm 19,9 km/h (4 Bft) W 277 ° 0 min 0,000 mm 0,0 UV-I 0 W/m² -3,3 °C -7,6 °C 29,0 km/h (5 Bft)
17.01.2018 17:08 -1,9 °C 90 % 1009,8 hPa 0,0 mm 18,8 km/h (3 Bft) W-SW 251 ° 0 min 0,000 mm 0,0 UV-I 0 W/m² -3,3 °C -7,4 °C 25,7 km/h (4 Bft)
17.01.2018 17:09 -1,9 °C 90 % 1009,8 hPa 0,0 mm 16,4 km/h (3 Bft) W-NW 284 ° 0 min 0,000 mm 0,0 UV-I 0 W/m² -3,3 °C -7,0 °C 22,5 km/h (4 Bft)
17.01.2018 17:10 -1,9 °C 90 % 1009,8 hPa 0,0 mm 22,9 km/h (4 Bft) W-SW 258 ° 0 min 0,000 mm 0,0 UV-I 0 W/m² -3,3 °C -8,1 °C 29,0 km/h (5 Bft)
17.01.2018 17:11 -1,9 °C 91 % 1009,8 hPa 0,0 mm 18,2 km/h (3 Bft) W-NW 295 ° 0 min 0,000 mm 0,0 UV-I 0 W/m² -3,2 °C -7,3 °C 25,7 km/h (4 Bft)
17.01.2018 17:12 -1,9 °C 90 % 1009,8 hPa 0,0 mm 15,0 km/h (3 Bft) W-NW 286 ° 0 min 0,000 mm 0,0 UV-I 0 W/m² -3,3 °C -6,8 °C 24,1 km/h (4 Bft)
17.01.2018 17:13 -1,9 °C 91 % 1010,0 hPa 0,0 mm 15,7 km/h (3 Bft) W-NW 282 ° 0 min 0,000 mm 0,0 UV-I 0 W/m² -3,2 °C -6,9 °C 24,1 km/h (4 Bft)
17.01.2018 17:14 -1,9 °C 91 % 1009,9 hPa 0,0 mm 15,1 km/h (3 Bft) W-SW 251 ° 0 min 0,000 mm 0,0 UV-I 0 W/m² -3,2 °C -6,8 °C 22,5 km/h (4 Bft)
17.01.2018 17:15 -1,9 °C 91 % 1010,0 hPa 0,0 mm 12,8 km/h (3 Bft) W 263 ° 0 min 0,000 mm 0,0 UV-I 0 W/m² -3,2 °C -6,3 °C 17,7 km/h (3 Bft)
17.01.2018 17:16 -1,9 °C 91 % 1010,0 hPa 0,0 mm 16,9 km/h (3 Bft) NW 309 ° 0 min 0,000 mm 0,0 UV-I 0 W/m² -3,2 °C -7,1 °C 22,5 km/h (4 Bft)
17.01.2018 17:17 -1,9 °C 91 % 1009,9 hPa 0,0 mm 15,6 km/h (3 Bft) W 269 ° 0 min 0,000 mm 0,0 UV-I 0 W/m² -3,2 °C -6,9 °C 25,7 km/h (4 Bft)
17.01.2018 17:18 -1,9 °C 91 % 1010,1 hPa 0,0 mm 24,2 km/h (4 Bft) W 279 ° 0 min 0,000 mm 0,0 UV-I 0 W/m² -3,2 °C -8,2 °C 35,4 km/h (5 Bft)
17.01.2018 17:19 -1,9 °C 91 % 1010,1 hPa 0,0 mm 19,6 km/h (3 Bft) W 262 ° 0 min 0,000 mm 0,0 UV-I 0 W/m² -3,2 °C -7,6 °C 29,0 km/h (5 Bft)
17.01.2018 17:20 -1,9 °C 91 % 1010,1 hPa 0,0 mm 18,0 km/h (3 Bft) W 263 ° 0 min 0,000 mm 0,0 UV-I 0 W/m² -3,2 °C -7,3 °C 29,0 km/h (5 Bft)
17.01.2018 17:21 -1,9 °C 91 % 1010,0 hPa 0,0 mm 22,5 km/h (4 Bft) W-SW 251 ° 0 min 0,000 mm 0,0 UV-I 0 W/m² -3,2 °C -8,0 °C 29,0 km/h (5 Bft)
17.01.2018 17:22 -1,9 °C 91 % 1010,1 hPa 0,0 mm 21,3 km/h (4 Bft) W 275 ° 0 min 0,000 mm 0,0 UV-I 0 W/m² -3,2 °C -7,8 °C 38,6 km/h (5 Bft)
17.01.2018 17:23 -1,9 °C 91 % 1010,1 hPa 0,0 mm 21,0 km/h (4 Bft) W-SW 251 ° 0 min 0,000 mm 0,0 UV-I 0 W/m² -3,2 °C -7,8 °C 27,4 km/h (4 Bft)
17.01.2018 17:24 -1,9 °C 91 % 1010,1 hPa 0,0 mm 22,6 km/h (4 Bft) W 260 ° 0 min 0,000 mm 0,0 UV-I 0 W/m² -3,2 °C -8,0 °C 30,6 km/h (5 Bft)
17.01.2018 17:25 -1,9 °C 91 % 1010,1 hPa 0,0 mm 14,7 km/h (3 Bft) W-SW 249 ° 0 min 0,000 mm 0,0 UV-I 0 W/m² -3,2 °C -6,7 °C 24,1 km/h (4 Bft)
17.01.2018 17:26 -1,9 °C 90 % 1010,2 hPa 0,0 mm 17,9 km/h (3 Bft) W 259 ° 0 min 0,000 mm 0,0 UV-I 0 W/m² -3,3 °C -7,3 °C 30,6 km/h (5 Bft)
17.01.2018 17:27 -1,9 °C 90 % 1010,1 hPa 0,0 mm 18,8 km/h (3 Bft) W-SW 257 ° 0 min 0,000 mm 0,0 UV-I 0 W/m² -3,3 °C -7,4 °C 25,7 km/h (4 Bft)
17.01.2018 17:28 -1,9 °C 90 % 1010,1 hPa 0,0 mm 18,6 km/h (3 Bft) W-SW 244 ° 0 min 0,000 mm 0,0 UV-I 0 W/m² -3,3 °C -7,4 °C 29,0 km/h (5 Bft)
17.01.2018 17:29 -1,9 °C 90 % 1010,1 hPa 0,0 mm 14,1 km/h (3 Bft) SW 223 ° 0 min 0,000 mm 0,0 UV-I 0 W/m² -3,3 °C -6,6 °C 22,5 km/h (4 Bft)
17.01.2018 17:30 -1,9 °C 90 % 1010,1 hPa 0,0 mm 18,7 km/h (3 Bft) W 277 ° 0 min 0,000 mm 0,0 UV-I 0 W/m² -3,3 °C -7,4 °C 29,0 km/h (5 Bft)
17.01.2018 17:31 -1,9 °C 90 % 1010,1 hPa 0,0 mm 15,3 km/h (3 Bft) W 271 ° 0 min 0,000 mm 0,0 UV-I 0 W/m² -3,3 °C -6,8 °C 20,9 km/h (4 Bft)
17.01.2018 17:32 -1,9 °C 90 % 1010,1 hPa 0,0 mm 21,0 km/h (4 Bft) W 265 ° 0 min 0,000 mm 0,0 UV-I 0 W/m² -3,3 °C -7,8 °C 29,0 km/h (5 Bft)
17.01.2018 17:33 -1,9 °C 90 % 1010,1 hPa 0,0 mm 15,8 km/h (3 Bft) W-SW 242 ° 0 min 0,000 mm 0,0 UV-I 0 W/m² -3,3 °C -6,9 °C 24,1 km/h (4 Bft)
17.01.2018 17:34 -1,9 °C 90 % 1010,1 hPa 0,0 mm 19,2 km/h (3 Bft) W 281 ° 0 min 0,000 mm 0,0 UV-I 0 W/m² -3,3 °C -7,5 °C 25,7 km/h (4 Bft)
17.01.2018 17:35 -1,9 °C 90 % 1010,2 hPa 0,0 mm 20,3 km/h (4 Bft) W 275 ° 0 min 0,000 mm 0,0 UV-I 0 W/m² -3,3 °C -7,7 °C 37,0 km/h (5 Bft)
17.01.2018 17:36 -1,9 °C 90 % 1010,2 hPa 0,0 mm 18,4 km/h (3 Bft) W 277 ° 0 min 0,000 mm 0,0 UV-I 0 W/m² -3,3 °C -7,4 °C 29,0 km/h (5 Bft)
17.01.2018 17:37 -1,9 °C 90 % 1010,3 hPa 0,0 mm 17,5 km/h (3 Bft) W 267 ° 0 min 0,000 mm 0,0 UV-I 0 W/m² -3,3 °C -7,2 °C 24,1 km/h (4 Bft)
17.01.2018 17:38 -1,9 °C 90 % 1010,2 hPa 0,0 mm 18,8 km/h (3 Bft) W 267 ° 0 min 0,000 mm 0,0 UV-I 0 W/m² -3,3 °C -7,4 °C 24,1 km/h (4 Bft)
17.01.2018 17:39 -1,9 °C 90 % 1010,2 hPa 0,0 mm 15,9 km/h (3 Bft) W-SW 252 ° 0 min 0,000 mm 0,0 UV-I 0 W/m² -3,3 °C -6,9 °C 22,5 km/h (4 Bft)
17.01.2018 17:40 -1,9 °C 90 % 1010,3 hPa 0,0 mm 20,4 km/h (4 Bft) W 261 ° 0 min 0,000 mm 0,0 UV-I 0 W/m² -3,3 °C -7,7 °C 30,6 km/h (5 Bft)
17.01.2018 17:41 -1,9 °C 90 % 1010,3 hPa 0,0 mm 15,9 km/h (3 Bft) W-SW 250 ° 0 min 0,000 mm 0,0 UV-I 0 W/m² -3,3 °C -6,9 °C 22,5 km/h (4 Bft)
17.01.2018 17:42 -1,9 °C 90 % 1010,4 hPa 0,0 mm 13,5 km/h (3 Bft) W 265 ° 0 min 0,000 mm 0,0 UV-I 0 W/m² -3,3 °C -6,4 °C 20,9 km/h (4 Bft)
17.01.2018 17:43 -1,9 °C 90 % 1010,4 hPa 0,0 mm 20,9 km/h (4 Bft) W 279 ° 0 min 0,000 mm 0,0 UV-I 0 W/m² -3,3 °C -7,8 °C 25,7 km/h (4 Bft)
17.01.2018 17:44 -1,9 °C 90 % 1010,5 hPa 0,0 mm 21,8 km/h (4 Bft) W 275 ° 0 min 0,000 mm 0,0 UV-I 0 W/m² -3,3 °C -7,9 °C 29,0 km/h (5 Bft)
17.01.2018 17:45 -1,9 °C 90 % 1010,4 hPa 0,0 mm 17,8 km/h (3 Bft) SW 227 ° 0 min 0,000 mm 0,0 UV-I 0 W/m² -3,3 °C -7,3 °C 29,0 km/h (5 Bft)
17.01.2018 17:46 -1,9 °C 90 % 1010,3 hPa 0,0 mm 21,0 km/h (4 Bft) W 273 ° 0 min 0,000 mm 0,0 UV-I 0 W/m² -3,3 °C -7,8 °C 29,0 km/h (5 Bft)
17.01.2018 17:47 -1,9 °C 90 % 1010,4 hPa 0,0 mm 22,8 km/h (4 Bft) W 268 ° 0 min 0,000 mm 0,0 UV-I 0 W/m² -3,3 °C -8,1 °C 30,6 km/h (5 Bft)
17.01.2018 17:48 -1,9 °C 90 % 1010,4 hPa 0,0 mm 20,4 km/h (4 Bft) W-SW 248 ° 0 min 0,000 mm 0,0 UV-I 0 W/m² -3,3 °C -7,7 °C 30,6 km/h (5 Bft)
17.01.2018 17:49 -1,9 °C 90 % 1010,4 hPa 0,0 mm 20,3 km/h (4 Bft) W-SW 242 ° 0 min 0,000 mm 0,0 UV-I 0 W/m² -3,3 °C -7,7 °C 30,6 km/h (5 Bft)
17.01.2018 17:50 -1,9 °C 90 % 1010,5 hPa 0,0 mm 22,2 km/h (4 Bft) W-SW 253 ° 0 min 0,000 mm 0,0 UV-I 0 W/m² -3,3 °C -8,0 °C 33,8 km/h (5 Bft)
17.01.2018 17:51 -1,9 °C 90 % 1010,3 hPa 0,0 mm 18,2 km/h (3 Bft) W 269 ° 0 min 0,000 mm 0,0 UV-I 0 W/m² -3,3 °C -7,3 °C 24,1 km/h (4 Bft)
17.01.2018 17:52 -1,9 °C 90 % 1010,4 hPa 0,0 mm 14,6 km/h (3 Bft) W 273 ° 0 min 0,000 mm 0,0 UV-I 0 W/m² -3,3 °C -6,7 °C 17,7 km/h (3 Bft)
17.01.2018 17:53 -1,9 °C 90 % 1010,4 hPa 0,0 mm 18,8 km/h (3 Bft) SW 236 ° 0 min 0,000 mm 0,0 UV-I 0 W/m² -3,3 °C -7,4 °C 25,7 km/h (4 Bft)
17.01.2018 17:54 -1,8 °C 89 % 1010,5 hPa 0,0 mm 19,9 km/h (4 Bft) W-SW 258 ° 0 min 0,000 mm 0,0 UV-I 0 W/m² -3,4 °C -7,5 °C 27,4 km/h (4 Bft)
17.01.2018 17:55 -1,8 °C 90 % 1010,5 hPa 0,0 mm 13,4 km/h (3 Bft) W-SW 247 ° 0 min 0,000 mm 0,0 UV-I 0 W/m² -3,2 °C -6,3 °C 16,1 km/h (3 Bft)
17.01.2018 17:56 -1,9 °C 90 % 1010,5 hPa 0,0 mm 16,3 km/h (3 Bft) W-SW 246 ° 0 min 0,000 mm 0,0 UV-I 0 W/m² -3,3 °C -7,0 °C 24,1 km/h (4 Bft)
17.01.2018 17:57 -1,8 °C 89 % 1010,4 hPa 0,0 mm 9,7 km/h (2 Bft) SW 232 ° 0 min 0,000 mm 0,0 UV-I 0 W/m² -3,4 °C -5,4 °C 16,1 km/h (3 Bft)
17.01.2018 17:58 -1,9 °C 90 % 1010,5 hPa 0,0 mm 17,5 km/h (3 Bft) W 265 ° 0 min 0,000 mm 0,0 UV-I 0 W/m² -3,3 °C -7,2 °C 22,5 km/h (4 Bft)
17.01.2018 17:59 -1,9 °C 89 % 1010,5 hPa 0,0 mm 21,4 km/h (4 Bft) W 279 ° 0 min 0,000 mm 0,0 UV-I 0 W/m² -3,5 °C -7,9 °C 29,0 km/h (5 Bft)
17.01.2018 18:00 -1,9 °C 89 % 1010,4 hPa 0,0 mm 15,6 km/h (3 Bft) W 271 ° 0 min 0,000 mm 0,0 UV-I 0 W/m² -3,5 °C -6,9 °C 19,3 km/h (3 Bft)
17.01.2018 18:01 -1,8 °C 89 % 1010,6 hPa 0,0 mm 24,7 km/h (4 Bft) W 276 ° 0 min 0,000 mm 0,0 UV-I 0 W/m² -3,4 °C -8,2 °C 29,0 km/h (5 Bft)
17.01.2018 18:02 -1,9 °C 89 % 1010,5 hPa 0,0 mm 16,1 km/h (3 Bft) W-SW 246 ° 0 min 0,000 mm 0,0 UV-I 0 W/m² -3,5 °C -7,0 °C 24,1 km/h (4 Bft)
17.01.2018 18:03 -1,9 °C 89 % 1010,5 hPa 0,0 mm 21,0 km/h (4 Bft) W-SW 250 ° 0 min 0,000 mm 0,0 UV-I 0 W/m² -3,5 °C -7,8 °C 30,6 km/h (5 Bft)
17.01.2018 18:04 -1,8 °C 89 % 1010,6 hPa 0,0 mm 19,3 km/h (3 Bft) W 271 ° 0 min 0,000 mm 0,0 UV-I 0 W/m² -3,4 °C -7,4 °C 29,0 km/h (5 Bft)
17.01.2018 18:05 -1,9 °C 89 % 1010,7 hPa 0,0 mm 20,0 km/h (4 Bft) W 262 ° 0 min 0,000 mm 0,0 UV-I 0 W/m² -3,5 °C -7,6 °C 29,0 km/h (5 Bft)
17.01.2018 18:06 -1,9 °C 89 % 1010,6 hPa 0,0 mm 10,4 km/h (2 Bft) W 266 ° 0 min 0,000 mm 0,0 UV-I 0 W/m² -3,5 °C -5,7 °C 17,7 km/h (3 Bft)
17.01.2018 18:07 -1,8 °C 89 % 1010,7 hPa 0,0 mm 18,6 km/h (3 Bft) W-SW 252 ° 0 min 0,000 mm 0,0 UV-I 0 W/m² -3,4 °C -7,3 °C 27,4 km/h (4 Bft)
17.01.2018 18:09 -1,8 °C 89 % 1010,7 hPa 0,0 mm 18,4 km/h (3 Bft) W 261 ° 0 min 0,000 mm 0,0 UV-I 0 W/m² -3,4 °C -7,3 °C 33,8 km/h (5 Bft)
17.01.2018 18:10 -1,8 °C 89 % 1010,7 hPa 0,0 mm 19,1 km/h (3 Bft) W 270 ° 0 min 0,000 mm 0,0 UV-I 0 W/m² -3,4 °C -7,4 °C 27,4 km/h (4 Bft)
17.01.2018 18:11 -1,8 °C 89 % 1010,7 hPa 0,0 mm 17,2 km/h (3 Bft) W-NW 292 ° 0 min 0,000 mm 0,0 UV-I 0 W/m² -3,4 °C -7,0 °C 25,7 km/h (4 Bft)
17.01.2018 18:12 -1,8 °C 89 % 1010,7 hPa 0,0 mm 18,9 km/h (3 Bft) W-SW 248 ° 0 min 0,000 mm 0,0 UV-I 0 W/m² -3,4 °C -7,3 °C 24,1 km/h (4 Bft)
17.01.2018 18:13 -1,8 °C 89 % 1010,8 hPa 0,0 mm 25,2 km/h (4 Bft) W-NW 291 ° 0 min 0,000 mm 0,0 UV-I 0 W/m² -3,4 °C -8,2 °C 35,4 km/h (5 Bft)
17.01.2018 18:14 -1,8 °C 89 % 1010,6 hPa 0,0 mm 17,9 km/h (3 Bft) W 274 ° 0 min 0,000 mm 0,0 UV-I 0 W/m² -3,4 °C -7,2 °C 24,1 km/h (4 Bft)
17.01.2018 18:15 -1,8 °C 89 % 1010,8 hPa 0,0 mm 18,8 km/h (3 Bft) W 262 ° 0 min 0,000 mm 0,0 UV-I 0 W/m² -3,4 °C -7,3 °C 29,0 km/h (5 Bft)
17.01.2018 18:16 -1,8 °C 89 % 1010,7 hPa 0,0 mm 17,4 km/h (3 Bft) NW 321 ° 0 min 0,000 mm 0,0 UV-I 0 W/m² -3,4 °C -7,1 °C 30,6 km/h (5 Bft)
17.01.2018 18:17 -1,8 °C 89 % 1010,8 hPa 0,0 mm 22,6 km/h (4 Bft) W 279 ° 0 min 0,000 mm 0,0 UV-I 0 W/m² -3,4 °C -7,9 °C 30,6 km/h (5 Bft)
17.01.2018 18:18 -1,8 °C 89 % 1010,7 hPa 0,0 mm 16,8 km/h (3 Bft) W 276 ° 0 min 0,000 mm 0,0 UV-I 0 W/m² -3,4 °C -7,0 °C 25,7 km/h (4 Bft)
17.01.2018 18:19 -1,8 °C 89 % 1010,7 hPa 0,0 mm 22,7 km/h (4 Bft) W-SW 252 ° 0 min 0,000 mm 0,0 UV-I 0 W/m² -3,4 °C -7,9 °C 33,8 km/h (5 Bft)
17.01.2018 18:20 -1,8 °C 89 % 1010,8 hPa 0,0 mm 20,1 km/h (4 Bft) W-SW 254 ° 0 min 0,000 mm 0,0 UV-I 0 W/m² -3,4 °C -7,5 °C 32,2 km/h (5 Bft)
17.01.2018 18:21 -1,8 °C 89 % 1010,7 hPa 0,0 mm 19,8 km/h (3 Bft) W-SW 257 ° 0 min 0,000 mm 0,0 UV-I 0 W/m² -3,4 °C -7,5 °C 38,6 km/h (5 Bft)
17.01.2018 18:22 -1,8 °C 89 % 1010,8 hPa 0,0 mm 25,0 km/h (4 Bft) W 269 ° 0 min 0,000 mm 0,0 UV-I 0 W/m² -3,4 °C -8,2 °C 29,0 km/h (5 Bft)
17.01.2018 18:23 -1,8 °C 89 % 1010,7 hPa 0,0 mm 20,7 km/h (4 Bft) W-SW 256 ° 0 min 0,000 mm 0,0 UV-I 0 W/m² -3,4 °C -7,6 °C 29,0 km/h (5 Bft)
17.01.2018 18:24 -1,8 °C 89 % 1010,8 hPa 0,0 mm 19,3 km/h (3 Bft) W 274 ° 0 min 0,000 mm 0,0 UV-I 0 W/m² -3,4 °C -7,4 °C 32,2 km/h (5 Bft)
17.01.2018 18:25 -1,8 °C 89 % 1010,8 hPa 0,0 mm 13,4 km/h (3 Bft) W 268 ° 0 min 0,000 mm 0,0 UV-I 0 W/m² -3,4 °C -6,3 °C 19,3 km/h (3 Bft)
17.01.2018 18:26 -1,8 °C 89 % 1010,8 hPa 0,0 mm 15,8 km/h (3 Bft) W-SW 242 ° 0 min 0,000 mm 0,0 UV-I 0 W/m² -3,4 °C -6,8 °C 24,1 km/h (4 Bft)
17.01.2018 18:27 -1,8 °C 89 % 1010,7 hPa 0,0 mm 17,2 km/h (3 Bft) S-SW 196 ° 0 min 0,000 mm 0,0 UV-I 0 W/m² -3,4 °C -7,0 °C 25,7 km/h (4 Bft)
17.01.2018 18:28 -1,8 °C 89 % 1010,7 hPa 0,0 mm 14,1 km/h (3 Bft) W 269 ° 0 min 0,000 mm 0,0 UV-I 0 W/m² -3,4 °C -6,5 °C 19,3 km/h (3 Bft)
17.01.2018 18:29 -1,8 °C 89 % 1010,7 hPa 0,0 mm 15,4 km/h (3 Bft) W-SW 254 ° 0 min 0,000 mm 0,0 UV-I 0 W/m² -3,4 °C -6,7 °C 29,0 km/h (5 Bft)
17.01.2018 18:30 -1,8 °C 89 % 1011,0 hPa 0,0 mm 28,4 km/h (4 Bft) W 267 ° 0 min 0,000 mm 0,0 UV-I 0 W/m² -3,4 °C -8,6 °C 49,9 km/h (6 Bft)
17.01.2018 18:31 -1,8 °C 89 % 1010,9 hPa 0,0 mm 26,7 km/h (4 Bft) W-NW 290 ° 0 min 0,000 mm 0,0 UV-I 0 W/m² -3,4 °C -8,4 °C 35,4 km/h (5 Bft)
17.01.2018 18:32 -1,8 °C 89 % 1010,9 hPa 0,0 mm 27,7 km/h (4 Bft) W 265 ° 0 min 0,000 mm 0,0 UV-I 0 W/m² -3,4 °C -8,6 °C 38,6 km/h (5 Bft)
17.01.2018 18:33 -1,7 °C 89 % 1010,8 hPa 0,0 mm 20,5 km/h (4 Bft) W 261 ° 0 min 0,000 mm 0,0 UV-I 0 W/m² -3,3 °C -7,5 °C 38,6 km/h (5 Bft)
17.01.2018 18:34 -1,7 °C 89 % 1010,8 hPa 0,0 mm 15,9 km/h (3 Bft) SW 236 ° 0 min 0,000 mm 0,0 UV-I 0 W/m² -3,3 °C -6,7 °C 20,9 km/h (4 Bft)
17.01.2018 18:35 -1,7 °C 89 % 1010,9 hPa 0,0 mm 18,2 km/h (3 Bft) W 268 ° 0 min 0,000 mm 0,0 UV-I 0 W/m² -3,3 °C -7,1 °C 24,1 km/h (4 Bft)
17.01.2018 18:36 -1,7 °C 89 % 1010,9 hPa 0,0 mm 15,8 km/h (3 Bft) W 277 ° 0 min 0,000 mm 0,0 UV-I 0 W/m² -3,3 °C -6,7 °C 20,9 km/h (4 Bft)
17.01.2018 18:37 -1,7 °C 89 % 1010,9 hPa 0,0 mm 14,3 km/h (3 Bft) W-SW 247 ° 0 min 0,000 mm 0,0 UV-I 0 W/m² -3,3 °C -6,4 °C 17,7 km/h (3 Bft)
17.01.2018 18:38 -1,7 °C 89 % 1010,8 hPa 0,0 mm 12,7 km/h (3 Bft) W-NW 290 ° 0 min 0,000 mm 0,0 UV-I 0 W/m² -3,3 °C -6,0 °C 19,3 km/h (3 Bft)
17.01.2018 18:39 -1,7 °C 89 % 1010,9 hPa 0,0 mm 19,9 km/h (4 Bft) W 275 ° 0 min 0,000 mm 0,0 UV-I 0 W/m² -3,3 °C -7,4 °C 41,8 km/h (6 Bft)
17.01.2018 18:40 -1,7 °C 89 % 1010,9 hPa 0,0 mm 18,2 km/h (3 Bft) W 265 ° 0 min 0,000 mm 0,0 UV-I 0 W/m² -3,3 °C -7,1 °C 25,7 km/h (4 Bft)
17.01.2018 18:41 -1,7 °C 89 % 1010,9 hPa 0,0 mm 17,6 km/h (3 Bft) W-SW 257 ° 0 min 0,000 mm 0,0 UV-I 0 W/m² -3,3 °C -7,0 °C 24,1 km/h (4 Bft)
17.01.2018 18:42 -1,7 °C 89 % 1010,8 hPa 0,0 mm 20,9 km/h (4 Bft) W-SW 248 ° 0 min 0,000 mm 0,0 UV-I 0 W/m² -3,3 °C -7,5 °C 29,0 km/h (5 Bft)
17.01.2018 18:43 -1,7 °C 89 % 1010,8 hPa 0,0 mm 23,4 km/h (4 Bft) W 268 ° 0 min 0,000 mm 0,0 UV-I 0 W/m² -3,3 °C -7,9 °C 29,0 km/h (5 Bft)
17.01.2018 18:44 -1,7 °C 89 % 1010,8 hPa 0,0 mm 21,0 km/h (4 Bft) W 259 ° 0 min 0,000 mm 0,0 UV-I 0 W/m² -3,3 °C -7,5 °C 35,4 km/h (5 Bft)
17.01.2018 18:45 -1,7 °C 89 % 1010,9 hPa 0,0 mm 21,9 km/h (4 Bft) W-NW 290 ° 0 min 0,000 mm 0,0 UV-I 0 W/m² -3,3 °C -7,7 °C 29,0 km/h (5 Bft)
17.01.2018 18:46 -1,7 °C 89 % 1011,0 hPa 0,0 mm 26,0 km/h (4 Bft) W 266 ° 0 min 0,000 mm 0,0 UV-I 0 W/m² -3,3 °C -8,2 °C 33,8 km/h (5 Bft)
17.01.2018 18:47 -1,7 °C 89 % 1011,0 hPa 0,0 mm 13,1 km/h (3 Bft) NW 317 ° 0 min 0,000 mm 0,0 UV-I 0 W/m² -3,3 °C -6,1 °C 24,1 km/h (4 Bft)
17.01.2018 18:49 -1,6 °C 89 % 1010,9 hPa 0,0 mm 20,1 km/h (4 Bft) W-SW 252 ° 0 min 0,000 mm 0,0 UV-I 0 W/m² -3,2 °C -7,3 °C 37,0 km/h (5 Bft)
17.01.2018 18:50 -1,7 °C 89 % 1010,9 hPa 0,0 mm 22,5 km/h (4 Bft) W 280 ° 0 min 0,000 mm 0,0 UV-I 0 W/m² -3,3 °C -7,8 °C 27,4 km/h (4 Bft)
17.01.2018 18:51 -1,7 °C 89 % 1010,9 hPa 0,0 mm 14,0 km/h (3 Bft) W 263 ° 0 min 0,000 mm 0,0 UV-I 0 W/m² -3,3 °C -6,3 °C 20,9 km/h (4 Bft)
17.01.2018 18:52 -1,7 °C 89 % 1011,0 hPa 0,0 mm 18,6 km/h (3 Bft) W-SW 255 ° 0 min 0,000 mm 0,0 UV-I 0 W/m² -3,3 °C -7,2 °C 27,4 km/h (4 Bft)
17.01.2018 18:53 -1,7 °C 89 % 1011,1 hPa 0,0 mm 17,6 km/h (3 Bft) S-SW 209 ° 0 min 0,000 mm 0,0 UV-I 0 W/m² -3,3 °C -7,0 °C 25,7 km/h (4 Bft)
17.01.2018 18:54 -1,7 °C 89 % 1011,0 hPa 0,0 mm 20,8 km/h (4 Bft) W 279 ° 0 min 0,000 mm 0,0 UV-I 0 W/m² -3,3 °C -7,5 °C 29,0 km/h (5 Bft)
17.01.2018 18:55 -1,7 °C 89 % 1011,1 hPa 0,0 mm 18,5 km/h (3 Bft) W 279 ° 0 min 0,000 mm 0,0 UV-I 0 W/m² -3,3 °C -7,1 °C 29,0 km/h (5 Bft)
17.01.2018 18:56 -1,7 °C 89 % 1011,0 hPa 0,0 mm 19,7 km/h (3 Bft) W 263 ° 0 min 0,000 mm 0,0 UV-I 0 W/m² -3,3 °C -7,3 °C 24,1 km/h (4 Bft)
17.01.2018 18:57 -1,7 °C 89 % 1011,1 hPa 0,0 mm 17,3 km/h (3 Bft) SW 234 ° 0 min 0,000 mm 0,0 UV-I 0 W/m² -3,3 °C -6,9 °C 22,5 km/h (4 Bft)
17.01.2018 18:58 -1,7 °C 89 % 1011,1 hPa 0,0 mm 19,6 km/h (3 Bft) W-NW 288 ° 0 min 0,000 mm 0,0 UV-I 0 W/m² -3,3 °C -7,3 °C 24,1 km/h (4 Bft)
17.01.2018 18:59 -1,6 °C 89 % 1011,1 hPa 0,0 mm 20,1 km/h (4 Bft) W 271 ° 0 min 0,000 mm 0,0 UV-I 0 W/m² -3,2 °C -7,3 °C 32,2 km/h (5 Bft)
17.01.2018 19:00 -1,6 °C 89 % 1011,1 hPa 0,0 mm 17,3 km/h (3 Bft) W-SW 246 ° 0 min 0,025 mm 0,0 UV-I 0 W/m² -3,2 °C -6,8 °C 25,7 km/h (4 Bft)
17.01.2018 19:01 -1,6 °C 89 % 1011,0 hPa 0,0 mm 23,6 km/h (4 Bft) W-SW 251 ° 0 min 0,000 mm 0,0 UV-I 0 W/m² -3,2 °C -7,8 °C 29,0 km/h (5 Bft)
17.01.2018 19:02 -1,6 °C 89 % 1011,1 hPa 0,0 mm 20,5 km/h (4 Bft) W-NW 295 ° 0 min 0,000 mm 0,0 UV-I 0 W/m² -3,2 °C -7,3 °C 24,1 km/h (4 Bft)
17.01.2018 19:03 -1,6 °C 89 % 1011,1 hPa 0,0 mm 20,9 km/h (4 Bft) W 263 ° 0 min 0,000 mm 0,0 UV-I 0 W/m² -3,2 °C -7,4 °C 25,7 km/h (4 Bft)
17.01.2018 19:04 -1,6 °C 89 % 1011,1 hPa 0,0 mm 19,6 km/h (3 Bft) W-SW 253 ° 0 min 0,000 mm 0,0 UV-I 0 W/m² -3,2 °C -7,2 °C 29,0 km/h (5 Bft)
17.01.2018 19:05 -1,6 °C 89 % 1011,1 hPa 0,0 mm 16,2 km/h (3 Bft) W 273 ° 0 min 0,000 mm 0,0 UV-I 0 W/m² -3,2 °C -6,6 °C 22,5 km/h (4 Bft)
17.01.2018 19:06 -1,6 °C 89 % 1011,1 hPa 0,0 mm 17,3 km/h (3 Bft) W-SW 252 ° 0 min 0,000 mm 0,0 UV-I 0 W/m² -3,2 °C -6,8 °C 27,4 km/h (4 Bft)
17.01.2018 19:07 -1,6 °C 89 % 1011,1 hPa 0,0 mm 18,1 km/h (3 Bft) W 265 ° 0 min 0,000 mm 0,0 UV-I 0 W/m² -3,2 °C -7,0 °C 25,7 km/h (4 Bft)
17.01.2018 19:08 -1,6 °C 89 % 1011,0 hPa 0,0 mm 20,9 km/h (4 Bft) W 271 ° 0 min 0,000 mm 0,0 UV-I 0 W/m² -3,2 °C -7,4 °C 22,5 km/h (4 Bft)
17.01.2018 19:09 -1,6 °C 89 % 1011,1 hPa 0,0 mm 16,9 km/h (3 Bft) W 262 ° 0 min 0,000 mm 0,0 UV-I 0 W/m² -3,2 °C -6,7 °C 27,4 km/h (4 Bft)
17.01.2018 19:10 -1,6 °C 89 % 1011,3 hPa 0,0 mm 20,2 km/h (4 Bft) W 276 ° 0 min 0,000 mm 0,0 UV-I 0 W/m² -3,2 °C -7,3 °C 32,2 km/h (5 Bft)
17.01.2018 19:11 -1,6 °C 89 % 1011,3 hPa 0,0 mm 14,4 km/h (3 Bft) W 262 ° 0 min 0,000 mm 0,0 UV-I 0 W/m² -3,2 °C -6,3 °C 25,7 km/h (4 Bft)
17.01.2018 19:12 -1,6 °C 89 % 1011,3 hPa 0,0 mm 14,5 km/h (3 Bft) S-SW 207 ° 0 min 0,000 mm 0,0 UV-I 0 W/m² -3,2 °C -6,3 °C 19,3 km/h (3 Bft)
17.01.2018 19:13 -1,6 °C 89 % 1011,2 hPa 0,0 mm 13,9 km/h (3 Bft) W-SW 250 ° 0 min 0,000 mm 0,0 UV-I 0 W/m² -3,2 °C -6,2 °C 17,7 km/h (3 Bft)
17.01.2018 19:14 -1,6 °C 89 % 1011,4 hPa 0,0 mm 17,3 km/h (3 Bft) W-SW 248 ° 0 min 0,000 mm 0,0 UV-I 0 W/m² -3,2 °C -6,8 °C 27,4 km/h (4 Bft)
17.01.2018 19:15 -1,6 °C 89 % 1011,4 hPa 0,0 mm 19,5 km/h (3 Bft) W-SW 257 ° 0 min 0,000 mm 0,0 UV-I 0 W/m² -3,2 °C -7,2 °C 33,8 km/h (5 Bft)
17.01.2018 19:16 -1,6 °C 89 % 1011,3 hPa 0,0 mm 19,4 km/h (3 Bft) W-NW 288 ° 0 min 0,000 mm 0,0 UV-I 0 W/m² -3,2 °C -7,2 °C 27,4 km/h (4 Bft)
17.01.2018 19:17 -1,6 °C 89 % 1011,2 hPa 0,0 mm 15,0 km/h (3 Bft) SW 236 ° 0 min 0,000 mm 0,0 UV-I 0 W/m² -3,2 °C -6,4 °C 20,9 km/h (4 Bft)
17.01.2018 19:18 -1,6 °C 88 % 1011,3 hPa 0,0 mm 13,2 km/h (3 Bft) W 261 ° 0 min 0,000 mm 0,0 UV-I 0 W/m² -3,3 °C -6,0 °C 40,2 km/h (6 Bft)
17.01.2018 19:19 -1,6 °C 88 % 1011,3 hPa 0,0 mm 23,3 km/h (4 Bft) W 260 ° 0 min 0,000 mm 0,0 UV-I 0 W/m² -3,3 °C -7,7 °C 32,2 km/h (5 Bft)
17.01.2018 19:20 -1,6 °C 89 % 1011,3 hPa 0,0 mm 23,7 km/h (4 Bft) W-SW 251 ° 0 min 0,000 mm 0,0 UV-I 0 W/m² -3,2 °C -7,8 °C 38,6 km/h (5 Bft)
17.01.2018 19:21 -1,6 °C 88 % 1011,2 hPa 0,0 mm 18,3 km/h (3 Bft) S-SW 207 ° 0 min 0,000 mm 0,0 UV-I 0 W/m² -3,3 °C -7,0 °C 27,4 km/h (4 Bft)
17.01.2018 19:22 -1,6 °C 88 % 1011,3 hPa 0,0 mm 15,6 km/h (3 Bft) S-SW 206 ° 0 min 0,000 mm 0,0 UV-I 0 W/m² -3,3 °C -6,5 °C 25,7 km/h (4 Bft)
17.01.2018 19:23 -1,5 °C 89 % 1011,3 hPa 0,0 mm 17,6 km/h (3 Bft) W-SW 251 ° 0 min 0,000 mm 0,0 UV-I 0 W/m² -3,1 °C -6,7 °C 22,5 km/h (4 Bft)
17.01.2018 19:24 -1,5 °C 89 % 1011,4 hPa 0,0 mm 15,6 km/h (3 Bft) W-NW 300 ° 0 min 0,000 mm 0,0 UV-I 0 W/m² -3,1 °C -6,4 °C 25,7 km/h (4 Bft)
17.01.2018 19:25 -1,6 °C 89 % 1011,4 hPa 0,0 mm 14,8 km/h (3 Bft) W 269 ° 0 min 0,000 mm 0,0 UV-I 0 W/m² -3,2 °C -6,3 °C 24,1 km/h (4 Bft)
17.01.2018 19:26 -1,5 °C 89 % 1011,3 hPa 0,0 mm 16,4 km/h (3 Bft) W 271 ° 0 min 0,000 mm 0,0 UV-I 0 W/m² -3,1 °C -6,5 °C 24,1 km/h (4 Bft)
17.01.2018 19:27 -1,6 °C 88 % 1011,4 hPa 0,0 mm 15,6 km/h (3 Bft) W-SW 246 ° 0 min 0,000 mm 0,0 UV-I 0 W/m² -3,3 °C -6,5 °C 27,4 km/h (4 Bft)
17.01.2018 19:28 -1,6 °C 89 % 1011,3 hPa 0,0 mm 18,3 km/h (3 Bft) W 261 ° 0 min 0,000 mm 0,0 UV-I 0 W/m² -3,2 °C -7,0 °C 24,1 km/h (4 Bft)
17.01.2018 19:29 -1,6 °C 89 % 1011,3 hPa 0,0 mm 12,7 km/h (3 Bft) W 275 ° 0 min 0,000 mm 0,0 UV-I 0 W/m² -3,2 °C -5,9 °C 17,7 km/h (3 Bft)
17.01.2018 19:30 -1,5 °C 89 % 1011,4 hPa 0,0 mm 21,5 km/h (4 Bft) W 272 ° 0 min 0,000 mm 0,0 UV-I 0 W/m² -3,1 °C -7,4 °C 29,0 km/h (5 Bft)
17.01.2018 19:31 -1,6 °C 89 % 1011,4 hPa 0,0 mm 12,7 km/h (3 Bft) W 263 ° 0 min 0,000 mm 0,0 UV-I 0 W/m² -3,2 °C -5,9 °C 17,7 km/h (3 Bft)
17.01.2018 19:32 -1,6 °C 89 % 1011,3 hPa 0,0 mm 15,7 km/h (3 Bft) W 272 ° 0 min 0,000 mm 0,0 UV-I 0 W/m² -3,2 °C -6,5 °C 19,3 km/h (3 Bft)
17.01.2018 19:33 -1,6 °C 89 % 1011,4 hPa 0,0 mm 16,0 km/h (3 Bft) SW 231 ° 0 min 0,000 mm 0,0 UV-I 0 W/m² -3,2 °C -6,6 °C 24,1 km/h (4 Bft)
17.01.2018 19:34 -1,6 °C 89 % 1011,4 hPa 0,0 mm 24,2 km/h (4 Bft) W 267 ° 0 min 0,000 mm 0,0 UV-I 0 W/m² -3,2 °C -7,9 °C 30,6 km/h (5 Bft)
17.01.2018 19:35 -1,6 °C 89 % 1011,4 hPa 0,0 mm 15,1 km/h (3 Bft) W 259 ° 0 min 0,000 mm 0,0 UV-I 0 W/m² -3,2 °C -6,4 °C 20,9 km/h (4 Bft)
17.01.2018 19:36 -1,6 °C 89 % 1011,6 hPa 0,0 mm 17,0 km/h (3 Bft) W 280 ° 0 min 0,000 mm 0,0 UV-I 0 W/m² -3,2 °C -6,8 °C 22,5 km/h (4 Bft)
17.01.2018 19:37 -1,6 °C 89 % 1011,5 hPa 0,0 mm 16,6 km/h (3 Bft) W 262 ° 0 min 0,000 mm 0,0 UV-I 0 W/m² -3,2 °C -6,7 °C 24,1 km/h (4 Bft)
17.01.2018 19:38 -1,6 °C 89 % 1011,6 hPa 0,0 mm 23,9 km/h (4 Bft) W-NW 296 ° 0 min 0,000 mm 0,0 UV-I 0 W/m² -3,2 °C -7,8 °C 37,0 km/h (5 Bft)
17.01.2018 19:39 -1,6 °C 89 % 1011,6 hPa 0,0 mm 13,8 km/h (3 Bft) W 259 ° 0 min 0,000 mm 0,0 UV-I 0 W/m² -3,2 °C -6,1 °C 25,7 km/h (4 Bft)
17.01.2018 19:40 -1,6 °C 89 % 1011,6 hPa 0,0 mm 18,9 km/h (3 Bft) W 265 ° 0 min 0,000 mm 0,0 UV-I 0 W/m² -3,2 °C -7,1 °C 24,1 km/h (4 Bft)
17.01.2018 19:41 -1,6 °C 89 % 1011,7 hPa 0,0 mm 26,1 km/h (4 Bft) W 281 ° 0 min 0,000 mm 0,0 UV-I 0 W/m² -3,2 °C -8,1 °C 38,6 km/h (5 Bft)
17.01.2018 19:42 -1,6 °C 89 % 1011,7 hPa 0,0 mm 19,3 km/h (3 Bft) W-SW 239 ° 0 min 0,000 mm 0,0 UV-I 0 W/m² -3,2 °C -7,2 °C 25,7 km/h (4 Bft)
17.01.2018 19:43 -1,6 °C 89 % 1011,6 hPa 0,0 mm 24,7 km/h (4 Bft) W-SW 257 ° 0 min 0,000 mm 0,0 UV-I 0 W/m² -3,2 °C -7,9 °C 38,6 km/h (5 Bft)
17.01.2018 19:44 -1,6 °C 89 % 1011,6 hPa 0,0 mm 18,6 km/h (3 Bft) W 272 ° 0 min 0,000 mm 0,0 UV-I 0 W/m² -3,2 °C -7,0 °C 25,7 km/h (4 Bft)
17.01.2018 19:45 -1,6 °C 89 % 1011,5 hPa 0,0 mm 16,5 km/h (3 Bft) W 260 ° 0 min 0,000 mm 0,0 UV-I 0 W/m² -3,2 °C -6,7 °C 22,5 km/h (4 Bft)
17.01.2018 19:46 -1,6 °C 90 % 1011,5 hPa 0,0 mm 23,3 km/h (4 Bft) W 261 ° 0 min 0,000 mm 0,0 UV-I 0 W/m² -3,0 °C -7,7 °C 37,0 km/h (5 Bft)
17.01.2018 19:47 -1,6 °C 89 % 1011,5 hPa 0,0 mm 21,9 km/h (4 Bft) W-SW 251 ° 0 min 0,000 mm 0,0 UV-I 0 W/m² -3,2 °C -7,5 °C 32,2 km/h (5 Bft)
17.01.2018 19:48 -1,6 °C 89 % 1011,4 hPa 0,0 mm 22,3 km/h (4 Bft) W 273 ° 0 min 0,000 mm 0,0 UV-I 0 W/m² -3,2 °C -7,6 °C 41,8 km/h (6 Bft)
17.01.2018 19:49 -1,6 °C 89 % 1011,4 hPa 0,0 mm 16,4 km/h (3 Bft) W 263 ° 0 min 0,000 mm 0,0 UV-I 0 W/m² -3,2 °C -6,7 °C 25,7 km/h (4 Bft)
17.01.2018 19:50 -1,6 °C 89 % 1011,5 hPa 0,0 mm 19,5 km/h (3 Bft) W 269 ° 0 min 0,000 mm 0,0 UV-I 0 W/m² -3,2 °C -7,2 °C 29,0 km/h (5 Bft)
17.01.2018 19:51 -1,6 °C 89 % 1011,4 hPa 0,0 mm 22,3 km/h (4 Bft) W 273 ° 0 min 0,000 mm 0,0 UV-I 0 W/m² -3,2 °C -7,6 °C 25,7 km/h (4 Bft)
17.01.2018 19:52 -1,6 °C 89 % 1011,5 hPa 0,0 mm 24,6 km/h (4 Bft) W-SW 250 ° 0 min 0,000 mm 0,0 UV-I 0 W/m² -3,2 °C -7,9 °C 33,8 km/h (5 Bft)
17.01.2018 19:53 -1,6 °C 89 % 1011,6 hPa 0,0 mm 13,4 km/h (3 Bft) W-SW 256 ° 0 min 0,000 mm 0,0 UV-I 0 W/m² -3,2 °C -6,1 °C 20,9 km/h (4 Bft)
17.01.2018 19:54 -1,6 °C 89 % 1011,7 hPa 0,0 mm 21,3 km/h (4 Bft) W-NW 301 ° 0 min 0,000 mm 0,0 UV-I 0 W/m² -3,2 °C -7,5 °C 33,8 km/h (5 Bft)
17.01.2018 19:55 -1,6 °C 90 % 1011,6 hPa 0,0 mm 19,2 km/h (3 Bft) NW 326 ° 0 min 0,000 mm 0,0 UV-I 0 W/m² -3,0 °C -7,1 °C 27,4 km/h (4 Bft)
17.01.2018 19:56 -1,6 °C 90 % 1011,6 hPa 0,0 mm 18,8 km/h (3 Bft) S-SW 209 ° 0 min 0,000 mm 0,0 UV-I 0 W/m² -3,0 °C -7,1 °C 25,7 km/h (4 Bft)
17.01.2018 19:57 -1,6 °C 90 % 1011,6 hPa 0,0 mm 12,2 km/h (2 Bft) W 263 ° 0 min 0,000 mm 0,0 UV-I 0 W/m² -3,0 °C -5,8 °C 16,1 km/h (3 Bft)
17.01.2018 19:58 -1,6 °C 90 % 1011,6 hPa 0,0 mm 13,3 km/h (3 Bft) W 276 ° 0 min 0,000 mm 0,0 UV-I 0 W/m² -3,0 °C -6,0 °C 19,3 km/h (3 Bft)
17.01.2018 19:59 -1,6 °C 90 % 1011,7 hPa 0,0 mm 19,8 km/h (3 Bft) W 265 ° 0 min 0,000 mm 0,0 UV-I 0 W/m² -3,0 °C -7,2 °C 27,4 km/h (4 Bft)
17.01.2018 20:00 -1,6 °C 90 % 1011,6 hPa 0,0 mm 20,0 km/h (4 Bft) W 274 ° 0 min 0,000 mm 0,0 UV-I 0 W/m² -3,0 °C -7,3 °C 27,4 km/h (4 Bft)
17.01.2018 20:01 -1,6 °C 90 % 1011,6 hPa 0,0 mm 21,4 km/h (4 Bft) W 273 ° 0 min 0,026 mm 0,0 UV-I 0 W/m² -3,0 °C -7,5 °C 27,4 km/h (4 Bft)
17.01.2018 20:02 -1,7 °C 90 % 1011,5 hPa 0,0 mm 22,1 km/h (4 Bft) SW 234 ° 0 min 0,000 mm 0,0 UV-I 0 W/m² -3,1 °C -7,7 °C 32,2 km/h (5 Bft)
17.01.2018 20:03 -1,7 °C 90 % 1011,7 hPa 0,0 mm 21,1 km/h (4 Bft) NW 310 ° 0 min 0,000 mm 0,0 UV-I 0 W/m² -3,1 °C -7,6 °C 37,0 km/h (5 Bft)
17.01.2018 20:04 -1,7 °C 90 % 1011,7 hPa 0,0 mm 19,0 km/h (3 Bft) SW 236 ° 0 min 0,000 mm 0,0 UV-I 0 W/m² -3,1 °C -7,2 °C 27,4 km/h (4 Bft)
17.01.2018 20:05 -1,7 °C 90 % 1011,6 hPa 0,0 mm 21,0 km/h (4 Bft) W-NW 283 ° 0 min 0,000 mm 0,0 UV-I 0 W/m² -3,1 °C -7,5 °C 32,2 km/h (5 Bft)
17.01.2018 20:06 -1,7 °C 90 % 1011,7 hPa 0,0 mm 19,7 km/h (3 Bft) W 270 ° 0 min 0,000 mm 0,0 UV-I 0 W/m² -3,1 °C -7,3 °C 25,7 km/h (4 Bft)
17.01.2018 20:07 -1,7 °C 90 % 1011,7 hPa 0,0 mm 24,1 km/h (4 Bft) W 279 ° 0 min 0,000 mm 0,0 UV-I 0 W/m² -3,1 °C -8,0 °C 32,2 km/h (5 Bft)
17.01.2018 20:08 -1,7 °C 90 % 1011,6 hPa 0,0 mm 18,1 km/h (3 Bft) W 271 ° 0 min 0,000 mm 0,0 UV-I 0 W/m² -3,1 °C -7,1 °C 27,4 km/h (4 Bft)
17.01.2018 20:09 -1,7 °C 90 % 1011,7 hPa 0,0 mm 17,3 km/h (3 Bft) W 278 ° 0 min 0,000 mm 0,0 UV-I 0 W/m² -3,1 °C -6,9 °C 24,1 km/h (4 Bft)
17.01.2018 20:10 -1,7 °C 90 % 1011,8 hPa 0,0 mm 23,3 km/h (4 Bft) W 266 ° 0 min 0,000 mm 0,0 UV-I 0 W/m² -3,1 °C -7,9 °C 32,2 km/h (5 Bft)
17.01.2018 20:11 -1,7 °C 90 % 1011,8 hPa 0,0 mm 21,7 km/h (4 Bft) W 259 ° 0 min 0,000 mm 0,0 UV-I 0 W/m² -3,1 °C -7,6 °C 33,8 km/h (5 Bft)
17.01.2018 20:12 -1,7 °C 90 % 1011,8 hPa 0,0 mm 19,2 km/h (3 Bft) W-SW 255 ° 0 min 0,000 mm 0,0 UV-I 0 W/m² -3,1 °C -7,3 °C 27,4 km/h (4 Bft)
17.01.2018 20:13 -1,7 °C 90 % 1011,9 hPa 0,0 mm 22,4 km/h (4 Bft) W-SW 247 ° 0 min 0,000 mm 0,0 UV-I 0 W/m² -3,1 °C -7,7 °C 33,8 km/h (5 Bft)
17.01.2018 20:14 -1,7 °C 90 % 1011,8 hPa 0,0 mm 21,0 km/h (4 Bft) W 271 ° 0 min 0,000 mm 0,0 UV-I 0 W/m² -3,1 °C -7,5 °C 32,2 km/h (5 Bft)
17.01.2018 20:15 -1,7 °C 90 % 1011,9 hPa 0,0 mm 22,0 km/h (4 Bft) W-SW 257 ° 0 min 0,000 mm 0,0 UV-I 0 W/m² -3,1 °C -7,7 °C 33,8 km/h (5 Bft)
17.01.2018 20:16 -1,7 °C 90 % 1011,9 hPa 0,0 mm 23,9 km/h (4 Bft) W 271 ° 0 min 0,000 mm 0,0 UV-I 0 W/m² -3,1 °C -7,9 °C 48,3 km/h (6 Bft)
17.01.2018 20:17 -1,6 °C 90 % 1012,0 hPa 0,0 mm 16,3 km/h (3 Bft) W-SW 250 ° 0 min 0,000 mm 0,0 UV-I 0 W/m² -3,0 °C -6,6 °C 25,7 km/h (4 Bft)
17.01.2018 20:18 -1,6 °C 90 % 1012,1 hPa 0,0 mm 21,1 km/h (4 Bft) W 259 ° 0 min 0,000 mm 0,0 UV-I 0 W/m² -3,0 °C -7,4 °C 35,4 km/h (5 Bft)
17.01.2018 20:19 -1,6 °C 90 % 1012,1 hPa 0,0 mm 19,1 km/h (3 Bft) SW 223 ° 0 min 0,000 mm 0,0 UV-I 0 W/m² -3,0 °C -7,1 °C 29,0 km/h (5 Bft)
17.01.2018 20:20 -1,6 °C 90 % 1012,1 hPa 0,0 mm 23,1 km/h (4 Bft) W 262 ° 0 min 0,000 mm 0,0 UV-I 0 W/m² -3,0 °C -7,7 °C 33,8 km/h (5 Bft)
17.01.2018 20:21 -1,6 °C 90 % 1012,3 hPa 0,0 mm 25,9 km/h (4 Bft) W-SW 246 ° 0 min 0,000 mm 0,0 UV-I 0 W/m² -3,0 °C -8,1 °C 38,6 km/h (5 Bft)
17.01.2018 20:22 -1,6 °C 91 % 1012,3 hPa 0,0 mm 22,1 km/h (4 Bft) W 265 ° 0 min 0,000 mm 0,0 UV-I 0 W/m² -2,9 °C -7,6 °C 27,4 km/h (4 Bft)
17.01.2018 20:23 -1,6 °C 90 % 1012,4 hPa 0,0 mm 22,5 km/h (4 Bft) W-NW 288 ° 0 min 0,000 mm 0,0 UV-I 0 W/m² -3,0 °C -7,6 °C 30,6 km/h (5 Bft)
17.01.2018 20:24 -1,6 °C 91 % 1012,4 hPa 0,0 mm 22,5 km/h (4 Bft) W 281 ° 0 min 0,000 mm 0,0 UV-I 0 W/m² -2,9 °C -7,6 °C 32,2 km/h (5 Bft)
17.01.2018 20:25 -1,6 °C 91 % 1012,3 hPa 0,0 mm 19,1 km/h (3 Bft) W 263 ° 0 min 0,000 mm 0,0 UV-I 0 W/m² -2,9 °C -7,1 °C 29,0 km/h (5 Bft)
17.01.2018 20:26 -1,6 °C 91 % 1012,4 hPa 0,0 mm 19,8 km/h (3 Bft) W-SW 244 ° 0 min 0,000 mm 0,0 UV-I 0 W/m² -2,9 °C -7,2 °C 27,4 km/h (4 Bft)
17.01.2018 20:27 -1,6 °C 91 % 1012,4 hPa 0,0 mm 17,1 km/h (3 Bft) W-SW 244 ° 0 min 0,000 mm 0,0 UV-I 0 W/m² -2,9 °C -6,8 °C 24,1 km/h (4 Bft)
17.01.2018 20:28 -1,6 °C 91 % 1012,3 hPa 0,0 mm 15,0 km/h (3 Bft) W 278 ° 0 min 0,000 mm 0,0 UV-I 0 W/m² -2,9 °C -6,4 °C 20,9 km/h (4 Bft)
17.01.2018 20:29 -1,6 °C 91 % 1012,4 hPa 0,0 mm 19,4 km/h (3 Bft) W-NW 290 ° 0 min 0,000 mm 0,0 UV-I 0 W/m² -2,9 °C -7,2 °C 25,7 km/h (4 Bft)
17.01.2018 20:30 -1,7 °C 91 % 1012,3 hPa 0,0 mm 15,4 km/h (3 Bft) S-SW 204 ° 0 min 0,000 mm 0,0 UV-I 0 W/m² -3,0 °C -6,6 °C 20,9 km/h (4 Bft)
17.01.2018 20:31 -1,7 °C 91 % 1012,2 hPa 0,0 mm 19,7 km/h (3 Bft) W-SW 257 ° 0 min 0,000 mm 0,0 UV-I 0 W/m² -3,0 °C -7,3 °C 29,0 km/h (5 Bft)
17.01.2018 20:32 -1,7 °C 91 % 1012,3 hPa 0,0 mm 27,3 km/h (4 Bft) W 264 ° 0 min 0,000 mm 0,0 UV-I 0 W/m² -3,0 °C -8,4 °C 40,2 km/h (6 Bft)
17.01.2018 20:33 -1,7 °C 91 % 1012,4 hPa 0,0 mm 26,8 km/h (4 Bft) W-SW 244 ° 0 min 0,000 mm 0,0 UV-I 0 W/m² -3,0 °C -8,3 °C 43,5 km/h (6 Bft)
17.01.2018 20:34 -1,7 °C 91 % 1012,3 hPa 0,0 mm 25,1 km/h (4 Bft) W 263 ° 0 min 0,000 mm 0,0 UV-I 0 W/m² -3,0 °C -8,1 °C 37,0 km/h (5 Bft)
17.01.2018 20:35 -1,7 °C 91 % 1012,4 hPa 0,0 mm 22,7 km/h (4 Bft) W 259 ° 0 min 0,000 mm 0,0 UV-I 0 W/m² -3,0 °C -7,8 °C 32,2 km/h (5 Bft)
17.01.2018 20:36 -1,7 °C 91 % 1012,4 hPa 0,0 mm 22,0 km/h (4 Bft) W 273 ° 0 min 0,000 mm 0,0 UV-I 0 W/m² -3,0 °C -7,7 °C 37,0 km/h (5 Bft)
17.01.2018 20:37 -1,7 °C 91 % 1012,5 hPa 0,0 mm 24,5 km/h (4 Bft) W-SW 252 ° 0 min 0,000 mm 0,0 UV-I 0 W/m² -3,0 °C -8,0 °C 33,8 km/h (5 Bft)
17.01.2018 20:38 -1,7 °C 91 % 1012,5 hPa 0,0 mm 24,6 km/h (4 Bft) W 263 ° 0 min 0,000 mm 0,0 UV-I 0 W/m² -3,0 °C -8,0 °C 32,2 km/h (5 Bft)
17.01.2018 20:39 -1,7 °C 91 % 1012,4 hPa 0,0 mm 29,6 km/h (5 Bft) W 261 ° 0 min 0,000 mm 0,0 UV-I 0 W/m² -3,0 °C -8,6 °C 43,5 km/h (6 Bft)
17.01.2018 20:40 -1,7 °C 91 % 1012,3 hPa 0,0 mm 23,7 km/h (4 Bft) W-SW 257 ° 0 min 0,000 mm 0,0 UV-I 0 W/m² -3,0 °C -7,9 °C 35,4 km/h (5 Bft)
17.01.2018 20:41 -1,8 °C 91 % 1012,3 hPa 0,0 mm 19,0 km/h (3 Bft) W-SW 252 ° 0 min 0,000 mm 0,0 UV-I 0 W/m² -3,1 °C -7,4 °C 29,0 km/h (5 Bft)
17.01.2018 20:42 -1,7 °C 91 % 1012,4 hPa 0,0 mm 19,5 km/h (3 Bft) W-NW 284 ° 0 min 0,000 mm 0,0 UV-I 0 W/m² -3,0 °C -7,3 °C 33,8 km/h (5 Bft)
17.01.2018 20:43 -1,8 °C 91 % 1012,4 hPa 0,0 mm 22,1 km/h (4 Bft) W 273 ° 0 min 0,000 mm 0,0 UV-I 0 W/m² -3,1 °C -7,8 °C 29,0 km/h (5 Bft)
17.01.2018 20:44 -1,8 °C 91 % 1012,4 hPa 0,0 mm 18,4 km/h (3 Bft) W 263 ° 0 min 0,000 mm 0,0 UV-I 0 W/m² -3,1 °C -7,3 °C 24,1 km/h (4 Bft)
17.01.2018 20:45 -1,8 °C 91 % 1012,4 hPa 0,0 mm 19,2 km/h (3 Bft) W 260 ° 0 min 0,000 mm 0,0 UV-I 0 W/m² -3,1 °C -7,4 °C 40,2 km/h (6 Bft)
17.01.2018 20:46 -1,8 °C 91 % 1012,4 hPa 0,0 mm 27,0 km/h (4 Bft) W 269 ° 0 min 0,000 mm 0,0 UV-I 0 W/m² -3,1 °C -8,5 °C 32,2 km/h (5 Bft)
17.01.2018 20:47 -1,8 °C 91 % 1012,5 hPa 0,0 mm 20,0 km/h (4 Bft) SW 232 ° 0 min 0,000 mm 0,0 UV-I 0 W/m² -3,1 °C -7,5 °C 30,6 km/h (5 Bft)
17.01.2018 20:48 -1,8 °C 91 % 1012,4 hPa 0,0 mm 23,3 km/h (4 Bft) W-SW 253 ° 0 min 0,000 mm 0,0 UV-I 0 W/m² -3,1 °C -8,0 °C 30,6 km/h (5 Bft)
17.01.2018 20:49 -1,8 °C 91 % 1012,6 hPa 0,0 mm 28,9 km/h (5 Bft) W-SW 257 ° 0 min 0,000 mm 0,0 UV-I 0 W/m² -3,1 °C -8,7 °C 40,2 km/h (6 Bft)
17.01.2018 20:50 -1,8 °C 91 % 1012,5 hPa 0,0 mm 20,2 km/h (4 Bft) W 259 ° 0 min 0,000 mm 0,0 UV-I 0 W/m² -3,1 °C -7,5 °C 35,4 km/h (5 Bft)
17.01.2018 20:51 -1,8 °C 91 % 1012,6 hPa 0,0 mm 16,9 km/h (3 Bft) SW 228 ° 0 min 0,000 mm 0,0 UV-I 0 W/m² -3,1 °C -7,0 °C 25,7 km/h (4 Bft)
17.01.2018 20:52 -1,8 °C 91 % 1012,5 hPa 0,0 mm 17,1 km/h (3 Bft) W 274 ° 0 min 0,000 mm 0,0 UV-I 0 W/m² -3,1 °C -7,0 °C 25,7 km/h (4 Bft)
17.01.2018 20:53 -1,8 °C 91 % 1012,6 hPa 0,0 mm 19,6 km/h (3 Bft) W-NW 286 ° 0 min 0,000 mm 0,0 UV-I 0 W/m² -3,1 °C -7,5 °C 33,8 km/h (5 Bft)
17.01.2018 20:54 -1,7 °C 91 % 1012,6 hPa 0,0 mm 21,3 km/h (4 Bft) W 263 ° 0 min 0,000 mm 0,0 UV-I 0 W/m² -3,0 °C -7,6 °C 29,0 km/h (5 Bft)
17.01.2018 20:55 -1,7 °C 91 % 1012,7 hPa 0,0 mm 20,9 km/h (4 Bft) W-SW 246 ° 0 min 0,000 mm 0,0 UV-I 0 W/m² -3,0 °C -7,5 °C 33,8 km/h (5 Bft)
17.01.2018 20:56 -1,7 °C 91 % 1012,7 hPa 0,0 mm 18,6 km/h (3 Bft) W 265 ° 0 min 0,000 mm 0,0 UV-I 0 W/m² -3,0 °C -7,2 °C 27,4 km/h (4 Bft)
17.01.2018 20:57 -1,7 °C 91 % 1012,6 hPa 0,0 mm 23,5 km/h (4 Bft) W 270 ° 0 min 0,000 mm 0,0 UV-I 0 W/m² -3,0 °C -7,9 °C 35,4 km/h (5 Bft)
17.01.2018 20:58 -1,7 °C 91 % 1012,7 hPa 0,0 mm 16,2 km/h (3 Bft) W 269 ° 0 min 0,000 mm 0,0 UV-I 0 W/m² -3,0 °C -6,7 °C 22,5 km/h (4 Bft)
17.01.2018 20:59 -1,7 °C 91 % 1012,7 hPa 0,0 mm 20,0 km/h (4 Bft) W 276 ° 0 min 0,000 mm 0,0 UV-I 0 W/m² -3,0 °C -7,4 °C 37,0 km/h (5 Bft)
17.01.2018 21:00 -1,7 °C 91 % 1012,6 hPa 0,0 mm 19,0 km/h (3 Bft) W-SW 239 ° 0 min 0,000 mm 0,0 UV-I 0 W/m² -3,0 °C -7,2 °C 29,0 km/h (5 Bft)
17.01.2018 21:01 -1,7 °C 91 % 1012,7 hPa 0,0 mm 19,6 km/h (3 Bft) W 262 ° 0 min 0,025 mm 0,0 UV-I 0 W/m² -3,0 °C -7,3 °C 22,5 km/h (4 Bft)
17.01.2018 21:02 -1,6 °C 91 % 1012,7 hPa 0,0 mm 15,6 km/h (3 Bft) W-NW 302 ° 0 min 0,000 mm 0,0 UV-I 0 W/m² -2,9 °C -6,5 °C 20,9 km/h (4 Bft)
17.01.2018 21:03 -1,7 °C 91 % 1012,7 hPa 0,0 mm 18,1 km/h (3 Bft) W 267 ° 0 min 0,000 mm 0,0 UV-I 0 W/m² -3,0 °C -7,1 °C 24,1 km/h (4 Bft)
17.01.2018 21:04 -1,6 °C 91 % 1012,7 hPa 0,0 mm 17,2 km/h (3 Bft) W 270 ° 0 min 0,000 mm 0,0 UV-I 0 W/m² -2,9 °C -6,8 °C 25,7 km/h (4 Bft)
17.01.2018 21:05 -1,6 °C 91 % 1012,8 hPa 0,0 mm 21,1 km/h (4 Bft) W-SW 252 ° 0 min 0,000 mm 0,0 UV-I 0 W/m² -2,9 °C -7,4 °C 30,6 km/h (5 Bft)
17.01.2018 21:06 -1,6 °C 91 % 1012,8 hPa 0,0 mm 22,0 km/h (4 Bft) W 261 ° 0 min 0,000 mm 0,0 UV-I 0 W/m² -2,9 °C -7,6 °C 30,6 km/h (5 Bft)
17.01.2018 21:07 -1,6 °C 91 % 1012,9 hPa 0,0 mm 23,6 km/h (4 Bft) W 275 ° 0 min 0,000 mm 0,0 UV-I 0 W/m² -2,9 °C -7,8 °C 35,4 km/h (5 Bft)
17.01.2018 21:08 -1,6 °C 91 % 1012,9 hPa 0,0 mm 20,4 km/h (4 Bft) W 272 ° 0 min 0,000 mm 0,0 UV-I 0 W/m² -2,9 °C -7,3 °C 32,2 km/h (5 Bft)
17.01.2018 21:09 -1,6 °C 91 % 1013,1 hPa 0,0 mm 21,1 km/h (4 Bft) W 265 ° 0 min 0,000 mm 0,0 UV-I 0 W/m² -2,9 °C -7,4 °C 29,0 km/h (5 Bft)
17.01.2018 21:10 -1,6 °C 91 % 1013,0 hPa 0,0 mm 27,9 km/h (4 Bft) W-NW 296 ° 0 min 0,000 mm 0,0 UV-I 0 W/m² -2,9 °C -8,3 °C 38,6 km/h (5 Bft)
17.01.2018 21:11 -1,6 °C 91 % 1012,9 hPa 0,0 mm 22,1 km/h (4 Bft) W-SW 246 ° 0 min 0,000 mm 0,0 UV-I 0 W/m² -2,9 °C -7,6 °C 27,4 km/h (4 Bft)
17.01.2018 21:12 -1,6 °C 91 % 1013,0 hPa 0,0 mm 20,1 km/h (4 Bft) W-NW 286 ° 0 min 0,000 mm 0,0 UV-I 0 W/m² -2,9 °C -7,3 °C 35,4 km/h (5 Bft)
17.01.2018 21:13 -1,5 °C 90 % 1013,0 hPa 0,0 mm 16,8 km/h (3 Bft) W-SW 255 ° 0 min 0,000 mm 0,0 UV-I 0 W/m² -2,9 °C -6,6 °C 29,0 km/h (5 Bft)
17.01.2018 21:14 -1,5 °C 91 % 1012,9 hPa 0,0 mm 17,3 km/h (3 Bft) S-SW 203 ° 0 min 0,000 mm 0,0 UV-I 0 W/m² -2,8 °C -6,7 °C 29,0 km/h (5 Bft)
17.01.2018 21:15 -1,4 °C 90 % 1012,9 hPa 0,0 mm 14,2 km/h (3 Bft) W-SW 257 ° 0 min 0,000 mm 0,0 UV-I 0 W/m² -2,8 °C -6,0 °C 19,3 km/h (3 Bft)
17.01.2018 21:16 -1,4 °C 90 % 1013,0 hPa 0,0 mm 28,1 km/h (4 Bft) W-SW 257 ° 0 min 0,000 mm 0,0 UV-I 0 W/m² -2,8 °C -8,1 °C 40,2 km/h (6 Bft)
17.01.2018 21:17 -1,4 °C 90 % 1012,9 hPa 0,0 mm 16,0 km/h (3 Bft) W 260 ° 0 min 0,000 mm 0,0 UV-I 0 W/m² -2,8 °C -6,3 °C 27,4 km/h (4 Bft)
17.01.2018 21:18 -1,4 °C 90 % 1013,0 hPa 0,0 mm 17,2 km/h (3 Bft) SW 217 ° 0 min 0,000 mm 0,0 UV-I 0 W/m² -2,8 °C -6,5 °C 24,1 km/h (4 Bft)
17.01.2018 21:19 -1,4 °C 90 % 1013,0 hPa 0,0 mm 14,8 km/h (3 Bft) W-NW 288 ° 0 min 0,000 mm 0,0 UV-I 0 W/m² -2,8 °C -6,1 °C 19,3 km/h (3 Bft)
17.01.2018 21:20 -1,4 °C 90 % 1013,0 hPa 0,0 mm 20,7 km/h (4 Bft) SW 235 ° 0 min 0,000 mm 0,0 UV-I 0 W/m² -2,8 °C -7,1 °C 29,0 km/h (5 Bft)
17.01.2018 21:21 -1,4 °C 90 % 1013,1 hPa 0,0 mm 24,0 km/h (4 Bft) W-NW 288 ° 0 min 0,000 mm 0,0 UV-I 0 W/m² -2,8 °C -7,6 °C 30,6 km/h (5 Bft)
17.01.2018 21:22 -1,4 °C 90 % 1013,1 hPa 0,0 mm 19,9 km/h (4 Bft) W-NW 282 ° 0 min 0,000 mm 0,0 UV-I 0 W/m² -2,8 °C -7,0 °C 29,0 km/h (5 Bft)
17.01.2018 21:23 -1,3 °C 90 % 1013,1 hPa 0,0 mm 17,0 km/h (3 Bft) W-SW 237 ° 0 min 0,000 mm 0,0 UV-I 0 W/m² -2,7 °C -6,4 °C 25,7 km/h (4 Bft)
17.01.2018 21:24 -1,3 °C 90 % 1013,0 hPa 0,0 mm 24,3 km/h (4 Bft) W 260 ° 0 min 0,000 mm 0,0 UV-I 0 W/m² -2,7 °C -7,5 °C 33,8 km/h (5 Bft)
17.01.2018 21:25 -1,3 °C 90 % 1013,1 hPa 0,0 mm 22,2 km/h (4 Bft) W 265 ° 0 min 0,000 mm 0,0 UV-I 0 W/m² -2,7 °C -7,2 °C 35,4 km/h (5 Bft)
17.01.2018 21:26 -1,3 °C 90 % 1013,2 hPa 0,0 mm 19,2 km/h (3 Bft) W 260 ° 0 min 0,000 mm 0,0 UV-I 0 W/m² -2,7 °C -6,8 °C 27,4 km/h (4 Bft)
17.01.2018 21:27 -1,3 °C 90 % 1013,1 hPa 0,0 mm 23,1 km/h (4 Bft) W-SW 254 ° 0 min 0,000 mm 0,0 UV-I 0 W/m² -2,7 °C -7,3 °C 32,2 km/h (5 Bft)
17.01.2018 21:28 -1,3 °C 89 % 1013,4 hPa 0,0 mm 18,4 km/h (3 Bft) W 266 ° 0 min 0,000 mm 0,0 UV-I 0 W/m² -2,9 °C -6,6 °C 30,6 km/h (5 Bft)
17.01.2018 21:29 -1,3 °C 89 % 1013,4 hPa 0,0 mm 21,3 km/h (4 Bft) W-SW 248 ° 0 min 0,000 mm 0,0 UV-I 0 W/m² -2,9 °C -7,1 °C 29,0 km/h (5 Bft)
17.01.2018 21:30 -1,3 °C 89 % 1013,3 hPa 0,0 mm 21,0 km/h (4 Bft) W-SW 255 ° 0 min 0,000 mm 0,0 UV-I 0 W/m² -2,9 °C -7,0 °C 29,0 km/h (5 Bft)
17.01.2018 21:31 -1,2 °C 89 % 1013,3 hPa 0,0 mm 21,5 km/h (4 Bft) W 260 ° 0 min 0,000 mm 0,0 UV-I 0 W/m² -2,8 °C -7,0 °C 32,2 km/h (5 Bft)
17.01.2018 21:32 -1,2 °C 89 % 1013,4 hPa 0,0 mm 20,0 km/h (4 Bft) W 259 ° 0 min 0,000 mm 0,0 UV-I 0 W/m² -2,8 °C -6,8 °C 30,6 km/h (5 Bft)
17.01.2018 21:33 -1,2 °C 89 % 1013,4 hPa 0,0 mm 18,8 km/h (3 Bft) W 273 ° 0 min 0,000 mm 0,0 UV-I 0 W/m² -2,8 °C -6,6 °C 24,1 km/h (4 Bft)
17.01.2018 21:34 -1,2 °C 89 % 1013,4 hPa 0,0 mm 24,9 km/h (4 Bft) W-NW 288 ° 0 min 0,000 mm 0,0 UV-I 0 W/m² -2,8 °C -7,4 °C 32,2 km/h (5 Bft)
17.01.2018 21:35 -1,2 °C 89 % 1013,4 hPa 0,0 mm 23,6 km/h (4 Bft) W-SW 238 ° 0 min 0,000 mm 0,0 UV-I 0 W/m² -2,8 °C -7,3 °C 30,6 km/h (5 Bft)
17.01.2018 21:36 -1,2 °C 89 % 1013,3 hPa 0,0 mm 17,7 km/h (3 Bft) W-SW 254 ° 0 min 0,000 mm 0,0 UV-I 0 W/m² -2,8 °C -6,4 °C 22,5 km/h (4 Bft)
17.01.2018 21:37 -1,2 °C 89 % 1013,3 hPa 0,0 mm 19,0 km/h (3 Bft) W-NW 290 ° 0 min 0,000 mm 0,0 UV-I 0 W/m² -2,8 °C -6,6 °C 25,7 km/h (4 Bft)
17.01.2018 21:38 -1,2 °C 89 % 1013,3 hPa 0,0 mm 19,4 km/h (3 Bft) W 267 ° 0 min 0,000 mm 0,0 UV-I 0 W/m² -2,8 °C -6,7 °C 35,4 km/h (5 Bft)
17.01.2018 21:39 -1,2 °C 89 % 1013,3 hPa 0,0 mm 22,4 km/h (4 Bft) W 269 ° 0 min 0,000 mm 0,0 UV-I 0 W/m² -2,8 °C -7,1 °C 35,4 km/h (5 Bft)
17.01.2018 21:40 -1,2 °C 89 % 1013,3 hPa 0,0 mm 16,6 km/h (3 Bft) W 272 ° 0 min 0,000 mm 0,0 UV-I 0 W/m² -2,8 °C -6,2 °C 22,5 km/h (4 Bft)
17.01.2018 21:41 -1,2 °C 89 % 1013,4 hPa 0,0 mm 20,1 km/h (4 Bft) W-NW 285 ° 0 min 0,000 mm 0,0 UV-I 0 W/m² -2,8 °C -6,8 °C 29,0 km/h (5 Bft)
17.01.2018 21:42 -1,2 °C 89 % 1013,4 hPa 0,0 mm 20,2 km/h (4 Bft) W 281 ° 0 min 0,000 mm 0,0 UV-I 0 W/m² -2,8 °C -6,8 °C 30,6 km/h (5 Bft)
17.01.2018 21:43 -1,2 °C 89 % 1013,4 hPa 0,0 mm 21,0 km/h (4 Bft) W-SW 248 ° 0 min 0,000 mm 0,0 UV-I 0 W/m² -2,8 °C -6,9 °C 33,8 km/h (5 Bft)
17.01.2018 21:44 -1,1 °C 89 % 1013,4 hPa 0,0 mm 24,5 km/h (4 Bft) W-SW 257 ° 0 min 0,000 mm 0,0 UV-I 0 W/m² -2,7 °C -7,3 °C 30,6 km/h (5 Bft)
17.01.2018 21:45 -1,1 °C 89 % 1013,4 hPa 0,0 mm 15,3 km/h (3 Bft) W 281 ° 0 min 0,000 mm 0,0 UV-I 0 W/m² -2,7 °C -5,8 °C 25,7 km/h (4 Bft)
17.01.2018 21:46 -1,1 °C 89 % 1013,4 hPa 0,0 mm 20,8 km/h (4 Bft) W-SW 248 ° 0 min 0,000 mm 0,0 UV-I 0 W/m² -2,7 °C -6,8 °C 32,2 km/h (5 Bft)
17.01.2018 21:47 -1,1 °C 89 % 1013,4 hPa 0,0 mm 16,7 km/h (3 Bft) W 279 ° 0 min 0,000 mm 0,0 UV-I 0 W/m² -2,7 °C -6,1 °C 24,1 km/h (4 Bft)
17.01.2018 21:48 -1,2 °C 89 % 1013,4 hPa 0,0 mm 21,4 km/h (4 Bft) W 269 ° 0 min 0,000 mm 0,0 UV-I 0 W/m² -2,8 °C -7,0 °C 30,6 km/h (5 Bft)
17.01.2018 21:49 -1,2 °C 89 % 1013,4 hPa 0,0 mm 19,2 km/h (3 Bft) W-SW 255 ° 0 min 0,000 mm 0,0 UV-I 0 W/m² -2,8 °C -6,6 °C 24,1 km/h (4 Bft)
17.01.2018 21:50 -1,1 °C 89 % 1013,4 hPa 0,0 mm 22,5 km/h (4 Bft) SW 223 ° 0 min 0,000 mm 0,0 UV-I 0 W/m² -2,7 °C -7,0 °C 32,2 km/h (5 Bft)
17.01.2018 21:51 -1,1 °C 89 % 1013,3 hPa 0,0 mm 21,5 km/h (4 Bft) W-SW 254 ° 0 min 0,000 mm 0,0 UV-I 0 W/m² -2,7 °C -6,9 °C 30,6 km/h (5 Bft)
17.01.2018 21:52 -1,1 °C 89 % 1013,4 hPa 0,0 mm 20,2 km/h (4 Bft) W 272 ° 0 min 0,000 mm 0,0 UV-I 0 W/m² -2,7 °C -6,7 °C 27,4 km/h (4 Bft)
17.01.2018 21:53 -1,1 °C 89 % 1013,5 hPa 0,0 mm 20,7 km/h (4 Bft) W-NW 294 ° 0 min 0,000 mm 0,0 UV-I 0 W/m² -2,7 °C -6,7 °C 32,2 km/h (5 Bft)
17.01.2018 21:54 -1,1 °C 89 % 1013,4 hPa 0,0 mm 22,5 km/h (4 Bft) W-SW 257 ° 0 min 0,000 mm 0,0 UV-I 0 W/m² -2,7 °C -7,0 °C 29,0 km/h (5 Bft)
17.01.2018 21:55 -1,1 °C 89 % 1013,5 hPa 0,0 mm 20,5 km/h (4 Bft) W-NW 296 ° 0 min 0,000 mm 0,0 UV-I 0 W/m² -2,7 °C -6,7 °C 35,4 km/h (5 Bft)
17.01.2018 21:56 -1,1 °C 89 % 1013,5 hPa 0,0 mm 21,9 km/h (4 Bft) W 260 ° 0 min 0,000 mm 0,0 UV-I 0 W/m² -2,7 °C -6,9 °C 33,8 km/h (5 Bft)
17.01.2018 21:57 -1,1 °C 89 % 1013,4 hPa 0,0 mm 22,4 km/h (4 Bft) W 261 ° 0 min 0,000 mm 0,0 UV-I 0 W/m² -2,7 °C -7,0 °C 32,2 km/h (5 Bft)
17.01.2018 21:58 -1,1 °C 89 % 1013,5 hPa 0,0 mm 18,3 km/h (3 Bft) W-SW 246 ° 0 min 0,000 mm 0,0 UV-I 0 W/m² -2,7 °C -6,4 °C 29,0 km/h (5 Bft)
17.01.2018 21:59 -1,1 °C 89 % 1013,5 hPa 0,0 mm 13,5 km/h (3 Bft) W-SW 241 ° 0 min 0,000 mm 0,0 UV-I 0 W/m² -2,7 °C -5,5 °C 17,7 km/h (3 Bft)
17.01.2018 22:00 -1,1 °C 89 % 1013,5 hPa 0,0 mm 20,8 km/h (4 Bft) NW 309 ° 0 min 0,025 mm 0,0 UV-I 0 W/m² -2,7 °C -6,8 °C 25,7 km/h (4 Bft)
17.01.2018 22:01 -1,1 °C 89 % 1013,4 hPa 0,0 mm 17,8 km/h (3 Bft) W 265 ° 0 min 0,000 mm 0,0 UV-I 0 W/m² -2,7 °C -6,3 °C 24,1 km/h (4 Bft)
17.01.2018 22:03 -1,1 °C 89 % 1013,5 hPa 0,0 mm 19,8 km/h (3 Bft) W-SW 257 ° 0 min 0,000 mm 0,0 UV-I 0 W/m² -2,7 °C -6,6 °C 27,4 km/h (4 Bft)
17.01.2018 22:04 -1,1 °C 88 % 1013,5 hPa 0,0 mm 21,8 km/h (4 Bft) NW 311 ° 0 min 0,000 mm 0,0 UV-I 0 W/m² -2,8 °C -6,9 °C 30,6 km/h (5 Bft)
17.01.2018 22:05 -1,1 °C 88 % 1013,6 hPa 0,0 mm 16,1 km/h (3 Bft) W-SW 247 ° 0 min 0,000 mm 0,0 UV-I 0 W/m² -2,8 °C -6,0 °C 27,4 km/h (4 Bft)
17.01.2018 22:06 -1,1 °C 88 % 1013,5 hPa 0,0 mm 19,0 km/h (3 Bft) W-SW 254 ° 0 min 0,000 mm 0,0 UV-I 0 W/m² -2,8 °C -6,5 °C 30,6 km/h (5 Bft)
17.01.2018 22:07 -1,1 °C 88 % 1013,5 hPa 0,0 mm 14,8 km/h (3 Bft) W 272 ° 0 min 0,000 mm 0,0 UV-I 0 W/m² -2,8 °C -5,7 °C 20,9 km/h (4 Bft)
17.01.2018 22:08 -1,1 °C 88 % 1013,6 hPa 0,0 mm 22,3 km/h (4 Bft) W-NW 291 ° 0 min 0,000 mm 0,0 UV-I 0 W/m² -2,8 °C -7,0 °C 35,4 km/h (5 Bft)
17.01.2018 22:09 -1,1 °C 88 % 1013,5 hPa 0,0 mm 25,9 km/h (4 Bft) W 263 ° 0 min 0,000 mm 0,0 UV-I 0 W/m² -2,8 °C -7,4 °C 35,4 km/h (5 Bft)
17.01.2018 22:10 -1,1 °C 88 % 1013,6 hPa 0,0 mm 19,2 km/h (3 Bft) W-SW 240 ° 0 min 0,000 mm 0,0 UV-I 0 W/m² -2,8 °C -6,5 °C 29,0 km/h (5 Bft)
17.01.2018 22:11 -1,1 °C 88 % 1013,9 hPa 0,0 mm 20,2 km/h (4 Bft) W 261 ° 0 min 0,000 mm 0,0 UV-I 0 W/m² -2,8 °C -6,7 °C 30,6 km/h (5 Bft)
17.01.2018 22:12 -1,1 °C 88 % 1013,7 hPa 0,0 mm 20,8 km/h (4 Bft) W-SW 247 ° 0 min 0,000 mm 0,0 UV-I 0 W/m² -2,8 °C -6,8 °C 30,6 km/h (5 Bft)
17.01.2018 22:13 -1,1 °C 88 % 1013,7 hPa 0,0 mm 13,9 km/h (3 Bft) W-SW 254 ° 0 min 0,000 mm 0,0 UV-I 0 W/m² -2,8 °C -5,6 °C 20,9 km/h (4 Bft)
17.01.2018 22:14 -1,0 °C 88 % 1013,8 hPa 0,0 mm 16,3 km/h (3 Bft) W 274 ° 0 min 0,000 mm 0,0 UV-I 0 W/m² -2,7 °C -5,9 °C 20,9 km/h (4 Bft)
17.01.2018 22:15 -1,0 °C 88 % 1013,8 hPa 0,0 mm 16,2 km/h (3 Bft) W 279 ° 0 min 0,000 mm 0,0 UV-I 0 W/m² -2,7 °C -5,9 °C 20,9 km/h (4 Bft)
17.01.2018 22:16 -1,0 °C 88 % 1013,8 hPa 0,0 mm 17,2 km/h (3 Bft) W-SW 255 ° 0 min 0,000 mm 0,0 UV-I 0 W/m² -2,7 °C -6,1 °C 32,2 km/h (5 Bft)
17.01.2018 22:17 -1,0 °C 88 % 1013,8 hPa 0,0 mm 20,4 km/h (4 Bft) W-SW 257 ° 0 min 0,000 mm 0,0 UV-I 0 W/m² -2,7 °C -6,6 °C 25,7 km/h (4 Bft)
17.01.2018 22:18 -1,0 °C 88 % 1013,8 hPa 0,0 mm 19,0 km/h (3 Bft) W 277 ° 0 min 0,000 mm 0,0 UV-I 0 W/m² -2,7 °C -6,3 °C 24,1 km/h (4 Bft)
17.01.2018 22:19 -1,0 °C 88 % 1013,8 hPa 0,0 mm 22,0 km/h (4 Bft) W-NW 288 ° 0 min 0,000 mm 0,0 UV-I 0 W/m² -2,7 °C -6,8 °C 35,4 km/h (5 Bft)
17.01.2018 22:20 -1,0 °C 88 % 1013,7 hPa 0,0 mm 23,0 km/h (4 Bft) W 273 ° 0 min 0,000 mm 0,0 UV-I 0 W/m² -2,7 °C -6,9 °C 32,2 km/h (5 Bft)
17.01.2018 22:21 -0,9 °C 88 % 1013,7 hPa 0,0 mm 27,6 km/h (4 Bft) NW 315 ° 0 min 0,000 mm 0,0 UV-I 0 W/m² -2,6 °C -7,4 °C 38,6 km/h (5 Bft)
17.01.2018 22:22 -0,9 °C 88 % 1013,8 hPa 0,0 mm 17,8 km/h (3 Bft) W 277 ° 0 min 0,000 mm 0,0 UV-I 0 W/m² -2,6 °C -6,0 °C 29,0 km/h (5 Bft)
17.01.2018 22:23 -1,0 °C 88 % 1013,8 hPa 0,0 mm 21,0 km/h (4 Bft) W-SW 246 ° 0 min 0,000 mm 0,0 UV-I 0 W/m² -2,7 °C -6,7 °C 32,2 km/h (5 Bft)
17.01.2018 22:24 -0,9 °C 88 % 1013,6 hPa 0,0 mm 21,1 km/h (4 Bft) W 269 ° 0 min 0,000 mm 0,0 UV-I 0 W/m² -2,6 °C -6,5 °C 33,8 km/h (5 Bft)
17.01.2018 22:25 -0,9 °C 88 % 1013,9 hPa 0,0 mm 19,9 km/h (4 Bft) W 261 ° 0 min 0,000 mm 0,0 UV-I 0 W/m² -2,6 °C -6,4 °C 27,4 km/h (4 Bft)
17.01.2018 22:26 -0,9 °C 88 % 1013,8 hPa 0,0 mm 22,0 km/h (4 Bft) W-SW 238 ° 0 min 0,000 mm 0,0 UV-I 0 W/m² -2,6 °C -6,7 °C 33,8 km/h (5 Bft)
17.01.2018 22:27 -0,9 °C 88 % 1013,8 hPa 0,0 mm 20,1 km/h (4 Bft) W-SW 242 ° 0 min 0,000 mm 0,0 UV-I 0 W/m² -2,6 °C -6,4 °C 30,6 km/h (5 Bft)
17.01.2018 22:28 -0,9 °C 88 % 1013,8 hPa 0,0 mm 23,9 km/h (4 Bft) W 261 ° 0 min 0,000 mm 0,0 UV-I 0 W/m² -2,6 °C -6,9 °C 40,2 km/h (6 Bft)
17.01.2018 22:29 -0,9 °C 88 % 1013,8 hPa 0,0 mm 17,7 km/h (3 Bft) W-SW 237 ° 0 min 0,000 mm 0,0 UV-I 0 W/m² -2,6 °C -6,0 °C 27,4 km/h (4 Bft)
17.01.2018 22:30 -0,9 °C 88 % 1013,8 hPa 0,0 mm 15,6 km/h (3 Bft) W-SW 254 ° 0 min 0,000 mm 0,0 UV-I 0 W/m² -2,6 °C -5,6 °C 20,9 km/h (4 Bft)
17.01.2018 22:31 -0,9 °C 88 % 1013,9 hPa 0,0 mm 20,5 km/h (4 Bft) W-SW 252 ° 0 min 0,000 mm 0,0 UV-I 0 W/m² -2,6 °C -6,5 °C 30,6 km/h (5 Bft)
17.01.2018 22:32 -0,9 °C 88 % 1013,9 hPa 0,0 mm 12,4 km/h (3 Bft) W 277 ° 0 min 0,000 mm 0,0 UV-I 0 W/m² -2,6 °C -5,0 °C 16,1 km/h (3 Bft)
17.01.2018 22:33 -0,9 °C 88 % 1013,9 hPa 0,0 mm 19,0 km/h (3 Bft) NW 314 ° 0 min 0,000 mm 0,0 UV-I 0 W/m² -2,6 °C -6,2 °C 25,7 km/h (4 Bft)
17.01.2018 22:34 -0,9 °C 88 % 1014,0 hPa 0,0 mm 11,8 km/h (2 Bft) W-SW 250 ° 0 min 0,000 mm 0,0 UV-I 0 W/m² -2,6 °C -4,8 °C 19,3 km/h (3 Bft)
17.01.2018 22:35 -0,9 °C 88 % 1014,0 hPa 0,0 mm 15,1 km/h (3 Bft) W 274 ° 0 min 0,000 mm 0,0 UV-I 0 W/m² -2,6 °C -5,5 °C 20,9 km/h (4 Bft)
17.01.2018 22:36 -0,9 °C 88 % 1014,0 hPa 0,0 mm 18,3 km/h (3 Bft) W 269 ° 0 min 0,000 mm 0,0 UV-I 0 W/m² -2,6 °C -6,1 °C 27,4 km/h (4 Bft)
17.01.2018 22:37 -0,9 °C 88 % 1014,1 hPa 0,0 mm 12,2 km/h (2 Bft) W-SW 249 ° 0 min 0,000 mm 0,0 UV-I 0 W/m² -2,6 °C -4,9 °C 16,1 km/h (3 Bft)
17.01.2018 22:38 -0,9 °C 88 % 1014,1 hPa 0,0 mm 15,8 km/h (3 Bft) W-SW 238 ° 0 min 0,000 mm 0,0 UV-I 0 W/m² -2,6 °C -5,7 °C 20,9 km/h (4 Bft)
17.01.2018 22:39 -0,9 °C 88 % 1014,0 hPa 0,0 mm 14,4 km/h (3 Bft) W 276 ° 0 min 0,000 mm 0,0 UV-I 0 W/m² -2,6 °C -5,4 °C 20,9 km/h (4 Bft)
17.01.2018 22:40 -0,9 °C 88 % 1014,2 hPa 0,0 mm 18,4 km/h (3 Bft) SW 234 ° 0 min 0,000 mm 0,0 UV-I 0 W/m² -2,6 °C -6,1 °C 27,4 km/h (4 Bft)
17.01.2018 22:41 -0,9 °C 88 % 1014,0 hPa 0,0 mm 14,2 km/h (3 Bft) W-SW 253 ° 0 min 0,000 mm 0,0 UV-I 0 W/m² -2,6 °C -5,4 °C 25,7 km/h (4 Bft)
17.01.2018 22:42 -0,9 °C 88 % 1014,1 hPa 0,0 mm 16,7 km/h (3 Bft) W 277 ° 0 min 0,000 mm 0,0 UV-I 0 W/m² -2,6 °C -5,8 °C 20,9 km/h (4 Bft)
17.01.2018 22:43 -0,9 °C 88 % 1014,2 hPa 0,0 mm 18,3 km/h (3 Bft) W-SW 258 ° 0 min 0,000 mm 0,0 UV-I 0 W/m² -2,6 °C -6,1 °C 29,0 km/h (5 Bft)
17.01.2018 22:44 -0,9 °C 88 % 1014,1 hPa 0,0 mm 16,3 km/h (3 Bft) W 275 ° 0 min 0,000 mm 0,0 UV-I 0 W/m² -2,6 °C -5,8 °C 19,3 km/h (3 Bft)
17.01.2018 22:45 -0,9 °C 88 % 1014,1 hPa 0,0 mm 21,1 km/h (4 Bft) W-NW 292 ° 0 min 0,000 mm 0,0 UV-I 0 W/m² -2,6 °C -6,5 °C 27,4 km/h (4 Bft)
17.01.2018 22:46 -0,9 °C 88 % 1014,0 hPa 0,0 mm 11,3 km/h (2 Bft) SW 223 ° 0 min 0,000 mm 0,0 UV-I 0 W/m² -2,6 °C -4,7 °C 14,5 km/h (3 Bft)
17.01.2018 22:47 -0,9 °C 88 % 1014,1 hPa 0,0 mm 14,6 km/h (3 Bft) W-SW 256 ° 0 min 0,000 mm 0,0 UV-I 0 W/m² -2,6 °C -5,4 °C 24,1 km/h (4 Bft)
17.01.2018 22:48 -0,9 °C 88 % 1014,1 hPa 0,0 mm 17,0 km/h (3 Bft) W-SW 257 ° 0 min 0,000 mm 0,0 UV-I 0 W/m² -2,6 °C -5,9 °C 25,7 km/h (4 Bft)
17.01.2018 22:49 -0,8 °C 87 % 1014,2 hPa 0,0 mm 22,7 km/h (4 Bft) W 275 ° 0 min 0,000 mm 0,0 UV-I 0 W/m² -2,7 °C -6,6 °C 29,0 km/h (5 Bft)
17.01.2018 22:50 -0,8 °C 87 % 1014,2 hPa 0,0 mm 13,3 km/h (3 Bft) W 270 ° 0 min 0,000 mm 0,0 UV-I 0 W/m² -2,7 °C -5,1 °C 17,7 km/h (3 Bft)
17.01.2018 22:51 -0,8 °C 88 % 1014,2 hPa 0,0 mm 13,0 km/h (3 Bft) W-SW 243 ° 0 min 0,000 mm 0,0 UV-I 0 W/m² -2,5 °C -5,0 °C 20,9 km/h (4 Bft)
17.01.2018 22:52 -0,8 °C 87 % 1014,2 hPa 0,0 mm 14,2 km/h (3 Bft) W-SW 258 ° 0 min 0,000 mm 0,0 UV-I 0 W/m² -2,7 °C -5,2 °C 20,9 km/h (4 Bft)
17.01.2018 22:53 -0,8 °C 87 % 1014,2 hPa 0,0 mm 14,3 km/h (3 Bft) W-SW 254 ° 0 min 0,000 mm 0,0 UV-I 0 W/m² -2,7 °C -5,3 °C 24,1 km/h (4 Bft)
17.01.2018 22:54 -0,8 °C 88 % 1014,2 hPa 0,0 mm 18,0 km/h (3 Bft) W 263 ° 0 min 0,000 mm 0,0 UV-I 0 W/m² -2,5 °C -5,9 °C 25,7 km/h (4 Bft)
17.01.2018 22:55 -0,8 °C 88 % 1014,3 hPa 0,0 mm 19,7 km/h (3 Bft) W-NW 298 ° 0 min 0,000 mm 0,0 UV-I 0 W/m² -2,5 °C -6,2 °C 27,4 km/h (4 Bft)
17.01.2018 22:56 -0,8 °C 88 % 1014,2 hPa 0,0 mm 20,3 km/h (4 Bft) W 276 ° 0 min 0,000 mm 0,0 UV-I 0 W/m² -2,5 °C -6,3 °C 29,0 km/h (5 Bft)
17.01.2018 22:57 -0,8 °C 87 % 1014,3 hPa 0,0 mm 14,8 km/h (3 Bft) W-SW 255 ° 0 min 0,000 mm 0,0 UV-I 0 W/m² -2,7 °C -5,4 °C 20,9 km/h (4 Bft)
17.01.2018 22:58 -0,8 °C 87 % 1014,3 hPa 0,0 mm 20,6 km/h (4 Bft) W-NW 292 ° 0 min 0,000 mm 0,0 UV-I 0 W/m² -2,7 °C -6,3 °C 24,1 km/h (4 Bft)
17.01.2018 22:59 -0,8 °C 87 % 1014,3 hPa 0,0 mm 22,7 km/h (4 Bft) W-SW 253 ° 0 min 0,000 mm 0,0 UV-I 0 W/m² -2,7 °C -6,6 °C 30,6 km/h (5 Bft)
17.01.2018 23:00 -0,8 °C 87 % 1014,3 hPa 0,0 mm 22,0 km/h (4 Bft) W 263 ° 0 min 0,000 mm 0,0 UV-I 0 W/m² -2,7 °C -6,5 °C 30,6 km/h (5 Bft)
17.01.2018 23:01 -0,8 °C 87 % 1014,4 hPa 0,0 mm 22,6 km/h (4 Bft) NW 306 ° 0 min 0,026 mm 0,0 UV-I 0 W/m² -2,7 °C -6,6 °C 29,0 km/h (5 Bft)
17.01.2018 23:02 -0,8 °C 87 % 1014,4 hPa 0,0 mm 14,7 km/h (3 Bft) W 261 ° 0 min 0,000 mm 0,0 UV-I 0 W/m² -2,7 °C -5,3 °C 19,3 km/h (3 Bft)
17.01.2018 23:03 -0,8 °C 88 % 1014,3 hPa 0,0 mm 15,3 km/h (3 Bft) W-SW 257 ° 0 min 0,000 mm 0,0 UV-I 0 W/m² -2,5 °C -5,5 °C 19,3 km/h (3 Bft)
17.01.2018 23:04 -0,8 °C 87 % 1014,3 hPa 0,0 mm 15,9 km/h (3 Bft) W-SW 257 ° 0 min 0,000 mm 0,0 UV-I 0 W/m² -2,7 °C -5,6 °C 25,7 km/h (4 Bft)
17.01.2018 23:05 -0,8 °C 87 % 1014,3 hPa 0,0 mm 13,5 km/h (3 Bft) W-NW 302 ° 0 min 0,000 mm 0,0 UV-I 0 W/m² -2,7 °C -5,1 °C 16,1 km/h (3 Bft)
17.01.2018 23:06 -0,8 °C 87 % 1014,4 hPa 0,0 mm 11,3 km/h (2 Bft) W-SW 256 ° 0 min 0,000 mm 0,0 UV-I 0 W/m² -2,7 °C -4,6 °C 14,5 km/h (3 Bft)
17.01.2018 23:07 -0,8 °C 87 % 1014,3 hPa 0,0 mm 12,8 km/h (3 Bft) W 271 ° 0 min 0,000 mm 0,0 UV-I 0 W/m² -2,7 °C -5,0 °C 20,9 km/h (4 Bft)
17.01.2018 23:08 -0,8 °C 87 % 1014,3 hPa 0,0 mm 22,1 km/h (4 Bft) W 261 ° 0 min 0,000 mm 0,0 UV-I 0 W/m² -2,7 °C -6,6 °C 32,2 km/h (5 Bft)
17.01.2018 23:09 -0,8 °C 88 % 1014,3 hPa 0,0 mm 19,9 km/h (4 Bft) W 275 ° 0 min 0,000 mm 0,0 UV-I 0 W/m² -2,5 °C -6,2 °C 32,2 km/h (5 Bft)
17.01.2018 23:10 -0,8 °C 88 % 1014,3 hPa 0,0 mm 17,7 km/h (3 Bft) W 269 ° 0 min 0,000 mm 0,0 UV-I 0 W/m² -2,5 °C -5,9 °C 29,0 km/h (5 Bft)
17.01.2018 23:11 -0,8 °C 88 % 1014,5 hPa 0,0 mm 23,4 km/h (4 Bft) W-SW 246 ° 0 min 0,000 mm 0,0 UV-I 0 W/m² -2,5 °C -6,7 °C 30,6 km/h (5 Bft)
17.01.2018 23:12 -0,8 °C 88 % 1014,4 hPa 0,0 mm 19,0 km/h (3 Bft) W-SW 254 ° 0 min 0,000 mm 0,0 UV-I 0 W/m² -2,5 °C -6,1 °C 25,7 km/h (4 Bft)
17.01.2018 23:13 -0,8 °C 88 % 1014,4 hPa 0,0 mm 20,0 km/h (4 Bft) W-SW 256 ° 0 min 0,000 mm 0,0 UV-I 0 W/m² -2,5 °C -6,3 °C 29,0 km/h (5 Bft)
17.01.2018 23:14 -0,8 °C 88 % 1014,5 hPa 0,0 mm 13,7 km/h (3 Bft) W 263 ° 0 min 0,000 mm 0,0 UV-I 0 W/m² -2,5 °C -5,1 °C 19,3 km/h (3 Bft)
17.01.2018 23:15 -0,8 °C 88 % 1014,5 hPa 0,0 mm 19,7 km/h (3 Bft) W-SW 247 ° 0 min 0,000 mm 0,0 UV-I 0 W/m² -2,5 °C -6,2 °C 27,4 km/h (4 Bft)
17.01.2018 23:16 -0,8 °C 88 % 1014,5 hPa 0,0 mm 23,7 km/h (4 Bft) W 263 ° 0 min 0,000 mm 0,0 UV-I 0 W/m² -2,5 °C -6,8 °C 33,8 km/h (5 Bft)
17.01.2018 23:17 -0,8 °C 88 % 1014,4 hPa 0,0 mm 16,8 km/h (3 Bft) W 277 ° 0 min 0,000 mm 0,0 UV-I 0 W/m² -2,5 °C -5,7 °C 19,3 km/h (3 Bft)
17.01.2018 23:18 -0,8 °C 88 % 1014,5 hPa 0,0 mm 22,7 km/h (4 Bft) W-SW 253 ° 0 min 0,000 mm 0,0 UV-I 0 W/m² -2,5 °C -6,6 °C 35,4 km/h (5 Bft)
17.01.2018 23:19 -0,8 °C 88 % 1014,4 hPa 0,0 mm 21,8 km/h (4 Bft) W-SW 240 ° 0 min 0,000 mm 0,0 UV-I 0 W/m² -2,5 °C -6,5 °C 35,4 km/h (5 Bft)
17.01.2018 23:20 -0,8 °C 87 % 1014,5 hPa 0,0 mm 22,8 km/h (4 Bft) W-SW 249 ° 0 min 0,000 mm 0,0 UV-I 0 W/m² -2,7 °C -6,7 °C 35,4 km/h (5 Bft)
17.01.2018 23:21 -0,8 °C 87 % 1014,5 hPa 0,0 mm 21,4 km/h (4 Bft) W 261 ° 0 min 0,000 mm 0,0 UV-I 0 W/m² -2,7 °C -6,5 °C 29,0 km/h (5 Bft)
17.01.2018 23:22 -0,8 °C 87 % 1014,4 hPa 0,0 mm 28,0 km/h (4 Bft) W-NW 284 ° 0 min 0,000 mm 0,0 UV-I 0 W/m² -2,7 °C -7,3 °C 37,0 km/h (5 Bft)
17.01.2018 23:23 -0,8 °C 87 % 1014,5 hPa 0,0 mm 18,4 km/h (3 Bft) W 263 ° 0 min 0,000 mm 0,0 UV-I 0 W/m² -2,7 °C -6,0 °C 25,7 km/h (4 Bft)
17.01.2018 23:24 -0,8 °C 87 % 1014,5 hPa 0,0 mm 11,3 km/h (2 Bft) W 277 ° 0 min 0,000 mm 0,0 UV-I 0 W/m² -2,7 °C -4,6 °C 16,1 km/h (3 Bft)
17.01.2018 23:25 -0,8 °C 87 % 1014,4 hPa 0,0 mm 12,9 km/h (3 Bft) W 261 ° 0 min 0,000 mm 0,0 UV-I 0 W/m² -2,7 °C -5,0 °C 19,3 km/h (3 Bft)
17.01.2018 23:26 -0,8 °C 87 % 1014,4 hPa 0,0 mm 21,0 km/h (4 Bft) W 259 ° 0 min 0,000 mm 0,0 UV-I 0 W/m² -2,7 °C -6,4 °C 25,7 km/h (4 Bft)
17.01.2018 23:27 -0,8 °C 88 % 1014,4 hPa 0,0 mm 20,2 km/h (4 Bft) W 267 ° 0 min 0,000 mm 0,0 UV-I 0 W/m² -2,5 °C -6,3 °C 27,4 km/h (4 Bft)
17.01.2018 23:28 -0,8 °C 88 % 1014,4 hPa 0,0 mm 22,7 km/h (4 Bft) W 259 ° 0 min 0,000 mm 0,0 UV-I 0 W/m² -2,5 °C -6,6 °C 27,4 km/h (4 Bft)
17.01.2018 23:29 -0,8 °C 88 % 1014,4 hPa 0,0 mm 19,2 km/h (3 Bft) W-NW 282 ° 0 min 0,000 mm 0,0 UV-I 0 W/m² -2,5 °C -6,1 °C 25,7 km/h (4 Bft)
17.01.2018 23:30 -0,8 °C 88 % 1014,3 hPa 0,0 mm 19,1 km/h (3 Bft) W-SW 254 ° 0 min 0,000 mm 0,0 UV-I 0 W/m² -2,5 °C -6,1 °C 25,7 km/h (4 Bft)
17.01.2018 23:31 -0,8 °C 88 % 1014,4 hPa 0,0 mm 14,6 km/h (3 Bft) W-SW 246 ° 0 min 0,000 mm 0,0 UV-I 0 W/m² -2,5 °C -5,3 °C 19,3 km/h (3 Bft)
17.01.2018 23:32 -0,8 °C 88 % 1014,4 hPa 0,0 mm 19,1 km/h (3 Bft) W-NW 298 ° 0 min 0,000 mm 0,0 UV-I 0 W/m² -2,5 °C -6,1 °C 25,7 km/h (4 Bft)
17.01.2018 23:33 -0,8 °C 88 % 1014,3 hPa 0,0 mm 13,1 km/h (3 Bft) W-NW 292 ° 0 min 0,000 mm 0,0 UV-I 0 W/m² -2,5 °C -5,0 °C 24,1 km/h (4 Bft)
17.01.2018 23:34 -0,8 °C 88 % 1014,3 hPa 0,0 mm 8,2 km/h (2 Bft) W 278 ° 0 min 0,000 mm 0,0 UV-I 0 W/m² -2,5 °C -3,7 °C 19,3 km/h (3 Bft)
17.01.2018 23:35 -0,9 °C 88 % 1014,4 hPa 0,0 mm 17,6 km/h (3 Bft) W-SW 253 ° 0 min 0,000 mm 0,0 UV-I 0 W/m² -2,6 °C -6,0 °C 29,0 km/h (5 Bft)
17.01.2018 23:36 -0,9 °C 88 % 1014,4 hPa 0,0 mm 16,1 km/h (3 Bft) SW 219 ° 0 min 0,000 mm 0,0 UV-I 0 W/m² -2,6 °C -5,7 °C 24,1 km/h (4 Bft)
17.01.2018 23:37 -0,9 °C 89 % 1014,4 hPa 0,0 mm 13,8 km/h (3 Bft) W-SW 257 ° 0 min 0,000 mm 0,0 UV-I 0 W/m² -2,5 °C -5,3 °C 17,7 km/h (3 Bft)
17.01.2018 23:38 -0,9 °C 89 % 1014,4 hPa 0,0 mm 17,6 km/h (3 Bft) W-SW 255 ° 0 min 0,000 mm 0,0 UV-I 0 W/m² -2,5 °C -6,0 °C 29,0 km/h (5 Bft)
17.01.2018 23:39 -0,9 °C 89 % 1014,4 hPa 0,0 mm 16,4 km/h (3 Bft) W 259 ° 0 min 0,000 mm 0,0 UV-I 0 W/m² -2,5 °C -5,8 °C 29,0 km/h (5 Bft)
17.01.2018 23:40 -0,9 °C 89 % 1014,4 hPa 0,0 mm 12,9 km/h (3 Bft) W 277 ° 0 min 0,000 mm 0,0 UV-I 0 W/m² -2,5 °C -5,1 °C 17,7 km/h (3 Bft)
17.01.2018 23:41 -0,9 °C 89 % 1014,5 hPa 0,0 mm 11,2 km/h (2 Bft) W 268 ° 0 min 0,000 mm 0,0 UV-I 0 W/m² -2,5 °C -4,7 °C 16,1 km/h (3 Bft)
17.01.2018 23:42 -0,9 °C 89 % 1014,5 hPa 0,0 mm 16,0 km/h (3 Bft) W-SW 257 ° 0 min 0,000 mm 0,0 UV-I 0 W/m² -2,5 °C -5,7 °C 19,3 km/h (3 Bft)
17.01.2018 23:43 -0,9 °C 89 % 1014,4 hPa 0,0 mm 16,2 km/h (3 Bft) W-NW 283 ° 0 min 0,000 mm 0,0 UV-I 0 W/m² -2,5 °C -5,8 °C 22,5 km/h (4 Bft)
17.01.2018 23:44 -0,9 °C 90 % 1014,5 hPa 0,0 mm 15,0 km/h (3 Bft) W 270 ° 0 min 0,000 mm 0,0 UV-I 0 W/m² -2,3 °C -5,5 °C 20,9 km/h (4 Bft)
17.01.2018 23:45 -1,0 °C 90 % 1014,5 hPa 0,0 mm 12,1 km/h (2 Bft) W 266 ° 0 min 0,000 mm 0,0 UV-I 0 W/m² -2,4 °C -5,0 °C 24,1 km/h (4 Bft)
17.01.2018 23:46 -1,0 °C 90 % 1014,5 hPa 0,0 mm 9,1 km/h (2 Bft) W-NW 292 ° 0 min 0,000 mm 0,0 UV-I 0 W/m² -2,4 °C -4,3 °C 12,9 km/h (3 Bft)
17.01.2018 23:47 -1,0 °C 90 % 1014,5 hPa 0,0 mm 11,0 km/h (2 Bft) W 260 ° 0 min 0,000 mm 0,0 UV-I 0 W/m² -2,4 °C -4,8 °C 19,3 km/h (3 Bft)
17.01.2018 23:48 -1,1 °C 90 % 1014,5 hPa 0,0 mm 16,0 km/h (3 Bft) SW 224 ° 0 min 0,000 mm 0,0 UV-I 0 W/m² -2,5 °C -6,0 °C 19,3 km/h (3 Bft)
17.01.2018 23:49 -1,1 °C 90 % 1014,6 hPa 0,0 mm 16,0 km/h (3 Bft) W 278 ° 0 min 0,000 mm 0,0 UV-I 0 W/m² -2,5 °C -6,0 °C 22,5 km/h (4 Bft)
17.01.2018 23:50 -1,1 °C 90 % 1014,6 hPa 0,0 mm 10,3 km/h (2 Bft) W-SW 248 ° 0 min 0,000 mm 0,0 UV-I 0 W/m² -2,5 °C -4,7 °C 14,5 km/h (3 Bft)
17.01.2018 23:51 -1,1 °C 91 % 1014,6 hPa 0,0 mm 8,6 km/h (2 Bft) W 277 ° 0 min 0,000 mm 0,0 UV-I 0 W/m² -2,4 °C -4,2 °C 14,5 km/h (3 Bft)
17.01.2018 23:52 -1,1 °C 91 % 1014,6 hPa 0,0 mm 11,1 km/h (2 Bft) W 269 ° 0 min 0,000 mm 0,0 UV-I 0 W/m² -2,4 °C -4,9 °C 16,1 km/h (3 Bft)
17.01.2018 23:53 -1,1 °C 91 % 1014,7 hPa 0,0 mm 14,8 km/h (3 Bft) W-NW 290 ° 0 min 0,000 mm 0,0 UV-I 0 W/m² -2,4 °C -5,7 °C 22,5 km/h (4 Bft)
17.01.2018 23:54 -1,2 °C 91 % 1014,7 hPa 0,0 mm 15,0 km/h (3 Bft) W-SW 255 ° 0 min 0,000 mm 0,0 UV-I 0 W/m² -2,5 °C -5,9 °C 20,9 km/h (4 Bft)
17.01.2018 23:55 -1,2 °C 91 % 1014,7 hPa 0,0 mm 18,0 km/h (3 Bft) W-SW 257 ° 0 min 0,000 mm 0,0 UV-I 0 W/m² -2,5 °C -6,4 °C 22,5 km/h (4 Bft)
17.01.2018 23:56 -1,2 °C 91 % 1014,7 hPa 0,0 mm 17,4 km/h (3 Bft) W 273 ° 0 min 0,000 mm 0,0 UV-I 0 W/m² -2,5 °C -6,3 °C 20,9 km/h (4 Bft)
17.01.2018 23:57 -1,2 °C 91 % 1014,7 hPa 0,0 mm 19,2 km/h (3 Bft) W 281 ° 0 min 0,000 mm 0,0 UV-I 0 W/m² -2,5 °C -6,6 °C 32,2 km/h (5 Bft)
17.01.2018 23:58 -1,2 °C 91 % 1014,7 hPa 0,0 mm 18,6 km/h (3 Bft) W 260 ° 0 min 0,000 mm 0,0 UV-I 0 W/m² -2,5 °C -6,5 °C 27,4 km/h (4 Bft)
17.01.2018 23:59 -1,2 °C 91 % 1014,8 hPa 0,0 mm 11,7 km/h (2 Bft) W-SW 254 ° 0 min 0,000 mm 0,0 UV-I 0 W/m² -2,5 °C -5,2 °C 22,5 km/h (4 Bft)
_ Min-Zeit 15:58 23:26 04:58 - 02:22 - - - - - - 15:14 20:49 02:22
Minimum _ -2,2 °C 87 % 997,3 hPa - 1,6 km/h (1 Bft) - - - - - - -3,8 °C -8,7 °C 3,2 km/h (1 Bft)
_ Max-Zeit 03:35 06:15 23:59 04:48 20:39 - - 23:59 23:01 23:59 13:42 00:41 01:48 04:15
Maximum _ 1,8 °C 94 % 1014,8 hPa 0,2 mm 29,6 km/h
W (5 Bft)
- - 0 min 0,026 mm 0,0 UV-I 88 W/m² 0,4 °C 0,9 °C 53,1 km/h
W-NW (7 Bft)
Durchschnitt _ -0,7 °C 91 % 1004,9 hPa #3,4 mm 15,5 km/h (3 Bft) W - #0 min. #0,305 mm 0,0 UV-I 8 W/m² -2,0 °C -5,2 °C 23,0 km/h (4 Bft)